[[{"header":{"parameterUnit":"m.s-1","parameterCategory":1,"la1":30.6,"la2":29.2853,"lo1":-89.7004,"lo2":-87.6739,"dy":0.0162,"dx":0.0183,"nx":112,"ny":82,"refTime":"2026-05-13T00:00:00:Z","depth":0,"parameterNumber":2,"parameterNumberName":"U-component_of_WINDS"},"data":[0.0,0.0,0.0,0.0,0.0,0.0,0.0,0.0,0.0,0.0,0.0,0.0,0.0,0.0,0.0,0.0,0.0,0.0,0.0,0.0,0.0,0.0,0.0,0.0,0.0,0.0,0.0,0.0,0.0,0.0,0.0,0.0,0.0,0.0,0.0,0.0,0.0,0.0,0.0,0.0,0.0,0.0,0.0,0.0,0.0,0.0,0.0,0.0,0.0,0.0,0.0,0.0,0.0,0.0,0.0,0.0,0.0,0.0,0.0,0.0,0.0,0.0,0.0,0.0,0.0,0.0,0.0,0.0,0.0,0.0,0.0,0.0,0.0,0.0,0.0,0.0,0.0,0.0,0.0,0.0,0.0,0.0,0.0,0.0,0.0,0.0,0.0,0.0,0.0,0.0,0.0,-2.837,-3.2237,-3.3907,-3.2332,-3.1563,-2.9074,-2.4103,0.0,0.0,0.0,0.0,0.0,0.0,0.0,0.0,0.0,0.0,0.0,0.0,0.0,0.0,0.0,0.0,0.0,0.0,0.0,0.0,0.0,0.0,0.0,0.0,0.0,0.0,0.0,0.0,0.0,0.0,0.0,0.0,0.0,0.0,0.0,0.0,0.0,0.0,0.0,0.0,0.0,0.0,0.0,0.0,0.0,0.0,0.0,0.0,0.0,0.0,0.0,0.0,0.0,0.0,0.0,0.0,0.0,0.0,0.0,0.0,0.0,0.0,0.0,0.0,0.0,0.0,0.0,0.0,0.0,0.0,0.0,0.0,0.0,0.0,0.0,0.0,0.0,0.0,0.0,0.0,0.0,0.0,0.0,0.0,0.0,0.0,0.0,0.0,0.0,0.0,0.0,0.0,0.0,0.0,0.0,0.0,0.0,0.0,0.0,0.0,0.0,0.0,0.0,0.0,-2.6126,-3.082,-3.3198,-3.3788,-3.2183,-3.1982,-2.9851,-2.4919,0.0,0.0,0.0,0.0,0.0,0.0,0.0,0.0,0.0,0.0,0.0,0.0,0.0,0.0,0.0,0.0,0.0,0.0,0.0,0.0,0.0,0.0,0.0,0.0,0.0,0.0,0.0,0.0,0.0,0.0,0.0,0.0,0.0,0.0,0.0,0.0,0.0,0.0,0.0,0.0,0.0,0.0,0.0,0.0,0.0,0.0,0.0,0.0,0.0,0.0,0.0,0.0,0.0,0.0,0.0,0.0,0.0,0.0,0.0,0.0,0.0,0.0,0.0,0.0,0.0,0.0,0.0,0.0,0.0,0.0,0.0,0.0,0.0,0.0,0.0,0.0,0.0,0.0,0.0,0.0,0.0,0.0,0.0,0.0,0.0,0.0,0.0,0.0,0.0,0.0,0.0,0.0,0.0,0.0,0.0,0.0,0.0,0.0,0.0,0.0,0.0,0.0,0.0,-2.5717,-2.8869,-3.1603,-3.3377,-3.3709,-3.212,-3.1628,-2.9298,-2.4354,-2.1003,0.0,0.0,0.0,0.0,0.0,0.0,0.0,0.0,0.0,0.0,0.0,0.0,0.0,0.0,0.0,0.0,0.0,0.0,0.0,0.0,0.0,0.0,0.0,0.0,0.0,0.0,0.0,0.0,0.0,0.0,0.0,0.0,0.0,0.0,0.0,0.0,0.0,0.0,0.0,0.0,0.0,0.0,0.0,0.0,0.0,0.0,0.0,0.0,0.0,0.0,0.0,0.0,0.0,0.0,0.0,0.0,0.0,0.0,0.0,0.0,0.0,0.0,0.0,0.0,0.0,0.0,0.0,0.0,0.0,0.0,0.0,0.0,0.0,0.0,0.0,0.0,0.0,0.0,0.0,0.0,0.0,0.0,0.0,0.0,0.0,0.0,0.0,0.0,0.0,0.0,0.0,0.0,0.0,0.0,0.0,0.0,0.0,0.0,0.0,0.0,0.0,0.0,-2.8234,-3.1054,-3.1544,-3.2847,-3.3007,-3.1225,-3.0153,-2.7559,-2.2802,-2.0355,0.0,0.0,0.0,0.0,0.0,0.0,0.0,0.0,0.0,0.0,0.0,0.0,0.0,0.0,0.0,0.0,0.0,0.0,0.0,0.0,0.0,0.0,0.0,0.0,0.0,0.0,0.0,0.0,0.0,0.0,0.0,0.0,0.0,0.0,0.0,0.0,0.0,0.0,0.0,0.0,0.0,0.0,0.0,0.0,0.0,0.0,0.0,0.0,0.0,0.0,0.0,0.0,0.0,0.0,0.0,0.0,0.0,0.0,0.0,0.0,0.0,0.0,0.0,0.0,0.0,0.0,0.0,0.0,0.0,0.0,0.0,0.0,0.0,0.0,0.0,0.0,0.0,0.0,0.0,0.0,0.0,0.0,0.0,0.0,0.0,0.0,0.0,0.0,0.0,0.0,0.0,0.0,0.0,0.0,0.0,0.0,0.0,0.0,0.0,0.0,0.0,0.0,-2.8639,-3.144,-3.0745,-3.1452,-3.1005,-2.8589,-2.6963,-2.4293,-2.0117,-1.8304,0.0,0.0,0.0,0.0,0.0,0.0,0.0,0.0,0.0,0.0,0.0,0.0,0.0,0.0,0.0,0.0,0.0,0.0,0.0,0.0,0.0,0.0,0.0,0.0,0.0,0.0,0.0,0.0,0.0,0.0,0.0,0.0,0.0,0.0,0.0,0.0,0.0,0.0,0.0,0.0,0.0,0.0,0.0,0.0,0.0,0.0,0.0,0.0,0.0,0.0,0.0,0.0,0.0,0.0,0.0,0.0,0.0,0.0,0.0,0.0,0.0,0.0,0.0,0.0,0.0,0.0,0.0,0.0,0.0,0.0,0.0,0.0,0.0,0.0,0.0,0.0,0.0,0.0,0.0,0.0,0.0,0.0,0.0,0.0,0.0,0.0,0.0,0.0,0.0,0.0,0.0,0.0,0.0,0.0,0.0,0.0,0.0,0.0,0.0,0.0,0.0,0.0,-2.8268,-3.0734,0.0,-3.0586,-3.0065,-2.7575,-2.6293,-2.4139,-2.0573,0.0,0.0,0.0,0.0,0.0,0.0,0.0,0.0,0.0,0.0,0.0,0.0,0.0,0.0,0.0,0.0,0.0,0.0,0.0,0.0,0.0,0.0,0.0,0.0,0.0,0.0,0.0,0.0,0.0,0.0,0.0,0.0,0.0,0.0,0.0,0.0,0.0,0.0,0.0,0.0,0.0,0.0,0.0,0.0,0.0,0.0,0.0,0.0,0.0,0.0,0.0,0.0,0.0,0.0,0.0,0.0,0.0,0.0,0.0,0.0,0.0,0.0,0.0,0.0,0.0,0.0,0.0,0.0,0.0,0.0,0.0,0.0,0.0,0.0,0.0,0.0,0.0,0.0,0.0,0.0,0.0,0.0,0.0,0.0,0.0,0.0,0.0,0.0,0.0,0.0,0.0,0.0,0.0,0.0,0.0,0.0,0.0,0.0,0.0,0.0,0.0,0.0,-2.3197,-2.7412,-2.9784,0.0,-2.9322,-2.8792,-2.6321,-2.4828,-2.2839,-2.0115,0.0,0.0,0.0,0.0,0.0,0.0,0.0,0.0,0.0,0.0,0.0,0.0,0.0,0.0,0.0,0.0,0.0,0.0,0.0,0.0,0.0,0.0,0.0,0.0,0.0,0.0,0.0,0.0,0.0,0.0,0.0,0.0,0.0,0.0,0.0,0.0,0.0,0.0,0.0,0.0,0.0,0.0,0.0,0.0,0.0,0.0,0.0,0.0,0.0,0.0,0.0,0.0,0.0,0.0,0.0,0.0,0.0,0.0,0.0,0.0,0.0,0.0,0.0,0.0,0.0,0.0,0.0,0.0,0.0,0.0,0.0,0.0,0.0,0.0,0.0,0.0,0.0,0.0,0.0,0.0,0.0,0.0,0.0,0.0,0.0,0.0,0.0,0.0,0.0,0.0,0.0,0.0,0.0,0.0,0.0,0.0,0.0,0.0,0.0,0.0,0.0,0.0,-2.1493,-2.6149,-2.8656,-2.7046,-2.7613,-2.7063,-2.4588,-2.207,-1.9897,0.0,0.0,0.0,0.0,0.0,0.0,0.0,0.0,0.0,0.0,0.0,0.0,0.0,0.0,0.0,0.0,0.0,0.0,0.0,0.0,0.0,0.0,0.0,0.0,0.0,0.0,0.0,0.0,0.0,0.0,0.0,0.0,0.0,0.0,0.0,0.0,0.0,0.0,0.0,0.0,0.0,0.0,0.0,0.0,0.0,0.0,0.0,0.0,0.0,0.0,0.0,0.0,0.0,0.0,0.0,0.0,0.0,0.0,0.0,0.0,0.0,0.0,0.0,0.0,0.0,0.0,0.0,0.0,0.0,0.0,0.0,0.0,0.0,0.0,0.0,0.0,0.0,0.0,0.0,0.0,0.0,0.0,0.0,0.0,0.0,0.0,0.0,0.0,0.0,0.0,0.0,0.0,0.0,0.0,0.0,0.0,0.0,0.0,0.0,0.0,0.0,0.0,0.0,0.0,-2.5474,-2.7627,-2.6026,-2.6569,-2.6023,-2.3492,-2.2026,-2.0285,-1.8086,0.0,0.0,0.0,0.0,0.0,0.0,0.0,0.0,0.0,0.0,0.0,0.0,0.0,0.0,0.0,0.0,0.0,0.0,0.0,0.0,0.0,0.0,0.0,0.0,0.0,0.0,0.0,0.0,0.0,0.0,0.0,0.0,0.0,0.0,0.0,0.0,0.0,0.0,0.0,0.0,0.0,0.0,0.0,0.0,0.0,0.0,0.0,0.0,0.0,0.0,0.0,0.0,0.0,0.0,0.0,0.0,0.0,0.0,0.0,0.0,0.0,0.0,0.0,0.0,0.0,0.0,0.0,0.0,0.0,0.0,0.0,0.0,0.0,0.0,0.0,0.0,0.0,0.0,0.0,0.0,0.0,0.0,0.0,0.0,0.0,0.0,0.0,0.0,0.0,0.0,0.0,0.0,0.0,0.0,0.0,0.0,0.0,0.0,0.0,0.0,0.0,0.0,-2.0111,-2.4003,-2.6078,-2.4814,-2.5407,-2.512,-2.3256,-2.1982,-2.0408,-1.8347,0.0,0.0,0.0,0.0,0.0,0.0,0.0,0.0,0.0,0.0,0.0,0.0,0.0,0.0,0.0,0.0,0.0,0.0,0.0,0.0,0.0,0.0,0.0,0.0,0.0,0.0,0.0,0.0,0.0,0.0,0.0,0.0,0.0,0.0,0.0,0.0,0.0,0.0,0.0,0.0,0.0,0.0,0.0,0.0,0.0,0.0,0.0,0.0,0.0,0.0,0.0,0.0,0.0,0.0,0.0,0.0,0.0,0.0,0.0,0.0,0.0,0.0,0.0,0.0,0.0,0.0,0.0,0.0,0.0,0.0,0.0,0.0,0.0,0.0,0.0,0.0,0.0,0.0,0.0,0.0,0.0,0.0,0.0,0.0,0.0,0.0,0.0,0.0,0.0,0.0,0.0,0.0,0.0,0.0,0.0,0.0,0.0,0.0,0.0,0.0,0.0,0.0,-1.8573,-2.225,-2.4394,-2.3663,-2.4307,-2.4428,-2.3549,-2.1961,-2.0367,-1.8891,0.0,0.0,0.0,0.0,0.0,0.0,0.0,0.0,0.0,0.0,0.0,0.0,0.0,0.0,0.0,0.0,0.0,0.0,0.0,0.0,0.0,0.0,0.0,0.0,0.0,0.0,0.0,0.0,0.0,0.0,0.0,0.0,0.0,0.0,0.0,0.0,0.0,0.0,0.0,0.0,0.0,0.0,0.0,0.0,0.0,0.0,0.0,0.0,0.0,0.0,0.0,0.0,0.0,0.0,0.0,0.0,0.0,0.0,0.0,0.0,-2.5834,0.0,0.0,0.0,0.0,0.0,0.0,0.0,0.0,0.0,0.0,0.0,0.0,0.0,0.0,0.0,0.0,0.0,0.0,0.0,0.0,0.0,0.0,0.0,0.0,0.0,0.0,0.0,0.0,0.0,0.0,0.0,0.0,0.0,0.0,0.0,0.0,0.0,0.0,0.0,0.0,0.0,-1.919,-2.2444,-2.4242,-2.3437,-2.4076,-2.4194,-2.3354,-2.1776,-2.0428,-1.9456,0.0,0.0,0.0,0.0,0.0,0.0,0.0,0.0,0.0,0.0,0.0,0.0,0.0,0.0,0.0,0.0,0.0,0.0,0.0,0.0,0.0,0.0,0.0,0.0,0.0,0.0,0.0,0.0,0.0,0.0,0.0,0.0,0.0,0.0,0.0,0.0,0.0,0.0,0.0,0.0,0.0,0.0,0.0,0.0,0.0,0.0,0.0,0.0,0.0,0.0,0.0,0.0,0.0,0.0,0.0,0.0,0.0,0.0,0.0,0.0,0.0,-2.6534,0.0,0.0,0.0,0.0,0.0,0.0,0.0,0.0,0.0,0.0,0.0,0.0,0.0,0.0,0.0,0.0,0.0,0.0,0.0,0.0,0.0,0.0,0.0,0.0,0.0,0.0,0.0,0.0,0.0,0.0,0.0,0.0,0.0,0.0,0.0,0.0,0.0,0.0,0.0,0.0,-1.9268,-2.1919,-2.3482,-2.3072,-2.3377,-2.3435,-2.2987,-2.1882,-2.0686,-1.9569,-1.7327,0.0,0.0,0.0,0.0,0.0,0.0,0.0,0.0,0.0,0.0,0.0,0.0,0.0,0.0,0.0,0.0,0.0,0.0,0.0,0.0,0.0,0.0,0.0,0.0,0.0,0.0,0.0,0.0,0.0,0.0,0.0,0.0,0.0,0.0,0.0,0.0,0.0,0.0,0.0,0.0,0.0,0.0,0.0,0.0,0.0,0.0,0.0,0.0,0.0,0.0,0.0,0.0,0.0,0.0,0.0,-3.2712,-3.2924,-3.3292,-3.3653,-3.1054,-2.9192,-2.7858,0.0,0.0,0.0,0.0,0.0,0.0,0.0,0.0,0.0,0.0,0.0,0.0,0.0,0.0,0.0,0.0,0.0,0.0,0.0,0.0,0.0,0.0,0.0,0.0,0.0,-2.31,-2.2275,0.0,0.0,0.0,0.0,0.0,0.0,0.0,0.0,0.0,0.0,0.0,0.0,-1.951,-2.1475,-2.2716,-2.2716,-2.2716,-2.2716,-2.2716,-2.2026,-2.1029,-1.9669,-1.8156,-1.6407,0.0,0.0,0.0,0.0,0.0,0.0,0.0,0.0,0.0,0.0,0.0,0.0,0.0,0.0,0.0,0.0,0.0,0.0,0.0,0.0,0.0,0.0,0.0,0.0,0.0,0.0,0.0,0.0,0.0,0.0,0.0,0.0,-2.5417,-2.6021,0.0,0.0,0.0,0.0,0.0,0.0,0.0,0.0,0.0,0.0,0.0,0.0,0.0,0.0,-3.1488,-3.2729,-3.3423,-3.36,-3.5002,-3.5799,-3.5981,-3.6131,-3.6193,-3.6104,-3.5022,0.0,-3.0024,-2.897,0.0,0.0,0.0,0.0,0.0,0.0,0.0,0.0,0.0,0.0,0.0,0.0,0.0,0.0,0.0,0.0,0.0,0.0,0.0,0.0,0.0,0.0,-2.6185,-2.6842,-2.6067,-2.5067,0.0,-2.3138,-2.1382,-1.9882,0.0,0.0,0.0,0.0,0.0,0.0,0.0,0.0,-2.1039,-2.213,-2.2716,-2.2716,-2.2716,-2.2716,-2.2716,-2.2026,-2.1224,-2.0397,-1.8907,-1.7646,-1.6792,-1.469,0.0,0.0,0.0,0.0,0.0,0.0,0.0,0.0,0.0,0.0,0.0,0.0,0.0,0.0,0.0,0.0,0.0,0.0,0.0,0.0,0.0,0.0,0.0,0.0,0.0,0.0,0.0,0.0,0.0,-2.5858,-2.8025,-2.8274,-2.8899,-2.9045,0.0,0.0,0.0,0.0,0.0,0.0,0.0,0.0,0.0,-3.2434,-3.3126,-3.3818,-3.448,-3.5381,-3.5926,-3.5961,-3.663,-3.6968,-3.7033,-3.7132,-3.7099,-3.7033,-3.6665,-3.5514,-3.3697,-3.1488,-2.961,-2.8061,0.0,0.0,0.0,0.0,0.0,0.0,-2.5796,0.0,0.0,0.0,0.0,0.0,0.0,0.0,0.0,0.0,0.0,0.0,0.0,0.0,0.0,-2.8238,-2.7906,-2.7402,-2.6911,-2.6115,-2.4773,0.0,-2.1173,-1.9972,-1.8517,0.0,0.0,0.0,0.0,0.0,-2.1293,-2.2116,-2.2609,-2.2649,-2.2628,-2.2676,-2.2716,-2.2406,-2.1694,-2.0511,-1.982,-1.8726,-1.7156,-1.61,-1.4796,0.0,0.0,0.0,0.0,0.0,0.0,0.0,0.0,0.0,0.0,0.0,0.0,0.0,0.0,0.0,0.0,0.0,0.0,0.0,0.0,0.0,0.0,0.0,0.0,0.0,0.0,0.0,0.0,-2.8338,-3.0402,-3.058,-3.115,-3.127,0.0,0.0,0.0,0.0,0.0,0.0,-3.2168,-3.2437,-3.3305,-3.4983,-3.5489,-3.6058,-3.6716,-3.7345,-3.7674,-3.7674,-3.7823,-3.7913,-3.7913,-3.7913,-3.7913,-3.7913,-3.7734,-3.7404,-3.678,-3.3969,-3.2038,-3.0739,-3.0078,-2.9414,0.0,-2.8837,-2.8927,-2.9078,-2.9078,-2.9251,-2.9451,-2.9346,0.0,-2.6734,-2.5496,0.0,0.0,0.0,0.0,-2.6807,-2.7808,0.0,-2.9053,-2.9221,-2.9267,-2.9056,-2.8464,-2.8212,-2.7317,0.0,-2.343,-2.2493,-2.1254,0.0,0.0,0.0,0.0,-2.1348,-2.2146,-2.2726,-2.2993,-2.2891,-2.287,-2.2842,-2.2689,-2.2703,-2.2061,-2.0498,-2.0394,-1.9464,-1.7397,-1.7122,-1.6029,0.0,0.0,0.0,0.0,0.0,0.0,0.0,0.0,0.0,0.0,0.0,0.0,0.0,0.0,0.0,0.0,0.0,0.0,0.0,0.0,0.0,0.0,0.0,0.0,0.0,0.0,0.0,0.0,0.0,0.0,-3.3215,-3.3873,0.0,0.0,0.0,0.0,-3.2258,-3.2886,-3.3574,-3.4324,-3.4951,-3.5639,-3.6357,-3.6417,-3.6746,-3.7345,-3.8003,-3.8332,-3.8362,-3.902,-3.932,-3.932,-3.932,-3.932,-3.9254,-3.8631,-3.8332,-3.8153,-3.6118,-3.4533,-3.3275,-3.2557,-3.1898,-3.1301,-3.1301,-3.1719,-3.2258,-3.2258,-3.2677,-3.3126,-3.2497,-3.055,-2.8295,-2.714,-2.6459,0.0,0.0,-2.7699,-2.7932,-2.9678,-2.9847,-2.9729,-3.0429,-3.0221,-2.984,-2.9806,-2.9342,-2.8265,0.0,-2.4945,-2.4245,-2.3459,0.0,0.0,-2.3258,-2.3428,-2.3701,-2.4452,-2.4554,-2.433,-2.3628,-2.3596,-2.3364,-2.2644,-2.2642,-2.2061,-2.0498,-2.0394,-1.9705,-1.82,-1.7397,-1.6304,-1.4753,-1.3916,0.0,0.0,0.0,0.0,0.0,0.0,0.0,0.0,0.0,0.0,0.0,0.0,0.0,0.0,0.0,0.0,0.0,0.0,0.0,0.0,0.0,0.0,0.0,0.0,0.0,0.0,0.0,0.0,-3.5938,-3.6985,0.0,0.0,-3.5848,-3.5547,-3.6237,-3.6507,-3.7135,-3.8242,-3.8512,-3.896,-3.9619,-3.9649,-3.9738,-3.9948,-4.0187,-4.0307,-4.0307,-4.0576,-4.0696,-4.0666,-4.0247,-4.0038,-4.0008,-3.9349,-3.905,-3.896,-3.7823,-3.6596,-3.537,-3.4681,-3.4023,-3.3365,-3.2946,-3.2946,-3.3155,-3.3155,-3.3305,-3.3305,-3.2198,-3.0913,-2.9621,-2.8432,-2.808,-2.8247,-2.8824,-2.947,-3.0078,-3.0461,-3.0675,-3.0712,-3.0597,-3.0577,-3.0494,-2.9989,-2.9796,-2.933,-2.8044,-2.6776,-2.5709,-2.4963,-2.4248,-2.3856,-2.4128,-2.4162,-2.4264,-2.455,-2.4569,-2.4328,-2.359,-2.3551,-2.3272,-2.261,-2.2137,-2.1408,-2.0355,-1.9841,-1.9121,-1.8128,-1.7808,-1.7158,-1.6174,-1.4915,-1.3612,0.0,0.0,0.0,0.0,0.0,0.0,0.0,0.0,0.0,0.0,0.0,0.0,0.0,0.0,0.0,0.0,0.0,0.0,0.0,0.0,0.0,0.0,0.0,0.0,0.0,0.0,-3.7375,-3.8003,-3.908,-3.9559,-3.911,-3.8482,-3.8362,-3.902,-3.905,-3.9559,-4.0666,-4.0726,-4.0935,-4.1422,-4.1422,-4.1422,-4.1422,-4.1422,-4.1422,-4.1422,-4.1422,-4.1422,-4.1354,-4.0935,-4.0606,-4.0367,-3.9948,-3.9619,-3.9379,-3.8931,-3.8242,-3.7375,-3.6507,-3.5878,-3.54,-3.4741,-3.4502,-3.4472,-3.4262,-3.4023,-3.3694,-3.2796,-3.1928,-3.1031,-3.0218,-2.9931,-2.9989,-3.0278,-3.0819,-3.1288,-3.1246,-3.1182,-3.1122,-3.0815,-3.0833,-3.0744,-3.0294,-3.0272,-3.0147,-2.9372,-2.8059,-2.6928,-2.6438,-2.5744,-2.5252,-2.5252,-2.5252,-2.5252,-2.5252,-2.5252,-2.4896,-2.3924,-2.3852,-2.3507,-2.2562,-2.2023,-2.1332,-2.026,-1.9747,-1.903,-1.8028,-1.7994,-1.7652,-1.6901,-1.5126,-1.3879,-1.3117,0.0,0.0,0.0,0.0,0.0,0.0,0.0,0.0,0.0,0.0,0.0,0.0,0.0,0.0,0.0,0.0,0.0,0.0,0.0,0.0,0.0,0.0,0.0,-3.4562,-3.6836,-3.8751,-3.9439,-4.0098,-4.0487,-4.0487,-3.9918,-3.9798,-4.0457,-4.0487,-4.0756,-4.1414,-4.1482,-4.1482,-4.1482,-4.1482,-4.1482,-4.1482,-4.1482,-4.1482,-4.1482,-4.1482,-4.1482,-4.1482,-4.1452,-4.1055,-4.0457,-4.0427,-4.0038,-3.9439,-3.9403,-3.9373,-3.9254,-3.7943,-3.7434,-3.7375,-3.6746,-3.6507,-3.6387,-3.5729,-3.507,-3.4533,-3.4503,-3.3604,-3.2557,-3.2497,-3.2049,-3.1598,-3.1912,-3.1677,-3.1451,-3.2029,-3.1517,-3.0904,-3.112,-3.0945,-3.0688,-3.0688,-3.079,-3.0637,-2.9861,-2.8706,-2.784,-2.7806,-2.7181,-2.6725,-2.6691,-2.6691,0.0,-2.6691,-2.6691,-2.6116,-2.4643,-2.4554,-2.4007,-2.2527,-2.2426,-2.1818,-2.0282,-2.0179,-1.9496,-1.8062,-1.7994,-1.7652,-1.6891,-1.4716,-1.3222,-1.2458,0.0,0.0,0.0,0.0,0.0,0.0,0.0,0.0,0.0,0.0,0.0,0.0,0.0,0.0,0.0,0.0,0.0,0.0,0.0,0.0,0.0,0.0,-3.6323,-3.6391,-3.8794,-4.0816,-4.1512,-4.2132,-4.2482,-4.2482,-4.2333,-4.2303,-4.2482,-4.2482,-4.2572,-4.2791,-4.2791,-4.2791,-4.2791,-4.2791,-4.2791,-4.2791,-4.2791,-4.2791,-4.2791,-4.2791,-4.2791,-4.2751,-4.2312,-4.2021,-4.1811,-4.0816,-4.0307,-4.0098,-3.9619,-3.9373,-3.9313,-3.8452,-3.8123,-3.8033,-3.7404,-3.6866,-3.6387,-3.5729,-3.537,-3.513,-3.4683,-3.4264,-3.3754,-3.2796,-3.2348,-3.2167,-3.192,-3.1847,-3.1824,-3.1761,-3.1797,-3.1635,-3.0867,-3.0823,-3.0795,-3.0303,-3.0312,-3.0318,-3.017,-2.951,-2.8682,-2.7742,-2.748,-2.723,-2.6724,0.0,0.0,-2.6691,-2.6691,-2.6116,-2.4643,-2.4523,-2.3913,-2.2457,-2.1841,-2.1142,0.0,-1.9534,-1.8834,-1.7895,-1.7861,-1.75,-1.6764,-1.6183,-1.5241,0.0,0.0,0.0,0.0,0.0,0.0,0.0,0.0,0.0,0.0,0.0,0.0,0.0,0.0,0.0,0.0,0.0,0.0,0.0,0.0,0.0,0.0,-3.6129,-3.8296,-3.8826,-4.0591,-4.1961,-4.2351,-4.294,-4.329,-4.329,-4.329,-4.329,-4.329,-4.329,-4.329,-4.329,-4.329,-4.329,-4.329,-4.329,-4.329,-4.329,-4.329,-4.329,-4.329,-4.329,-4.329,-4.329,-4.294,-4.2611,0.0,-4.1265,-4.0666,-4.0337,-3.9679,-3.9373,0.0,0.0,0.0,0.0,0.0,-3.7015,-3.6387,-3.5729,-3.5519,-3.5429,-3.504,-3.4711,-3.4354,-3.3574,-3.2946,-3.2437,-3.2195,-3.1951,-3.1792,-3.1787,-3.18,-3.1617,-3.0788,-3.0568,-3.0408,-2.9756,-2.9694,-2.9772,-2.9892,0.0,0.0,-2.7874,-2.7688,-2.7431,-2.6707,-2.6657,-2.6691,0.0,-2.6691,-2.6251,-2.5067,-2.4677,-2.4034,-2.2868,-2.209,0.0,0.0,0.0,-1.8899,-1.785,0.0,0.0,0.0,0.0,0.0,0.0,0.0,0.0,0.0,-1.3224,-1.3633,0.0,0.0,0.0,0.0,0.0,0.0,0.0,0.0,0.0,0.0,0.0,0.0,0.0,0.0,0.0,0.0,-3.7543,-4.0119,-4.1222,-4.1972,-4.2423,-4.2423,-4.2891,-4.321,-4.321,-4.321,-4.321,-4.321,-4.321,-4.321,-4.321,0.0,0.0,0.0,0.0,-4.329,-4.329,-4.329,-4.329,-4.329,-4.329,-4.329,-4.329,-4.323,-4.291,-4.2351,-4.1632,-4.0935,-4.0337,-3.9679,-3.9373,-3.9373,-3.9373,-3.9373,-3.926,-3.7913,-3.7075,0.0,0.0,0.0,0.0,-3.5519,-3.51,-3.4623,-3.4533,-3.3664,-3.2706,-3.2557,-3.2079,-3.1658,-3.1913,-3.1708,-3.1251,-3.0763,-3.036,-2.9871,-2.9162,-2.9005,-2.9074,-2.9271,-2.9014,-2.8574,-2.8041,-2.7802,-2.7429,-2.6689,-2.664,0.0,-2.6674,-2.6674,-2.6387,-2.5644,0.0,0.0,-2.3429,-2.2719,-2.1989,-2.1258,-2.042,-1.9393,-1.8087,-1.8053,-1.7693,-1.6959,-1.697,-1.6607,-1.5925,-1.5954,-1.5987,-1.6027,-1.5241,-1.5547,0.0,0.0,0.0,0.0,0.0,0.0,0.0,0.0,0.0,0.0,0.0,0.0,0.0,0.0,0.0,-3.6519,-3.9148,-4.1105,-4.1368,-4.2118,-4.2632,-4.2632,-4.2721,-4.2809,-4.2809,-4.2809,-4.2809,-4.2809,-4.2809,-4.2809,-4.2809,-4.297,0.0,-4.3061,-4.321,-4.329,-4.329,-4.329,-4.329,-4.329,0.0,0.0,-4.326,-4.2791,-4.253,-4.2321,-4.1115,-4.0516,-4.0337,-3.9679,-3.9373,-3.9373,-3.9373,-3.9373,-3.926,-3.7913,-3.7345,-3.7075,-3.5908,-3.5519,-3.5519,-3.5519,-3.54,-3.522,-3.4683,-3.4324,0.0,-3.2796,-3.2407,-3.2227,-3.192,-3.1849,-3.1591,-3.0558,-3.031,-2.9979,-2.8773,-2.8525,-2.8597,-2.8803,-2.8933,-2.872,-2.775,-2.7517,-2.7199,-2.6465,-2.6452,-2.6554,-2.6554,-2.6554,-2.6235,-2.543,-2.4807,-2.4114,-2.3388,-2.269,-2.1989,-2.1258,-2.042,-1.9866,-1.9596,-1.9562,-1.9237,-1.8482,-1.8482,-1.811,-1.7399,-1.7963,-1.8279,-1.8257,-1.6912,-1.6492,0.0,0.0,0.0,0.0,0.0,0.0,0.0,0.0,0.0,0.0,0.0,-3.1671,-3.3587,0.0,-3.7099,-3.8086,-3.9935,-4.1354,-4.1703,-4.2146,-4.2474,-4.2688,-4.2688,-4.2688,-4.2688,-4.2688,-4.2688,-4.2688,-4.2688,-4.2688,-4.2688,-4.289,-4.2981,-4.2981,-4.321,-4.329,-4.329,-4.329,-4.329,-4.329,-4.329,-4.329,-4.326,-4.2671,-4.241,-4.2321,-4.0965,-4.0397,-4.0337,-3.9679,-3.9373,-3.9373,-3.9373,-3.9373,-3.926,-3.7913,-3.7404,-3.7225,-3.5938,-3.5519,-3.5519,-3.5519,-3.5519,-3.5429,-3.51,-3.4773,-3.4294,-3.3275,-3.2766,-3.2377,-3.1806,-3.1683,-3.1498,-3.0555,-3.0152,-2.972,-2.8718,-2.8232,-2.8063,-2.8308,-2.8263,-2.8044,-2.7815,-2.7312,-2.6794,-2.6305,-2.6398,-2.6502,-2.6502,-2.6502,-2.6351,-2.5932,-2.5312,-2.4637,-2.3897,-2.2878,-2.1989,-2.1258,-2.0805,-2.042,-2.0002,-2.0002,-1.9845,-1.9439,-1.9439,-1.927,-1.8899,-1.927,-1.9439,-1.9439,-1.8707,-1.8381,0.0,0.0,0.0,0.0,0.0,0.0,0.0,0.0,-3.0741,-3.2133,-3.3703,-3.5067,-3.5973,-3.736,-3.8667,-3.945,-4.0437,-4.1337,-4.2005,-4.2092,-4.2216,-4.2555,-4.2566,-4.2566,-4.2566,-4.2566,-4.2566,-4.2566,-4.2566,-4.2566,-4.2566,-4.2769,-4.289,-4.289,-4.309,-4.317,-4.317,-4.317,-4.317,-4.317,-4.317,-4.317,-4.314,-4.2443,-4.2124,-4.2064,-4.0748,-4.018,-4.0084,-3.9546,-3.9337,-3.9373,-3.9373,-3.9373,-3.926,-3.7913,-3.7404,-3.7225,-3.5938,-3.5519,-3.5519,-3.5519,-3.5519,-3.5519,-3.5519,-3.513,-3.4533,-3.3724,-3.3125,-3.2497,-3.172,-3.1511,-3.1331,-3.0672,-3.0043,-2.9442,-2.8757,-2.8068,-2.769,-2.789,-2.7655,-2.7457,-2.7847,-2.7264,-2.669,-2.6371,-2.641,-2.6433,-2.6433,-2.6433,-2.6433,-2.6433,-2.5849,-2.5093,-2.4236,-2.2984,-2.1981,-2.1387,-2.1353,-2.1083,-2.0462,-2.0428,-2.036,-2.0251,-2.0251,-2.0149,-2.0002,-2.0149,-2.0251,-2.0251,-2.0386,-2.0272,-2.7425,-2.8797,-3.0831,-3.1651,-3.2417,-3.3097,0.0,0.0,-3.359,-3.5386,-3.5938,-3.6635,-3.8434,-3.8957,-3.9479,-4.0699,-4.1018,-4.1337,-4.2005,-4.2092,-4.2133,-4.2175,-4.2175,-4.2175,-4.2175,-4.2175,-4.2175,-4.2175,-4.2175,-4.2175,-4.2175,-4.2351,-4.2474,-4.2474,-4.2648,-4.2769,-4.2769,-4.2769,-4.2769,-4.2769,-4.2769,-4.2769,-4.2739,-4.1724,-4.1237,-4.1177,-3.9839,-3.9245,-3.9245,-3.9156,-3.9228,-3.9373,-3.9373,-3.9373,-3.926,-3.7913,-3.7404,-3.7225,-3.5938,-3.5519,-3.5519,-3.5519,-3.5519,-3.5519,-3.5519,-3.5459,-3.513,-3.3844,-3.3455,-3.3095,-3.1839,-3.1511,-3.1331,-3.0672,-3.0043,-2.9442,-2.8757,-2.8068,-2.7665,-2.779,-2.7854,-2.7832,-2.7597,-2.7691,-2.7615,-2.6912,-2.6473,-2.6221,-2.6221,-2.6221,-2.6221,-2.6221,-2.5645,-2.4679,-2.3371,-2.2482,-2.1994,-2.1927,-2.1893,-2.1922,-2.1945,-2.1945,-2.1683,-2.1089,-2.1055,-2.0703,-2.0002,-2.0703,-2.1055,-2.1089,-2.1752,-2.1299,-3.0301,-3.1628,-3.319,0.0,-3.4917,-3.5764,-3.6025,-3.617,-3.6664,-3.8202,-3.8812,-3.945,-4.067,-4.0583,-4.0612,0.0,-4.1337,-4.1337,-4.2005,-4.1773,-4.1512,-4.1512,-4.1163,-4.125,-4.2005,-4.2092,-4.2092,-4.2092,-4.2092,-4.2092,-4.2092,-4.2298,-4.2392,-4.2392,-4.2596,-4.2688,-4.2688,-4.2688,-4.2688,-4.2688,-4.2688,-4.2688,-4.2629,-4.1596,-4.0664,-3.9892,-3.9217,-3.898,-3.909,-3.909,-3.9228,-3.9373,-3.9373,-3.9373,-3.926,-3.7913,-3.7404,-3.7225,-3.5938,-3.5519,-3.5519,-3.5519,-3.5519,-3.5519,-3.5519,-3.5519,-3.522,-3.3873,-3.3484,-3.3185,-3.1839,-3.1511,-3.1421,-3.1152,-3.0313,-2.9532,-2.9235,-2.8364,-2.761,-2.769,-2.774,-2.7775,-2.7795,-2.7627,-2.7351,-2.6809,-2.6541,-2.6316,-2.5932,-2.5972,-2.6096,-2.6241,-2.5611,-2.478,-2.3809,-2.3055,-2.2467,-2.2046,-2.2013,-2.2075,-2.22,-2.22,-2.2074,-2.1854,-2.1854,-2.1684,-2.1333,-2.1684,-2.1854,-2.1854,-2.2158,-2.1941,-3.2425,0.0,0.0,-3.5944,-3.6983,-3.7883,-3.8028,-3.8551,-3.9218,-3.9944,-4.0495,-4.096,-4.1453,-4.0873,-4.0641,-4.1657,-4.125,-4.1105,-4.1976,-4.1686,-4.1366,-4.1366,-4.0786,-4.0815,-4.1976,-4.1918,-4.1889,-4.2092,-4.2092,-4.2092,-4.2092,-4.2257,-4.231,-4.231,-4.2474,-4.2555,-4.2555,-4.2555,-4.2555,-4.2555,-4.2555,-4.2555,-4.2496,-4.1401,-4.0178,-3.8907,-3.876,-3.8797,-3.8907,-3.8907,-3.9053,-3.9228,-3.9228,-3.9228,-3.9079,-3.7918,-3.7451,-3.7255,-3.6148,-3.5639,-3.5519,-3.5519,-3.5519,-3.5519,-3.5519,-3.5519,-3.522,-3.3873,-3.3484,-3.3185,-3.1839,-3.1511,-3.1511,-3.1511,-3.0672,-2.9774,-2.9651,-2.8693,-2.7824,-2.7645,-2.7585,-2.769,-2.792,-2.7661,-2.7271,-2.6793,-2.6619,-2.629,-2.5629,-2.577,-2.599,-2.6241,-2.5594,-2.4979,-2.4479,-2.3595,-2.2827,-2.2274,-2.2041,-2.2003,-2.2109,-2.2109,-2.2152,-2.2223,-2.2223,-2.2223,-2.2223,-2.2223,-2.2223,-2.2223,-2.2223,-2.2237,0.0,0.0,-3.5828,-3.7651,-3.8638,-3.9305,-3.9886,-4.0525,-4.0844,-4.0234,-4.0118,-4.0147,-4.0147,-3.9131,-3.8899,-4.0815,-4.0554,-4.0583,-4.1918,-4.2063,-4.2063,-4.2063,-4.1482,-4.1337,0.0,-4.1512,-4.1395,-4.2063,-4.2092,-4.2092,-4.2092,-4.2092,-4.2092,-4.2092,-4.2133,-4.2133,-4.2133,-4.2133,-4.2133,-4.2133,-4.2133,-4.2133,-4.2104,-4.0967,-3.973,-3.853,-3.853,-3.8501,-3.853,-3.853,-3.8649,-3.8833,-3.8833,-3.8833,-3.8745,-3.803,-3.7594,-3.7315,-3.6686,-3.6028,-3.5519,-3.5519,-3.5519,-3.5519,-3.5519,-3.5519,-3.522,-3.3873,-3.3484,-3.3185,-3.1839,-3.1511,-3.1511,-3.1511,-3.0972,-3.0313,-2.9741,-2.9056,-2.8368,-2.7735,-2.7585,-2.7665,-2.779,-2.7915,-2.7771,-2.7167,-2.6658,-2.6035,-2.5309,-2.5607,-2.6005,-2.6168,-2.5541,-2.511,-2.5077,-2.3719,-2.2906,-2.2873,-2.221,-2.1857,-2.1897,-2.1897,-2.1926,-2.2013,-2.2013,-2.2013,-2.2013,-2.2013,-2.2013,-2.2013,-2.2013,-2.2075,-3.3732,0.0,-3.6344,-3.7825,-3.9015,-3.9857,-4.006,-4.0612,-4.0786,-3.9712,-3.916,-3.8841,-3.8841,-3.8173,-3.8086,-3.9596,-3.9973,-4.0408,-4.1308,-4.1424,-4.1424,-4.1424,-4.0495,0.0,0.0,0.0,0.0,-4.2034,-4.2092,-4.2092,-4.2092,-4.2092,-4.2092,-4.2092,-4.2092,-4.2092,-4.2092,-4.2092,-4.2092,-4.2092,-4.2092,-4.1709,-4.0956,-4.044,-3.9576,-3.8493,-3.8352,-3.8352,-3.8493,-3.8493,-3.8612,-3.8797,-3.8797,-3.8797,-3.8767,-3.8531,-3.7866,-3.6966,-3.6348,-3.5663,-3.51,-3.51,-3.51,-3.51,-3.51,-3.5195,-3.5115,-3.4224,-3.3721,-3.3275,-3.2378,-3.1839,-3.1511,-3.1511,-3.0972,-3.0432,-3.0253,-2.9355,-2.8517,-2.8308,-2.7914,-2.761,-2.7665,-2.7715,-2.7349,-2.626,-2.5969,-2.5623,-2.5069,-2.5323,-2.5677,-2.5987,-2.5829,-2.5519,-2.5126,-2.4646,-2.3951,-2.2957,-2.2659,-2.234,-2.1915,-2.1897,-2.1926,-2.2013,-2.2013,-2.2013,-2.2013,-2.2013,-2.2013,-2.2013,-2.2013,-2.2075,-3.4399,-3.5706,-3.6983,-3.8231,-3.916,-3.977,-3.977,-4.0118,-4.0002,-3.8492,-3.7476,-3.6838,-3.6838,-3.6344,-3.6489,-3.8231,-3.9218,-4.0089,-4.0989,-4.1308,-4.1453,-4.1453,-4.0525,0.0,0.0,0.0,0.0,-4.2034,-4.2092,-4.2092,-4.2092,-4.2092,-4.2092,-4.2092,-4.2092,-4.2092,-4.2092,-4.2092,-4.2092,-4.2092,-4.2092,-4.1477,-4.0315,-4.0168,-3.9499,-3.8389,-3.824,-3.8277,-3.8389,-3.8389,-3.8464,-3.8612,-3.8612,-3.8612,-3.8546,-3.8348,-3.7579,-3.6611,-3.6374,-3.5672,-3.4902,-3.4902,-3.4902,-3.4902,-3.4902,-3.5034,-3.508,-3.4396,-3.4017,-3.3634,-3.2736,-3.2168,-3.1809,-3.157,-3.1152,-3.0791,-3.0552,-2.9864,-2.9146,-2.8697,-2.8248,-2.7884,-2.7645,-2.7585,-2.7225,-2.6123,-2.5788,-2.5419,-2.4748,-2.5013,-2.5362,-2.5719,-2.5899,-2.5862,-2.5523,-2.5259,-2.4713,-2.3752,-2.3421,-2.2988,-2.2285,-2.2252,-2.2134,-2.1926,-2.1926,-2.1926,-2.1926,-2.1926,-2.1926,-2.1926,-2.1926,-2.2003,-3.516,-3.6373,-3.7651,-3.8899,-3.9189,-3.9189,-3.916,-3.9131,-3.8551,-3.6606,-3.5154,-3.4225,0.0,0.0,-3.423,-3.678,-3.8347,-3.9625,-4.0873,-4.1657,-4.2092,0.0,0.0,0.0,0.0,0.0,0.0,-4.2034,0.0,-4.2092,-4.2092,-4.2092,-4.2092,-4.2092,-4.2092,-4.2092,-4.2092,-4.2092,-4.2092,-4.2092,-4.2092,-4.1395,-4.0089,-4.0089,-3.9392,-3.8202,-3.8202,-3.8202,-3.8202,-3.8202,-3.8202,-3.8202,-3.8202,-3.8202,-3.8144,-3.7564,-3.6896,-3.6351,-3.6734,-3.5991,-3.4868,-3.4868,-3.4868,-3.4868,-3.4868,-3.5001,-3.5047,-3.4394,-3.4375,-3.4173,-3.2856,-3.2497,-3.2318,-3.1631,-3.1482,-3.1331,-3.0673,-3.0522,-3.0133,-2.8876,-2.8607,-2.8338,-2.7705,-2.7585,-2.7375,-2.6692,-2.6129,-2.544,-2.447,-2.4634,-2.504,-2.5443,-2.5701,-2.5968,-2.615,-2.5539,-2.5109,-2.5076,-2.4414,-2.3703,-2.2974,-2.2957,-2.2626,-2.1945,-2.1912,-2.1912,-2.1912,-2.1912,-2.1912,-2.1912,-2.1912,-2.1941,-3.646,-3.7389,-3.8173,-3.8986,-3.9189,-3.9073,-3.858,-3.8115,-3.7244,-3.5299,-3.3122,-3.1845,0.0,0.0,0.0,-3.5479,-3.7738,0.0,-4.0234,-4.1366,0.0,-4.2092,0.0,-4.1366,-4.2034,-4.1482,0.0,0.0,-4.2092,-4.2092,-4.2092,-4.2092,-4.2092,-4.2092,-4.2092,-4.2092,-4.2092,-4.2092,-4.2092,-4.2092,-4.2092,-4.1395,-4.0089,-4.0089,-3.9392,-3.8202,-3.8202,-3.8202,-3.8202,-3.8202,-3.8202,-3.8202,-3.8202,-3.8202,-3.8173,-3.8028,-3.7273,-3.6315,-3.6422,-3.5613,-3.4534,-3.4534,-3.4534,-3.4534,-3.4534,-3.4664,-3.4802,-3.4626,-3.4345,-3.3945,-3.3084,-3.2491,-3.1959,-3.1338,-3.1278,-3.1306,-3.1127,-3.0766,-3.0283,-2.9475,-2.8543,-2.7794,-2.7615,-2.7585,-2.7375,-2.6692,-2.6057,-2.5454,-2.4898,-2.4688,-2.4715,-2.502,-2.5285,-2.5527,-2.5733,-2.5589,-2.5245,-2.4705,-2.4516,-2.416,-2.3523,-2.3539,-2.3539,-2.3454,-2.3421,-2.3421,-2.3421,-2.3421,-2.3421,-2.3421,-2.3421,-2.3468,-3.7041,-3.7738,-3.8289,-3.8667,-3.858,-3.8115,-3.7157,-3.6257,-3.498,-3.2774,-3.0713,0.0,0.0,0.0,0.0,0.0,0.0,0.0,-3.9538,-4.0815,-4.1773,0.0,-4.1773,0.0,-4.2063,-4.1744,-4.1686,0.0,-4.2092,-4.2092,-4.2092,-4.2092,-4.2092,-4.2092,-4.2092,-4.2092,-4.2092,-4.2092,-4.2092,-4.2092,-4.2092,-4.1395,-4.0089,-4.0089,-3.9392,-3.8202,0.0,-3.8202,-3.8202,-3.8202,-3.8202,-3.8202,-3.8202,-3.8202,-3.8173,-3.7912,-3.7186,-3.6257,-3.5996,-3.5241,-3.4399,-3.4399,-3.4399,-3.4399,-3.4399,-3.4563,-3.4698,-3.4698,-3.4567,-3.4168,-3.3254,-3.2693,-3.2192,-3.1309,-3.122,-3.1307,-3.1307,-3.1096,-3.0672,-2.9774,-2.8753,-2.7944,-2.7645,-2.7585,-2.7465,-2.7106,-2.6452,-2.5841,-2.5319,-2.4698,-2.438,-2.4614,-2.4855,-2.5072,-2.5285,-2.5304,-2.5125,-2.4721,-2.4788,-2.4612,-2.4089,-2.4177,-2.4182,-2.4017,-2.4017,-2.4017,-2.4017,-2.4017,-2.4017,-2.4017,-2.4017,-2.4,-3.7244,-3.7796,-3.8173,-3.8115,-3.7622,-3.6809,-3.5479,-3.4026,-3.2309,-2.9958,0.0,-2.726,-2.7521,-2.8071,-2.929,-3.1961,0.0,-3.6867,-3.8812,-4.0234,-4.1308,-4.1889,-4.2034,-4.2092,-4.2092,-4.2092,-4.2092,-4.2092,-4.2092,-4.2092,-4.2092,-4.2092,-4.2092,-4.2092,-4.2092,-4.2092,-4.2092,-4.2092,-4.2092,-4.2092,-4.2092,-4.1395,-4.0089,-4.0089,-3.9392,-3.8202,0.0,0.0,-3.8202,-3.8202,-3.8202,-3.8202,-3.8202,-3.8202,-3.8144,-3.7622,-3.6954,-3.6228,-3.5712,-3.5009,-3.4399,-3.4399,-3.4399,-3.4399,-3.4399,-3.453,-3.4664,-3.4664,-3.4735,-3.4541,-3.3248,-3.2956,-3.2632,-3.1337,-3.1161,-3.1219,-3.1219,-3.1276,-3.0945,-2.9749,-2.9002,-2.8316,-2.7679,-2.756,-2.756,-2.7585,-2.7046,-2.6393,-2.5824,-2.4799,-2.4137,-2.4255,-2.4431,-2.4603,-2.4803,-2.4803,-2.4803,-2.4803,-2.5001,-2.4958,-2.4572,-2.4753,-2.4653,-2.4232,-2.4216,-2.4216,-2.4216,-2.4216,-2.4232,-2.4249,-2.4249,-2.4265,-3.7883,-3.8115,-3.8086,-3.7593,-3.6954,-3.5996,-3.423,-3.199,0.0,0.0,-2.6562,-2.5052,-2.6649,-2.7026,-2.8129,-3.1206,0.0,0.0,0.0,0.0,-4.1134,0.0,0.0,0.0,0.0,0.0,0.0,0.0,0.0,0.0,-4.2092,-4.2092,-4.2092,-4.2092,-4.2092,-4.2092,-4.2092,-4.2092,-4.2092,-4.2092,-4.2092,-4.1395,-4.0089,-4.0089,-3.9392,-3.8202,0.0,0.0,-3.8202,-3.8202,-3.8202,-3.8202,-3.8202,-3.8202,-3.8202,-3.8086,-3.7302,-3.6286,-3.617,-3.5386,-3.4399,-3.4399,-3.4399,-3.4399,-3.4399,-3.4428,-3.4462,-3.4462,-3.4467,-3.4176,-3.2896,-3.2576,-3.2288,-3.0978,-3.0777,-3.0895,-3.0895,-3.0602,-3.0098,-2.9358,-2.8651,-2.8027,-2.7531,-2.7412,-2.7463,-2.756,-2.7046,-2.6542,-2.6422,-2.5401,-2.4511,-2.4106,-2.412,-2.4266,-2.439,-2.439,-2.439,-2.439,-2.4594,-2.4732,-2.4842,-2.5086,-2.5263,-2.5306,-2.5306,-2.5306,-2.5306,-2.5379,-2.5451,-2.5575,-2.5646,-2.5717,-3.8115,-3.8202,-3.8057,-3.7447,-3.6548,-3.5328,-3.3412,0.0,0.0,0.0,-2.5168,-2.3775,-2.5052,-2.5546,0.0,-2.9581,0.0,0.0,0.0,0.0,0.0,0.0,0.0,0.0,0.0,0.0,0.0,0.0,0.0,0.0,-4.2092,-4.2092,-4.2092,-4.2092,-4.2092,-4.2092,-4.2092,-4.2092,-4.2092,-4.2092,-4.2092,-4.1395,-4.0089,-4.0089,-3.9392,-3.8202,0.0,0.0,-3.8202,-3.8202,-3.8202,-3.8202,-3.8202,-3.8202,-3.8202,-3.8202,-3.7389,-3.6315,-3.6315,-3.5473,-3.4399,-3.4399,-3.4399,-3.4399,-3.4399,-3.4399,-3.4399,-3.4399,-3.4399,-3.4109,-3.2829,-3.2481,-3.2193,-3.0917,-3.0687,-3.0836,-3.0925,-3.0778,-3.0424,-2.9746,-2.907,-2.8446,-2.7954,-2.7624,-2.7437,-2.756,-2.7315,-2.7016,-2.6632,-2.6081,-2.5378,-2.4423,-2.4036,-2.3867,-2.3931,-2.3931,-2.3931,-2.3931,-2.4141,-2.4369,-2.4594,-2.4815,-2.5033,-2.5246,-2.5246,-2.5246,-2.5246,-2.5349,-2.5551,-2.5701,-2.5881,-2.6026,-3.8173,-3.8202,-3.8028,-3.7273,-3.6112,-3.4666,-3.2571,-2.961,0.0,0.0,-2.4065,-2.291,-2.3572,-2.407,-2.5259,0.0,-2.9755,0.0,0.0,0.0,0.0,0.0,0.0,0.0,0.0,0.0,0.0,0.0,0.0,0.0,0.0,-4.2092,-4.2092,-4.2092,-4.2092,-4.2092,-4.2092,-4.2092,-4.2092,-4.2092,-4.2092,-4.1395,-4.0089,-4.0089,-3.9392,-3.8202,0.0,0.0,0.0,-3.8202,-3.8202,-3.8202,-3.8202,-3.8202,-3.8202,-3.8202,-3.7389,-3.6315,-3.6315,-3.5473,-3.4399,-3.4399,-3.4399,-3.4399,-3.4399,-3.4399,-3.4399,-3.4399,-3.4399,-3.4138,-3.3006,-3.2629,-3.2193,-3.0917,-3.0657,-3.0806,-3.0955,-3.0984,-3.0808,-3.0132,-2.9574,-2.9013,-2.8323,-2.7817,-2.7509,-2.7539,-2.7564,-2.738,-2.6896,-2.6716,-2.6183,-2.5143,-2.4298,-2.3759,-2.361,-2.361,-2.361,-2.361,-2.3803,-2.4046,-2.4234,-2.441,-2.4583,-2.4764,-2.4764,-2.4764,-2.4764,-2.4962,-2.5176,-2.5387,-2.5645,-2.5899,-3.8057,-3.8202,-3.7912,-3.6693,-3.5444,-3.3848,-3.1322,0.0,0.0,-2.511,-2.3426,-2.2265,-2.2881,-2.3033,-2.3925,-2.6533,0.0,-3.0104,0.0,0.0,0.0,0.0,0.0,0.0,0.0,0.0,0.0,0.0,0.0,0.0,0.0,-4.2092,-4.2092,-4.2092,-4.2092,-4.2092,-4.2092,-4.2092,-4.2092,-4.2092,-4.2092,-4.1395,-4.0089,-4.0089,-3.9392,-3.8202,0.0,0.0,0.0,-3.8202,-3.8202,-3.8202,-3.8202,-3.8202,-3.8202,-3.8202,-3.7389,-3.6315,-3.6315,-3.5473,-3.4399,-3.4399,-3.4399,-3.4399,-3.4399,-3.4399,-3.4399,-3.4399,-3.4399,-3.4254,-3.359,-3.2948,-3.2193,-3.0917,-3.0598,-3.0598,-3.0628,-3.0628,-3.0453,-2.9784,-2.961,-2.9202,-2.8115,-2.7879,-2.7724,-2.745,-2.7412,-2.7433,-2.75,-2.6986,-2.6542,-2.6422,-2.5262,-2.4246,-2.364,-2.361,-2.361,-2.361,-2.3739,-2.3897,-2.4024,-2.4099,-2.4204,-2.4328,-2.438,-2.438,-2.438,-2.4553,-2.4775,-2.4962,-2.5285,-2.5621,-3.6983,-3.736,-3.736,-3.6089,-3.4486,-3.2803,-3.1033,0.0,-2.5139,-2.4936,-2.3339,-2.2178,-2.2772,-2.2888,-2.349,-2.5288,-2.6707,-2.868,-3.1845,0.0,0.0,0.0,0.0,0.0,0.0,0.0,0.0,0.0,0.0,0.0,0.0,0.0,-4.2092,-4.2092,-4.2092,-4.2092,-4.2092,-4.2092,-4.1889,-4.1482,-4.1482,-4.0815,-3.9567,-3.9567,-3.9073,0.0,0.0,0.0,0.0,-3.8202,-3.8202,-3.8202,-3.8202,-3.8202,-3.8202,-3.8202,-3.7389,-3.6315,-3.6315,-3.5473,-3.4399,-3.4399,-3.4399,-3.4399,-3.4399,-3.4399,-3.4399,-3.4399,-3.4399,-3.4254,-3.3678,-3.2687,-3.17,-3.083,-3.0598,-3.0598,-3.0598,-3.0598,-3.0539,-3.0248,-2.99,-2.9377,-2.8643,-2.8174,-2.7786,-2.7454,-2.7386,-2.7437,-2.756,-2.7375,-2.7046,-2.6632,-2.5764,-2.4933,-2.4246,-2.4186,-2.4007,-2.364,-2.3653,-2.3696,-2.376,-2.3782,-2.3824,-2.3888,-2.3888,-2.3888,-2.3888,-2.4099,-2.4328,-2.4553,-2.4902,-2.5323,-3.5938,-3.6519,-3.6693,-3.5415,-3.379,-3.2077,0.0,-2.7461,-2.4998,-2.4675,-2.3368,-2.233,-2.2591,-2.262,-2.2997,-2.4047,-2.5371,-2.7258,-3.0248,-3.289,0.0,0.0,0.0,0.0,0.0,0.0,0.0,0.0,0.0,0.0,0.0,0.0,-4.2092,-4.2092,-4.2092,-4.2092,-4.2092,-4.1889,-4.157,-4.1105,-4.0902,-4.0234,-3.9189,-3.9189,-3.8841,0.0,0.0,0.0,0.0,-3.8202,-3.8202,-3.8202,-3.8202,-3.8202,-3.8173,-3.7999,-3.7244,-3.6286,-3.6112,-3.5328,-3.4399,-3.4399,-3.4399,-3.4399,-3.4399,-3.4399,-3.4399,-3.4399,-3.4399,-3.4225,-3.3412,-3.2513,-3.1613,-3.0801,-3.0598,-3.0598,-3.0598,-3.0598,-3.0598,-3.0598,-3.0219,-2.9668,-2.8967,-2.8442,-2.7966,-2.738,-2.7288,-2.731,-2.7458,-2.7458,-2.7335,-2.6882,-2.6409,-2.5807,-2.4963,-2.4903,-2.4694,-2.4238,-2.4178,-2.4178,-2.4178,-2.4178,-2.4178,-2.4178,-2.3999,-2.3909,-2.3909,-2.3945,-2.4046,-2.4234,-2.4594,-2.502,-3.5072,-3.5822,-3.6025,-3.4748,-3.347,-3.1845,0.0,-2.7198,-2.5454,-2.4152,-2.3374,-2.2707,-2.212,-2.2004,-2.2207,-2.2801,-2.4012,-2.5723,-2.8361,-3.0916,0.0,0.0,0.0,0.0,0.0,0.0,0.0,0.0,0.0,0.0,0.0,0.0,-4.2092,-4.2092,-4.2092,-4.2092,-4.2092,-4.1424,-4.1105,-4.1076,-4.0437,-3.9799,-3.9189,-3.9189,0.0,0.0,0.0,0.0,0.0,-3.8202,-3.8202,-3.8202,-3.8202,-3.8202,-3.8144,-3.7535,-3.6896,-3.6199,-3.5625,-3.4985,-3.4399,-3.4399,-3.4399,-3.4399,-3.4399,-3.4399,-3.4399,-3.4399,-3.4399,-3.4109,-3.2861,-3.2481,-3.2193,-3.0917,-3.0598,-3.0598,-3.0598,-3.0598,-3.0598,-3.0598,-3.0598,-3.0191,-2.8912,-2.8709,-2.8301,-2.7182,-2.7003,-2.7055,-2.7181,-2.7207,-2.7258,-2.7386,-2.7386,-2.6902,-2.5681,-2.5585,-2.5585,-2.5585,-2.5585,-2.5585,-2.5585,-2.5585,-2.5585,-2.5585,-2.4933,-2.4605,-2.4605,-2.4048,-2.3876,-2.4003,-2.4338,-2.4826,-3.2513,-3.3529,-3.4051,-3.2774,-3.1148,-2.9581,-2.8275,-2.6184,-2.4384,-2.3978,-2.3374,-2.283,-2.2649,-2.262,-2.2678,-2.2859,-2.396,0.0,0.0,0.0,0.0,0.0,0.0,0.0,0.0,0.0,0.0,0.0,0.0,0.0,0.0,0.0,0.0,-4.2092,-4.2092,-4.1889,-4.1424,-4.1221,-4.067,-3.9799,-3.9596,-3.9131,-3.8522,0.0,0.0,0.0,0.0,0.0,0.0,-3.8202,-3.8202,-3.8202,-3.8202,-3.7941,-3.7564,-3.7389,-3.6606,-3.5683,-3.5479,-3.4951,-3.4399,-3.4399,-3.4399,-3.4399,-3.4399,-3.4399,-3.4399,-3.4399,-3.4399,-3.4109,-3.2829,-3.2481,-3.2193,-3.0917,-3.0598,-3.0598,-3.0598,-3.0598,-3.0598,-3.0598,-3.0598,-3.0336,-2.9464,-2.8971,-2.8446,-2.7708,-2.7267,-2.7055,-2.7181,-2.7207,-2.7258,-2.7386,-2.7386,-2.708,-2.6363,-2.6273,-2.6093,-2.5644,-2.5615,-2.5615,-2.5615,-2.5615,-2.5615,-2.5615,-2.5382,-2.5262,-2.5262,-2.5099,-2.5123,-2.5296,-2.5562,-2.5975,-2.9755,-3.0858,-3.144,-3.0335,-2.9029,-2.7723,-2.6852,-2.5226,-2.3833,-2.3572,-2.2997,-2.2475,-2.2243,-2.2185,-2.2185,-2.2185,-2.3461,0.0,0.0,0.0,0.0,0.0,0.0,0.0,0.0,0.0,0.0,0.0,0.0,0.0,0.0,0.0,0.0,-4.1337,-4.1599,-4.1512,-4.1105,-4.0612,-3.9973,-3.9189,-3.8957,-3.8609,-3.8202,0.0,0.0,0.0,0.0,0.0,0.0,-3.8202,-3.8202,-3.8202,-3.8202,-3.7825,-3.7273,-3.7012,-3.6257,-3.5363,-3.5131,-3.4748,-3.4399,-3.4399,-3.4399,-3.4399,-3.4399,-3.4399,-3.4399,-3.4399,-3.4399,-3.4109,-3.2829,-3.2481,-3.2193,-3.0917,-3.0598,-3.0598,-3.0598,-3.0598,-3.0598,-3.0598,-3.0598,-3.0394,-2.9697,-2.929,-2.8767,-2.7948,-2.7482,-2.7214,-2.7055,-2.7052,-2.7078,-2.7207,-2.7262,-2.7162,-2.6917,-2.6936,-2.6806,-2.6363,-2.6333,-2.6333,-2.6333,-2.6333,-2.6333,-2.6333,-2.6093,-2.5974,-2.5974,-2.5734,-2.5685,-2.5871,-2.6024,-2.6363,0.0,-2.7984,-2.8448,-2.7724,-2.7142,-2.6358,-2.5052,-2.4239,0.0,-2.291,-2.2301,-2.1743,-2.1162,-2.1104,-2.1162,-2.1191,-2.2846,0.0,0.0,0.0,0.0,0.0,0.0,0.0,0.0,0.0,0.0,0.0,0.0,0.0,0.0,0.0,0.0,0.0,-4.067,-4.096,-4.096,-3.9799,-3.9189,-3.9131,-3.8492,-3.8202,-3.8202,0.0,0.0,0.0,0.0,0.0,0.0,-3.8202,-3.8202,-3.8202,-3.8144,-3.7767,-3.7157,-3.6489,-3.5851,-3.5247,-3.4632,-3.4399,-3.4399,-3.4399,-3.4399,-3.4399,-3.4399,-3.4399,-3.4399,-3.4399,-3.4399,-3.4109,-3.2829,-3.2481,-3.2193,-3.0917,-3.0598,-3.0598,-3.0598,-3.0598,-3.0598,-3.0598,-3.0598,-3.0423,-2.9784,-2.9639,-2.9204,-2.8014,-2.7753,-2.7492,-2.6939,-2.6849,-2.6846,-2.6977,-2.7003,-2.7107,-2.7391,-2.7514,-2.7615,-2.7585,-2.7585,-2.7585,-2.7585,-2.7585,-2.7585,-2.7585,-2.6986,-2.6662,-2.6662,-2.6063,-2.5811,-2.5928,-2.5991,-2.6192,-2.378,0.0,-2.7637,-2.6533,-2.6126,-2.5575,0.0,-2.2904,-2.2265,-2.1598,-2.1336,-2.1336,-2.1685,-2.2127,-2.262,-2.3136,0.0,0.0,0.0,0.0,0.0,0.0,0.0,0.0,0.0,0.0,0.0,0.0,0.0,0.0,0.0,0.0,0.0,0.0,-3.9799,-3.9654,-3.9654,-3.9363,-3.8957,-3.8434,-3.8289,-3.8202,0.0,0.0,0.0,0.0,0.0,0.0,0.0,-3.8202,-3.8202,-3.8144,-3.7709,-3.7128,-3.646,-3.5857,-3.5183,-3.4603,-3.4457,-3.4399,-3.4399,-3.4399,-3.4399,-3.4399,-3.4399,-3.4399,-3.4399,-3.4399,-3.4399,-3.4109,-3.2829,-3.2481,-3.2193,-3.0917,-3.0598,-3.0598,-3.0598,-3.0598,-3.0598,-3.0598,-3.0598,-3.0569,-3.0394,-2.9958,-2.9494,-2.9204,-2.8333,-2.7637,-2.7492,-2.7084,-2.6846,-2.6977,-2.7003,-2.7107,-2.7391,-2.7412,-2.7488,-2.7585,-2.7585,-2.7585,-2.7585,-2.7585,-2.7585,-2.7585,-2.7435,-2.7375,-2.7375,-2.7225,-2.7136,-2.7185,-2.7185,-2.7085,-2.2388,-2.3954,-2.5346,-2.4621,-2.4471,-2.4123,-2.2794,-2.2004,-2.1423,-2.1075,-2.0785,-2.0872,-2.183,-2.2265,-2.2904,0.0,0.0,0.0,0.0,0.0,0.0,0.0,0.0,0.0,0.0,0.0,0.0,0.0,0.0,0.0,0.0,0.0,0.0,0.0,0.0,-3.8899,-3.9189,-3.8899,-3.8551,-3.8202,-3.8202,-3.8202,0.0,0.0,0.0,0.0,0.0,0.0,-3.8202,-3.8202,-3.8202,-3.8144,-3.7535,-3.6896,-3.6228,-3.5625,-3.4985,-3.4399,-3.4399,-3.4399,-3.4399,-3.4399,-3.4399,-3.4399,-3.4399,-3.4399,-3.4399,-3.4399,-3.4399,-3.4109,-3.2829,-3.2481,-3.2193,-3.0917,-3.0598,-3.0598,-3.0598,-3.0598,-3.0598,-3.0598,-3.0598,-3.0598,-3.0598,-3.0277,-2.9958,-2.9639,-2.9,-2.8478,-2.8187,-2.7868,-2.7576,-2.7338,-2.7336,-2.7325,-2.7314,-2.731,-2.7386,-2.7615,-2.7585,-2.7585,-2.7585,-2.7585,-2.7585,-2.7585,-2.7585,-2.7585,-2.7585,-2.7285,-2.7315,-2.7585,-2.7285,-2.7204,-2.2062,-2.2591,-2.3055,-2.3055,-2.3287,-2.3287,-2.2468,-2.183,-2.1394,-2.1191,-2.0756,-2.0756,-2.1917,-2.2294,0.0,0.0,0.0,0.0,0.0,0.0,0.0,0.0,0.0,0.0,0.0,0.0,0.0,0.0,0.0,0.0,0.0,0.0,0.0,0.0,0.0,0.0,-3.9044,-3.8492,-3.8202,-3.8202,-3.8202,-3.8202,-3.8202,-3.8202,0.0,0.0,0.0,0.0,-3.8202,-3.8202,-3.8144,-3.7999,-3.7389,-3.6751,-3.6083,-3.5479,-3.4864,-3.4399,-3.4399,-3.4399,-3.4399,-3.4399,-3.4399,-3.4399,-3.4399,-3.4399,-3.4399,-3.4399,-3.4399,-3.4109,-3.2829,-3.2481,-3.2193,-3.0917,-3.0598,-3.0598,-3.0598,-3.0598,-3.0598,-3.0598,-3.0598,-3.0598,-3.0598,-3.0598,-3.0423,-2.9842,-2.9668,-2.9407,-2.8884,-2.8767,-2.8477,-2.7898,-2.7753,-2.7627,-2.7362,-2.7266,-2.731,-2.756,-2.7585,-2.7585,-2.7585,-2.7585,-2.7585,-2.7585,-2.7585,-2.7585,-2.7585,-2.6926,-2.6956,-2.7585,-2.6926,-2.6975,-2.233,-2.3229,-2.3746,-2.3746,-2.4965,-2.5749,-2.4007,-2.3514,-2.3136,-2.2062,-2.1772,-2.1917,-2.2649,-2.3688,-2.5081,0.0,0.0,0.0,0.0,0.0,0.0,0.0,0.0,0.0,0.0,0.0,0.0,0.0,0.0,0.0,0.0,0.0,0.0,0.0,0.0,0.0,0.0,-3.826,-3.8202,-3.8202,-3.8202,-3.8202,-3.8202,-3.8202,-3.8202,0.0,0.0,0.0,-3.8202,-3.8202,-3.7912,-3.7389,-3.6722,-3.6083,-3.5479,-3.4806,-3.4486,-3.4399,-3.4399,-3.4399,-3.4399,-3.4399,-3.4399,-3.4399,-3.4399,-3.4399,-3.4399,-3.4399,-3.4399,-3.4109,-3.2829,-3.2481,-3.2193,-3.0917,-3.0598,-3.0598,-3.0598,-3.0598,-3.0598,-3.0598,-3.0598,-3.0598,-3.0598,-3.0598,-3.0569,-3.0481,-2.9958,-2.9552,-2.9465,-2.9029,-2.868,-2.8536,-2.8042,-2.7775,-2.7954,-2.7476,-2.731,-2.756,-2.7585,-2.7585,-2.7585,-2.7585,-2.7585,-2.7585,-2.7585,-2.7585,-2.7585,-2.6926,-2.6956,-2.7585,-2.6926,-2.6656,-2.1634,-2.2875,-2.3978,-2.435,-2.5629,-2.6471,-2.5197,-2.4646,-2.4215,-2.3635,-2.3252,0.0,0.0,0.0,0.0,0.0,0.0,0.0,0.0,0.0,0.0,0.0,0.0,0.0,0.0,0.0,0.0,0.0,0.0,0.0,0.0,0.0,0.0,0.0,0.0,0.0,0.0,-3.8202,-3.8202,-3.8202,-3.8202,-3.8202,-3.8202,-3.8202,-3.8202,0.0,0.0,-3.8202,-3.8202,-3.8202,-3.7854,-3.7244,-3.6577,-3.5909,-3.5334,-3.4661,-3.4399,-3.4399,-3.4399,-3.4399,-3.4399,-3.4399,-3.4399,-3.4399,-3.4399,-3.4399,-3.4399,-3.4399,-3.4399,-3.4109,-3.2829,-3.2481,-3.2193,-3.0917,-3.0598,-3.0598,-3.0598,-3.0598,-3.0598,-3.0598,-3.0598,-3.0598,-3.0598,-3.0598,-3.0598,-3.0598,-3.0335,-3.0132,-3.0132,-2.99,-2.961,-2.9232,-2.8913,-2.8533,-2.8023,-2.7753,-2.7587,-2.759,-2.7585,-2.7585,-2.7585,-2.7585,-2.7585,-2.7585,-2.7585,-2.7585,-2.7585,-2.6926,-2.6956,-2.7585,-2.6926,-2.6782,-2.0959,-2.2294,-2.3891,-2.4849,-2.621,-2.7082,-2.6387,-2.6071,-2.5897,-2.5752,-2.5342,0.0,0.0,-2.8216,0.0,0.0,0.0,0.0,0.0,0.0,0.0,0.0,0.0,0.0,0.0,0.0,0.0,0.0,0.0,0.0,0.0,0.0,0.0,0.0,0.0,0.0,0.0,-3.8202,-3.8202,-3.8202,-3.8202,-3.8202,-3.8202,-3.8202,-3.8202,-3.8202,-3.8202,-3.8115,-3.7999,-3.7999,-3.7535,-3.6809,-3.6286,-3.5706,-3.5101,-3.4603,-3.4399,-3.4399,-3.4399,-3.4399,-3.4399,-3.4399,-3.4399,-3.4399,-3.4399,-3.4399,-3.4399,-3.4399,-3.4399,-3.4167,-3.3035,-3.2745,-3.2454,-3.1293,-3.0946,-3.083,-3.083,-3.0714,-3.0598,-3.0598,-3.0598,-3.0598,-3.0598,-3.0598,-3.0598,-3.0598,-3.0598,-3.0598,-3.0598,-3.0598,-3.0423,-2.99,-2.9668,-2.9174,-2.8205,-2.8025,-2.7892,-2.7727,-2.7573,-2.7514,-2.7514,-2.7539,-2.7564,-2.7564,-2.756,-2.7585,-2.7585,-2.6926,-2.6956,-2.7585,-2.6926,-2.6956,-2.0843,-2.1953,-2.3432,-2.5255,-2.7169,-2.839,-2.7695,-2.8449,-2.9116,-2.8507,-2.8389,0.0,0.0,0.0,0.0,0.0,0.0,0.0,0.0,0.0,0.0,0.0,0.0,0.0,0.0,0.0,0.0,0.0,0.0,0.0,0.0,0.0,0.0,0.0,0.0,0.0,0.0,-3.8202,-3.8202,-3.8202,-3.8202,-3.8202,-3.8202,-3.8202,-3.8202,-3.8202,-3.8202,-3.7883,-3.736,-3.736,-3.6635,-3.5537,-3.5479,-3.5072,-3.4486,-3.4428,-3.4399,-3.4399,-3.4399,-3.4399,-3.4399,-3.4399,-3.4399,-3.4399,-3.4399,-3.4399,-3.4399,-3.4399,-3.4399,-3.4254,-3.362,-3.3445,-3.3271,-3.2542,-3.1903,-3.1437,-3.1437,-3.1003,-3.0598,-3.0598,-3.0598,-3.0598,-3.0598,-3.0598,-3.0598,-3.0598,-3.0598,-3.0598,-3.0598,-3.0598,-3.0598,-3.0539,-2.9987,-2.9377,-2.8877,-2.8372,-2.8098,-2.8066,-2.7532,-2.7233,-2.7233,-2.7335,-2.7412,-2.7412,-2.7539,-2.7585,-2.7585,-2.6926,-2.6956,-2.7585,-2.6926,-2.6956,-2.154,-2.2243,-2.3287,-2.4795,-2.6649,-2.8332,-2.929,-3.019,-3.0974,-3.1556,-3.1351,0.0,0.0,0.0,0.0,0.0,0.0,0.0,0.0,0.0,0.0,0.0,0.0,0.0,0.0,0.0,0.0,0.0,0.0,0.0,0.0,0.0,0.0,0.0,0.0,0.0,0.0,-3.8202,-3.8202,-3.8202,-3.8202,-3.8202,-3.8202,-3.8202,-3.8202,-3.8202,-3.8202,-3.7854,-3.7302,-3.7302,-3.6548,-3.5363,-3.4922,-3.4632,-3.4399,-3.4399,-3.4399,-3.4399,-3.4399,-3.4399,-3.4399,-3.4399,-3.4399,-3.4399,-3.4399,-3.4399,-3.4399,-3.4399,-3.4399,-3.4254,-3.3678,-3.3503,-3.3329,-3.2658,-3.2307,-3.1988,-3.1582,-3.1322,-3.1032,-3.0685,-3.0598,-3.0598,-3.0598,-3.0598,-3.0598,-3.0598,-3.0598,-3.0598,-3.0598,-3.0598,-3.0598,-3.0598,-3.0016,-2.9523,-2.9348,-2.8821,-2.8469,-2.8469,-2.7692,-2.7207,-2.7207,-2.7335,-2.7386,-2.7386,-2.7539,-2.7585,-2.7585,-2.7345,-2.7345,-2.7585,-2.7769,-2.7979,-2.1801,-2.2272,-2.3207,-2.4481,-2.6129,-2.8042,-3.0335,-3.1526,-3.2454,-3.3561,-3.3587,-3.3177,-3.2445,0.0,0.0,0.0,0.0,0.0,0.0,0.0,0.0,0.0,0.0,0.0,0.0,0.0,0.0,0.0,0.0,0.0,0.0,0.0,0.0,0.0,0.0,0.0,0.0,-3.8202,-3.8202,-3.8202,-3.8202,-3.8202,-3.8202,-3.8202,-3.8202,-3.8202,-3.8202,-3.7738,-3.6983,-3.6983,-3.6228,-3.5043,-3.4574,-3.4399,-3.4399,-3.4399,-3.4399,-3.4399,-3.4399,-3.4399,-3.4399,-3.4399,-3.4399,-3.4399,-3.4399,-3.4399,-3.4399,-3.4399,-3.4399,-3.4312,-3.3877,-3.3794,-3.3645,-3.3209,-3.2948,-3.2687,-3.2222,-3.1816,-3.138,-3.0945,-3.0743,-3.0598,-3.0598,-3.0598,-3.0598,-3.0598,-3.0598,-3.0598,-3.0598,-3.0598,-3.0598,-3.0598,-3.019,-2.9929,-2.9929,-2.9348,-2.8971,-2.8971,-2.8146,-2.758,-2.7375,-2.7351,-2.7335,-2.7335,-2.7514,-2.7585,-2.7585,-2.7585,-2.7705,-2.7944,-2.8397,-2.8697,-2.1365,-2.1953,-2.3207,-2.4505,-2.5836,-2.7636,-3.08,-3.2542,-3.3678,-3.4312,-3.4951,-3.5149,-3.4243,0.0,0.0,0.0,0.0,0.0,0.0,0.0,0.0,0.0,0.0,0.0,0.0,0.0,0.0,0.0,0.0,0.0,0.0,0.0,0.0,0.0,0.0,0.0,0.0,-3.8202,-3.8202,-3.8202,-3.8202,-3.8202,-3.8202,-3.8202,-3.8202,-3.8202,-3.8202,-3.7476,-3.6315,-3.6286,-3.5561,-3.4399,-3.4399,-3.4366,-3.4395,-3.4366,-3.4366,-3.4395,-3.4366,-3.4366,-3.4395,-3.4366,-3.4399,-3.4399,-3.4399,-3.4399,-3.4399,-3.4399,-3.4399,-3.4399,-3.4399,-3.4399,-3.4399,-3.4399,-3.3935,-3.3503,-3.3503,-3.2454,-3.1526,-3.1495,-3.1003,-3.0627,-3.0598,-3.0598,-3.0598,-3.0598,-3.0598,-3.0598,-3.0598,-3.0598,-3.0598,-3.0598,-3.0598,-3.0598,-3.0598,-2.9987,-2.961,-2.961,-2.9029,-2.839,-2.7724,-2.7378,-2.7237,-2.7237,-2.7463,-2.7615,-2.7615,-2.7615,-2.7974,-2.8607,-2.8607,-2.8966,-2.302,-2.3659,-2.4617,-2.5894,-2.7171,-2.8826,-3.1584,-3.3209,-3.4574,0.0,-3.6498,-3.6158,-3.5021,0.0,0.0,0.0,0.0,0.0,0.0,0.0,0.0,0.0,0.0,0.0,0.0,0.0,0.0,0.0,0.0,0.0,0.0,0.0,0.0,0.0,0.0,0.0,0.0,0.0,-3.7999,-3.7564,-3.7999,-3.8202,-3.8202,-3.8202,-3.8202,-3.8173,-3.7767,-3.7099,-3.6228,-3.5328,-3.4645,-3.4162,-3.4025,-3.3991,-3.4054,-3.3991,-3.3991,-3.4054,-3.3991,-3.3991,-3.4054,-3.3991,-3.4059,-3.423,-3.4332,-3.4399,-3.4399,-3.4399,-3.4399,-3.4399,-3.4399,-3.4399,-3.4399,-3.4399,-3.4254,-3.4022,-3.359,-3.3184,-3.2629,-3.1669,-3.138,-3.109,-3.0685,-3.0598,-3.0598,-3.0598,-3.0598,-3.0598,-3.0598,-3.0598,-3.0598,-3.0598,-3.0598,-3.0598,-3.0598,-3.0423,-3.0277,-3.0277,-2.9697,-2.9058,-2.8419,-2.8492,-2.8537,-2.8537,-2.8833,-2.9022,-2.9022,-2.9022,-2.9112,-2.9295,-2.9744,-2.9804,-2.4036,-2.4936,-2.601,-2.752,-2.8855,-3.0626,-3.3703,0.0,0.0,0.0,0.0,-3.6712,0.0,0.0,0.0,0.0,0.0,0.0,0.0,0.0,0.0,0.0,0.0,0.0,0.0,0.0,0.0,0.0,0.0,0.0,0.0,0.0,0.0,0.0,0.0,0.0,0.0,0.0,0.0,-3.6707,-3.6979,-3.7077,-3.7032,-3.782,-3.8057,-3.7796,-3.6925,-3.6315,-3.5851,-3.4835,-3.423,-3.3957,-3.3687,-3.3583,-3.3646,-3.3583,-3.3583,-3.3646,-3.3583,-3.3612,-3.3646,-3.3583,-3.3756,-3.4025,-3.4298,-3.4399,-3.4399,-3.4399,-3.4399,-3.4399,-3.4399,-3.4399,-3.4399,-3.4399,-3.4399,-3.4312,-3.3935,-3.3678,-3.3271,-3.2454,-3.2077,-3.1787,-3.1409,-3.1119,-3.0945,-3.0945,-3.0772,-3.0598,-3.0598,-3.0598,-3.051,-3.0219,-3.019,-3.0103,-2.9871,-2.9842,-2.9958,-3.019,-2.9813,-2.9581,-2.9464,-2.9168,-2.9044,-2.9044,-2.9319,-2.9483,-2.9483,-2.9537,-2.9621,-2.9621,-2.9953,-2.9953,-2.45,-2.5865,-2.7316,-2.9204,-3.077,0.0,-3.6489,-3.736,-3.7535,-3.8086,0.0,0.0,0.0,0.0,0.0,0.0,0.0,0.0,0.0,0.0,0.0,0.0,0.0,0.0,0.0,0.0,0.0,0.0,0.0,0.0,0.0,0.0,0.0,0.0,0.0,0.0,0.0,0.0,0.0,0.0,-3.5492,-3.5272,-3.5059,-3.7069,-3.7635,-3.7034,-3.5845,-3.5294,-3.5207,-3.4558,-3.4059,-3.3652,-3.3276,-3.3136,-3.3199,-3.3136,-3.3136,-3.3199,-3.3136,-3.3136,-3.3199,-3.3136,-3.3346,-3.3785,-3.4162,-3.4298,-3.4298,-3.4298,-3.4298,-3.4361,-3.4332,-3.4332,-3.4366,-3.4399,-3.4399,-3.4399,-3.4399,-3.3964,-3.3561,-3.3503,-3.3006,-3.2568,-3.251,-3.1988,-3.1553,-3.1495,-3.0974,-3.0598,-3.0598,-3.0598,-3.0394,-2.9784,-2.9639,-2.9406,-2.8854,-2.8738,-2.8913,-2.9465,-2.9523,-2.9813,-3.0394,-2.955,-2.9052,-2.9052,-2.9359,-2.9498,-2.9498,-2.963,-2.9681,-2.9681,-2.9621,-2.9562,-2.412,-2.6104,-2.7984,-2.99,-3.2486,-3.5043,-3.6896,-3.768,-3.8057,-3.8173,0.0,0.0,0.0,0.0,0.0,0.0,0.0,0.0,0.0,0.0,0.0,0.0,0.0,0.0,0.0,0.0,0.0,0.0,0.0,0.0,0.0,0.0,0.0,0.0,0.0,0.0,-3.6519,-3.6223,-3.5552,0.0,-3.4687,-3.4325,-3.3522,-3.5291,-3.5796,-3.5311,-3.5052,-3.4581,-3.3949,-3.3668,-3.3304,-3.2917,-3.2489,-3.2345,-3.2345,-3.2345,-3.2345,-3.2345,-3.2345,-3.2345,-3.2345,-3.2345,-3.2632,-3.3023,-3.3409,-3.3548,-3.3548,-3.3548,-3.3646,-3.3813,-3.3888,-3.4059,-3.4196,-3.4332,-3.4399,-3.4399,-3.4399,-3.4312,-3.408,-3.359,-3.3387,-3.3093,-3.26,-3.2365,-3.2104,-3.1553,-3.0974,-3.0598,-3.0598,-3.0598,-3.0539,-3.0423,-2.9929,-2.9552,-2.9407,-2.8971,-2.8767,-2.8884,-2.8884,-2.8942,-2.9116,-2.993,-3.0368,-3.0368,-3.0689,-3.0862,-3.0862,-3.0468,-3.0313,-3.0313,-2.9804,-2.9322,-2.3827,-2.637,-2.8942,-3.2109,0.0,-3.6141,-3.7447,-3.797,-3.8202,0.0,0.0,0.0,0.0,0.0,0.0,0.0,0.0,0.0,0.0,0.0,0.0,0.0,0.0,0.0,0.0,0.0,0.0,0.0,0.0,0.0,0.0,0.0,0.0,0.0,0.0,0.0,-3.5289,-3.4957,-3.4248,-3.3209,-3.3147,-3.2888,-3.2405,-3.4102,-3.4723,-3.4491,-3.4179,-3.3691,-3.3157,-3.2846,-3.2497,-3.2101,-3.17,-3.1542,-3.1542,-3.1516,-3.1542,-3.1542,-3.1516,-3.1542,-3.1542,-3.1516,-3.1809,-3.2209,-3.2605,-3.2712,-3.2712,-3.2712,-3.2952,-3.3227,-3.3444,-3.3722,-3.4025,-3.4332,-3.4399,-3.4399,-3.4399,-3.4399,-3.4312,-3.3993,-3.3906,-3.3819,-3.347,-3.318,-3.2745,-3.2075,-3.1438,-3.1032,-3.1032,-3.0801,-3.0481,-3.0161,-2.9552,-2.9058,-2.871,-2.8129,-2.7897,-2.8216,-2.8216,-2.8361,-2.8709,-2.9406,-2.9784,-2.9784,-3.0425,-3.0569,-3.0272,-3.0112,-2.9894,-2.9594,-2.9265,-2.8757,-2.3298,-2.664,-3.0132,-3.423,-3.5677,0.0,-3.7767,-3.8057,-3.8086,0.0,0.0,0.0,0.0,0.0,0.0,0.0,0.0,0.0,0.0,0.0,0.0,0.0,0.0,0.0,0.0,0.0,0.0,0.0,0.0,0.0,0.0,0.0,0.0,0.0,0.0,-3.4416,-3.3848,-3.3486,-3.2837,-3.1909,-3.1468,-3.1347,-3.1458,-3.2946,-3.374,-3.382,-3.3254,-3.2818,-3.2489,-3.2064,-3.17,-3.1331,-3.0959,-3.0872,-3.0898,-3.0846,-3.0872,-3.0898,-3.0846,-3.0872,-3.0898,-3.0846,-3.1071,-3.1405,-3.1809,-3.1919,-3.1919,-3.1919,-3.2209,-3.2596,-3.2925,-3.3311,-3.3687,-3.4128,-3.423,-3.4293,-3.4366,-3.4399,-3.4399,-3.4399,-3.4399,-3.4399,-3.4399,-3.3877,-3.3329,-3.2774,-3.2106,-3.1669,-3.1669,-3.1148,-3.0539,-2.9987,-2.9174,-2.8477,-2.7898,-2.72,-2.6997,-2.7492,-2.7521,-2.781,-2.836,-2.8448,-2.8505,-2.8389,-2.9399,-2.9658,-2.9098,-2.931,-2.9116,-2.8607,-2.8487,-2.8128,-2.2156,0.0,-3.1515,0.0,-3.5009,-3.5857,0.0,0.0,0.0,0.0,0.0,0.0,0.0,0.0,0.0,0.0,0.0,0.0,0.0,0.0,0.0,0.0,0.0,0.0,0.0,0.0,0.0,0.0,0.0,0.0,0.0,0.0,-3.2889,-3.2536,-3.25,0.0,-3.2391,-3.199,-3.1559,-3.1044,-3.0368,-3.0241,-3.0596,-3.1112,-3.1733,-3.2382,-3.23,-3.2055,-3.1726,-3.131,-3.1011,-3.0773,-3.0558,-3.0482,-3.0482,-3.0457,-3.0482,-3.0482,-3.0457,-3.0482,-3.0482,-3.0457,-3.0634,-3.0849,-3.1086,-3.1161,-3.1161,-3.1161,-3.1458,-3.18,-3.2164,-3.2561,-3.2952,-3.3339,-3.3577,-3.3848,-3.4298,-3.4399,-3.4399,-3.4399,-3.4399,-3.4399,-3.4399,-3.3877,-3.3474,-3.3387,-3.2803,-3.2365,-3.2365,-3.1816,-3.1351,-3.1234,-2.9726,-2.868,-2.8565,-2.7488,-2.6849,-2.691,-2.691,-2.6939,-2.7053,-2.7578,-2.7607,-2.7055,-2.849,-2.9186,-2.9098,-2.8863,-2.8697,-2.8577,-2.8004,-2.7675,-2.2869,-2.7169,-3.0873,0.0,-3.4893,-3.5654,-3.6548,0.0,0.0,0.0,0.0,0.0,0.0,0.0,0.0,0.0,0.0,0.0,0.0,0.0,0.0,0.0,0.0,0.0,0.0,0.0,0.0,0.0,0.0,0.0,0.0,-3.2273,-3.1909,-3.1505,-3.1468,0.0,-3.1468,-3.1209,-3.0835,-3.0457,-3.0011,-2.9934,-3.0216,-3.0495,-3.0947,-3.1495,-3.1442,-3.122,-3.0898,-3.0482,-3.0279,-3.0203,-3.0088,-3.0049,-3.0049,-3.0049,-3.0049,-3.0049,-3.0049,-3.0049,-3.0049,-3.0049,-3.0126,-3.0203,-3.0318,-3.0318,-3.0318,-3.0318,-3.0596,-3.0985,-3.1331,-3.1736,-3.2137,-3.2533,-3.2881,-3.3199,-3.3652,-3.3922,-3.4122,-3.4122,-3.4094,-3.4094,-3.4196,-3.41,-3.3993,-3.3993,-3.347,-3.3064,-3.3064,-3.2483,-3.2046,-3.2046,-3.1003,-3.0277,-3.0277,-2.9116,-2.839,-2.839,-2.8042,-2.7866,-2.7866,-2.8129,-2.7955,-2.7316,-2.8029,-2.8255,-2.793,-2.7876,-2.7832,-2.7832,-2.7505,-2.7386,-2.2788,-2.6263,-2.914,-3.2227,-3.3623,-3.4495,0.0,0.0,0.0,0.0,0.0,0.0,0.0,0.0,0.0,0.0,0.0,0.0,0.0,0.0,0.0,0.0,0.0,0.0,0.0,0.0,0.0,0.0,0.0,0.0,-3.1809,-3.1468,-3.1123,-3.0736,-3.0698,-3.0698,-3.0698,-3.0546,-3.0318,-3.0011,-2.9856,-2.9856,-3.0049,-3.0177,-3.0406,-3.0698,-3.0733,-3.0582,-3.0292,-2.9934,-2.9804,-2.9804,-2.9804,-2.9804,-2.9804,-2.9804,-2.9804,-2.9804,-2.9804,-2.9804,-2.9804,-2.9804,-2.9804,-2.9804,-2.9804,-2.9804,-2.9804,-2.9804,-3.0049,-3.0406,-3.0696,-3.1033,-3.1368,-3.1736,-3.2101,-3.2561,-3.3101,-3.3479,-3.3744,-3.3744,-3.3681,-3.3722,-3.3991,-3.423,-3.4399,-3.4399,-3.4022,-3.3736,-3.3736,-3.3151,-3.2745,-3.2745,-3.2019,-3.1495,-3.1495,-3.051,-2.9871,-2.9871,-2.9406,-2.9174,-2.9174,-2.9028,-2.8681,-2.8188,-2.8152,-2.7737,-2.7003,-2.713,-2.7207,-2.7207,-2.7358,-2.7329,-2.0643,-2.3487,-2.647,-2.8584,-3.0123,0.0,0.0,0.0,0.0,0.0,0.0,0.0,0.0,0.0,0.0,0.0,0.0,0.0,0.0,0.0,0.0,0.0,0.0,0.0,0.0,0.0,0.0,0.0,0.0,0.0,-3.1007,-3.0646,-3.0254,-2.9856,-2.9856,-2.9856,-2.9856,-2.9856,-2.9843,-2.9818,-2.9779,-2.9804,-2.9818,-2.9818,-2.9818,-2.9856,-3.0254,-3.0292,-3.0126,-2.9895,-2.9804,-2.9804,-2.9804,-2.9804,-2.9804,-2.9804,-2.9804,-2.9804,-2.9804,-2.9804,-2.9804,-2.9804,-2.9804,-2.9804,-2.9804,-2.9804,-2.9804,-2.9804,-2.9934,-3.0139,-3.0368,-3.0558,-3.0811,-3.1011,-3.1384,-3.1946,-3.3058,-3.3241,-3.3276,-3.3339,-3.3276,-3.3381,-3.3756,-3.4128,-3.4399,-3.4399,-3.437,-3.437,-3.437,-3.3819,-3.3445,-3.3445,-3.228,-3.1495,-3.1495,-3.0916,-3.0569,-3.0569,-3.051,-3.051,-3.051,-2.99,-2.9523,-2.9494,-2.8942,-2.8095,-2.7003,-2.713,-2.7207,-2.7207,-2.7774,-2.7745,-1.8458,-2.0914,0.0,-2.5522,-2.7422,-2.9233,0.0,0.0,0.0,0.0,0.0,0.0,0.0,0.0,0.0,0.0,0.0,0.0,0.0,0.0,0.0,0.0,0.0,0.0,0.0,0.0,0.0,0.0,0.0,0.0,-3.0608,-3.0368,-3.0088,-2.9804,-2.9804,-2.9804,-2.9804,-2.9804,-2.9804,-2.9804,-2.9804,-2.9804,-2.9804,-2.9804,-2.9804,-2.9804,-2.9934,-2.9972,-2.9895,-2.9818,-2.9804,-2.9804,-2.9804,-2.9804,-2.9804,-2.9804,-2.9804,-2.9804,-2.9804,-2.9804,-2.9804,-2.9804,-2.9804,-2.9804,-2.9804,-2.9804,-2.9804,-2.9804,-2.9856,-2.9934,-3.0011,-3.0049,-3.0203,-3.052,-3.091,-3.1257,-3.1726,-3.22,-3.2497,-3.2525,-3.2525,-3.2605,-3.3023,-3.3409,-3.375,-3.3882,-3.3957,-3.4059,-3.4196,-3.4129,-3.408,-3.408,-3.3645,-3.3383,-3.3383,-3.2803,-3.2457,-3.2457,-3.2048,-3.1816,-3.1816,-3.1613,-3.1263,-3.0828,-3.0626,-2.9697,-2.8095,-2.7713,-2.7742,-2.8148,-2.7946,-2.8179,-1.699,-1.8957,0.0,0.0,0.0,-2.6492,0.0,0.0,0.0,0.0,0.0,0.0,0.0,0.0,0.0,0.0,0.0,0.0,0.0,0.0,0.0,0.0,0.0,0.0,0.0,0.0,0.0,0.0,0.0,0.0,-3.0101,-2.9947,-2.9856,-2.9804,-2.9804,-2.9804,-2.9804,-2.9804,-2.9804,-2.9804,-2.9804,-2.9804,-2.9804,-2.9804,-2.9804,-2.9804,-2.9804,-2.9804,-2.9804,-2.9804,-2.9804,-2.9804,-2.9804,-2.9804,-2.9804,-2.9804,-2.9804,-2.9804,-2.9804,-2.9804,-2.9804,-2.9804,-2.9804,-2.9804,-2.9804,-2.9804,-2.9804,-2.9804,-2.9804,-2.9804,-2.9804,-2.9804,-2.9856,-3.0216,-3.0533,-3.0733,-3.0785,-3.1283,-3.17,-3.1726,-3.1726,-3.1809,-3.2209,-3.2605,-3.2904,-3.2982,-3.3196,-3.3323,-3.3389,-3.3594,-3.379,-3.379,-3.3964,-3.4109,-3.4109,-3.3906,-3.3823,-3.3823,-3.3383,-3.3151,-3.3151,-3.2948,-3.2629,-3.2193,-3.1961,-3.1235,-2.9958,-2.9116,-2.8913,-2.9348,-2.9087,-2.9464,0.0,0.0,0.0,0.0,0.0,0.0,0.0,0.0,0.0,0.0,0.0,0.0,0.0,0.0,0.0,0.0,0.0,0.0,0.0,0.0,0.0,0.0,0.0,0.0,0.0,0.0,0.0,0.0,0.0,-2.9588,-2.9419,-2.9419,-2.9521,-2.9779,-2.9804,-2.9804,-2.9804,-2.9804,-2.9804,-2.9804,-2.9804,-2.9804,-2.9804,-2.9804,-2.9804,-2.9804,-2.9804,-2.9804,-2.9804,-2.9804,-2.9804,-2.9804,-2.9804,-2.9804,-2.9804,-2.9779,-2.9804,-2.9804,-2.9804,-2.9804,-2.9804,-2.9804,-2.9804,-2.9804,-2.9804,-2.9804,-2.9804,-2.9804,-2.9804,-2.9804,-2.9804,-2.9804,-2.9856,-3.0049,-3.0216,-3.0368,-3.0368,-3.062,-3.0884,-3.0973,-3.0947,-3.1007,-3.1405,-3.1809,-3.1992,-3.1833,-3.2075,-3.219,-3.2021,-3.2288,-3.2481,-3.2481,-3.3064,-3.3474,-3.3503,-3.4022,-3.4399,-3.4399,-3.4399,-3.4399,-3.4399,-3.3819,-3.3532,-3.3532,-3.289,-3.2539,-3.2539,-3.1235,-3.0656,-3.0685,-3.1293,-3.1646,-1.5556,0.0,0.0,0.0,0.0,0.0,0.0,0.0,0.0,0.0,0.0,0.0,0.0,0.0,0.0,0.0,0.0,0.0,0.0,0.0,0.0,0.0,0.0,0.0,0.0,0.0,0.0,0.0,0.0,-2.9457,-2.9419,-2.956,-2.9702,-2.9804,-2.9804,-2.9804,-2.9804,-2.9804,-2.9804,-2.9804,-2.9804,-2.9804,-2.9804,-2.9804,-2.9804,-2.9804,-2.9804,-2.9804,-2.9804,-2.9804,-2.9804,-2.9804,-2.9804,-2.9804,-2.9779,-2.956,-2.9521,-2.9521,-2.9521,-2.9521,-2.956,-2.974,-2.9804,-2.9804,-2.9804,-2.9804,-2.9804,-2.9804,-2.9804,-2.9804,-2.9804,-2.9804,-2.9804,-2.9856,-2.9934,-2.9972,-2.9972,-3.0049,-3.0177,-3.052,-3.0533,-3.0608,-3.0898,-3.1123,-3.1282,-3.1235,-3.1591,-3.1852,-3.1792,-3.2224,-3.2481,-3.2481,-3.2687,-3.2977,-3.3474,-3.3649,-3.3935,-3.437,-3.4399,-3.4399,-3.4399,-3.4254,-3.4138,-3.4138,-3.3993,-3.3877,-3.3877,-3.2106,-3.1496,-3.199,-3.2629,-3.2719,-1.6288,-1.6595,0.0,0.0,0.0,0.0,0.0,0.0,0.0,0.0,0.0,0.0,0.0,0.0,0.0,0.0,0.0,0.0,0.0,0.0,0.0,0.0,0.0,0.0,0.0,0.0,0.0,0.0,-2.9263,-2.9302,-2.9419,-2.9638,-2.9804,-2.9804,-2.9804,-2.9804,-2.9804,-2.9804,-2.9804,-2.9804,-2.9804,-2.9804,-2.9804,-2.9804,-2.9804,-2.9804,-2.9804,-2.9804,-2.9804,-2.9804,-2.9804,-2.9804,-2.9804,-2.9804,-2.974,-2.9521,-2.9419,-2.9419,-2.9419,-2.9419,-2.9419,-2.9702,-2.9804,-2.9804,-2.9804,-2.9804,-2.9804,-2.9804,-2.9804,-2.9804,-2.9804,-2.9804,-2.9804,-2.9804,-2.9804,-2.9804,-2.9804,-2.9603,-2.958,-3.0075,-3.0164,-3.0203,-3.0279,-3.0432,-3.0451,-3.0245,-3.0748,-3.1006,-3.0861,-3.1355,-3.17,-3.17,-3.1932,-3.2251,-3.2629,-3.3184,-3.3649,-3.3993,-3.4254,-3.4399,-3.4399,-3.4399,-3.4399,-3.4399,-3.4399,-3.4399,-3.4399,-3.3267,-3.2887,-3.3293,-3.3674,-3.3674,-1.799,-1.8208,-1.8342,0.0,0.0,0.0,-1.8526,-1.9855,0.0,0.0,0.0,0.0,0.0,0.0,0.0,0.0,0.0,0.0,0.0,0.0,0.0,0.0,0.0,0.0,0.0,0.0,0.0,-2.9131,-2.9131,-2.9248,-2.9419,-2.9663,-2.9804,-2.9804,-2.9804,-2.9804,-2.9804,-2.9804,-2.9804,-2.9804,-2.9804,-2.9804,-2.9804,-2.9804,-2.9804,-2.9804,-2.9804,-2.9804,-2.9804,-2.9804,-2.9804,-2.9804,-2.9804,-2.9804,-2.974,-2.9482,-2.938,-2.9341,-2.9341,-2.9341,-2.938,-2.9663,-2.974,-2.974,-2.9779,-2.9804,-2.9804,-2.9804,-2.9804,-2.9804,-2.9804,-2.9804,-2.9804,-2.9804,-2.9804,-2.9779,-2.9704,-2.9302,-2.9013,-2.9528,-2.9603,-2.9603,-2.9603,-2.9603,-2.9492,-2.9123,-2.9643,-2.9922,-2.9568,-3.0083,-3.0477,-3.0477,-3.0998,-3.1315,-3.1372,-3.2561,-3.3289,-3.3322,-3.3897,-3.4216,-3.4163,-3.4163,-3.4196,-3.4196,-3.4283,-3.4341,-3.4399,-3.4399,-3.4399,-3.4399,-3.4399,-3.4399,-1.9634,-1.9306,-1.8877,-1.8202,0.0,0.0,0.0,-1.8246,0.0,0.0,0.0,0.0,0.0,0.0,0.0,0.0,0.0,0.0,0.0,0.0,0.0,0.0,0.0,0.0,0.0,0.0,-2.9302,-2.9131,-2.9223,-2.9443,-2.9702,-2.9779,-2.9804,-2.9804,-2.9804,-2.9804,-2.9804,-2.9804,-2.9804,-2.9804,-2.9804,-2.9804,-2.9804,-2.9804,-2.9804,-2.9804,-2.9804,-2.9804,-2.9804,-2.9804,-2.9804,-2.9804,-2.9804,-2.9804,-2.9765,-2.9326,-2.917,-2.9131,-2.8949,-2.891,-2.8988,-2.9341,-2.9457,-2.9521,-2.974,-2.9804,-2.9804,-2.9804,-2.9804,-2.9804,-2.9804,-2.9804,-2.9804,-2.9804,-2.9804,-2.9654,-2.9202,-2.8963,-2.8787,-2.8499,-2.8423,-2.8423,-2.8423,-2.8423,-2.838,-2.8324,-2.8757,-2.9067,-2.8949,-2.9463,-2.9803,-2.9803,-2.9888,-3.0171,-3.0655,-3.1387,-3.1877,-3.2135,-3.2806,-3.3049,-3.2695,-3.2825,-3.2858,-3.2858,-3.3383,-3.3906,-3.4399,-3.4399,-3.4399,-3.4399,-3.4399,-3.4399,-2.1744,-2.1228,-2.0543,-1.9661,0.0,0.0,0.0,0.0,0.0,0.0,0.0,0.0,0.0,0.0,0.0,0.0,0.0,0.0,0.0,0.0,0.0,0.0,0.0,0.0,0.0,0.0,-2.9222,-2.9443,-2.9521,-2.9663,-2.9779,-2.9804,-2.9804,-2.9804,-2.9804,-2.9804,-2.9804,-2.9804,-2.9804,-2.9804,-2.9804,-2.9804,-2.9804,-2.9663,-2.9599,-2.9599,-2.9599,-2.9599,-2.9599,-2.974,-2.9804,-2.9804,-2.9804,-2.9804,-2.974,-2.9248,-2.9091,-2.9052,-2.887,-2.8791,-2.887,-2.9263,-2.9419,-2.9457,-2.9702,-2.9804,-2.9804,-2.9804,-2.9804,-2.9804,-2.9804,-2.9804,-2.9729,-2.9428,-2.9352,-2.9202,-2.8612,-2.8298,-2.8021,-2.7745,-2.7469,-2.7444,-2.8021,-2.8097,-2.8066,-2.7978,-2.8265,-2.8531,-2.8406,-2.8776,-2.9058,-2.9058,-2.9058,-2.9168,-2.9476,-3.0328,-3.0876,-3.09,-3.197,-3.2464,-3.2159,-3.2384,-3.2481,-3.2481,-3.3151,-3.3649,-3.3935,-3.4254,-3.4399,-3.4399,-3.4399,-3.4399,0.0,0.0,0.0,0.0,0.0,-1.8857,0.0,0.0,0.0,-1.8657,0.0,0.0,0.0,0.0,0.0,0.0,0.0,0.0,0.0,0.0,0.0,0.0,0.0,0.0,0.0,0.0,-2.885,-2.9428,-2.9453,-2.9503,-2.9628,-2.9729,-2.9804,-2.9804,-2.9804,-2.9804,-2.9804,-2.9804,-2.9804,-2.9804,-2.9804,-2.9804,-2.9779,-2.9521,-2.9419,-2.9457,-2.9419,-2.9419,-2.9496,-2.9702,-2.9804,-2.9804,-2.9804,-2.9804,-2.9765,-2.9326,-2.917,-2.9131,-2.887,-2.8791,-2.887,-2.9223,-2.938,-2.9521,-2.974,-2.9804,-2.9804,-2.9804,-2.9804,-2.9804,-2.9804,-2.9804,-2.9654,-2.9038,-2.8888,-2.8712,-2.8097,-2.7595,-2.7278,-2.7178,-2.6801,-2.6776,-2.7645,-2.7795,-2.7727,-2.7624,-2.7834,-2.7994,-2.7855,-2.813,-2.8325,-2.8325,-2.8325,-2.8325,-2.8325,-2.9322,-2.9869,-2.9673,-3.1032,-3.1763,-3.1561,-3.1945,-3.2193,-3.2338,-3.2832,-3.3242,-3.3503,-3.3993,-3.4283,-3.4399,-3.4399,-3.4399,0.0,0.0,0.0,0.0,-2.0539,0.0,0.0,0.0,-1.8154,-1.8279,0.0,0.0,0.0,0.0,0.0,0.0,0.0,0.0,0.0,0.0,0.0,0.0,0.0,0.0,0.0,0.0,0.0,-2.8247,-2.8298,-2.8524,-2.8963,-2.9528,-2.9804,-2.9804,-2.9804,-2.9804,-2.9804,-2.9804,-2.9804,-2.9804,-2.9804,-2.9804,-2.9779,-2.9521,-2.9521,-2.974,-2.9521,-2.9521,-2.974,-2.9804,-2.9804,-2.9804,-2.9804,-2.9804,-2.974,-2.9482,-2.938,-2.9302,-2.891,-2.8791,-2.8831,-2.9052,-2.9404,-2.974,-2.9779,-2.9804,-2.9804,-2.9804,-2.9804,-2.9804,-2.9804,-2.9804,-2.9654,-2.9038,-2.8888,-2.8612,-2.7595,-2.7318,-2.7178,-2.6675,-2.6524,-2.6524,-2.665,-2.6675,-2.6719,-2.6815,-2.6994,-2.7206,-2.7382,-2.7523,-2.7623,-2.7623,-2.7623,-2.7623,-2.7623,-2.8234,-2.8603,-2.8487,-2.9548,-3.0146,-3.0063,-3.0528,-3.1061,-3.1582,-3.17,-3.2309,-3.3503,-3.3561,-3.3877,-3.4399,-3.4399,-3.4399,0.0,0.0,0.0,0.0,0.0,0.0,0.0,0.0,-1.8304,0.0,0.0,0.0,0.0,0.0,0.0,0.0,0.0,0.0,0.0,0.0,0.0,0.0,0.0,0.0,0.0,0.0,0.0,0.0,0.0,-2.7168,-2.8373,-2.8976,-2.9453,-2.9779,-2.9804,-2.9804,-2.9804,-2.9804,-2.9804,-2.9804,-2.9804,-2.9804,-2.9779,-2.9521,-2.9457,-2.956,-2.9457,-2.9457,-2.956,-2.956,-2.956,-2.956,-2.956,-2.9663,-2.974,-2.9521,-2.9341,-2.9209,-2.891,-2.8736,-2.8648,-2.8645,-2.8933,-2.9302,-2.9302,-2.9302,-2.9352,-2.9704,-2.9804,-2.9804,-2.9804,-2.9804,-2.9654,-2.9038,-2.8888,-2.8687,-2.7921,-2.777,-2.7695,-2.7469,-2.7419,-2.7419,-2.7419,-2.6927,-2.6533,-2.6602,-2.6645,-2.6748,-2.6816,-2.6884,-2.6918,-2.6918,-2.6918,-2.6918,-2.6918,-2.7455,-2.7782,-2.7815,-2.9017,-2.9873,-3.0266,-3.0477,-3.0743,-3.0974,-3.1322,-3.1787,-3.2338,-3.2716,-3.3064,-3.3325,-3.408,-3.4399,-2.7444,0.0,0.0,0.0,0.0,0.0,0.0,0.0,0.0,0.0,0.0,0.0,0.0,0.0,0.0,0.0,0.0,0.0,0.0,0.0,0.0,0.0,0.0,0.0,0.0,0.0,0.0,0.0,0.0,0.0,-2.757,-2.8473,-2.9088,-2.9553,-2.9704,-2.9804,-2.9804,-2.9804,-2.9804,-2.9804,-2.9804,-2.9804,-2.9779,-2.9521,-2.9419,-2.9521,-2.9419,-2.9419,-2.9521,-2.9419,-2.9419,-2.9521,-2.9419,-2.956,-2.974,-2.9521,-2.9302,-2.917,-2.887,-2.8697,-2.8569,-2.847,-2.8595,-2.8837,-2.8987,-2.8975,-2.9013,-2.9628,-2.9804,-2.9804,-2.9804,-2.9804,-2.9654,-2.9038,-2.8888,-2.8737,-2.8222,-2.8097,-2.8097,-2.8097,-2.8097,-2.8097,-2.8097,-2.7444,-2.6901,-2.6751,-2.6725,-2.6675,-2.6524,-2.6499,-2.6499,-2.6499,-2.6499,-2.6499,-2.6499,-2.6876,-2.7249,-2.759,-2.8707,-2.9651,-3.0296,-3.0326,-3.0326,-3.0326,-3.0818,-3.1137,-3.137,-3.1924,-3.2275,-3.251,-3.347,-3.3906,0.0,0.0,0.0,-2.3521,0.0,0.0,0.0,0.0,-2.0616,0.0,0.0,0.0,0.0,0.0,0.0,0.0,0.0,0.0,0.0,0.0,0.0,0.0,0.0,0.0,0.0,0.0,0.0,0.0,0.0,0.0,-2.6474,-2.8047,-2.8888,-2.8913,-2.9503,-2.9804,-2.9804,-2.9804,-2.9804,-2.9804,-2.9804,-2.9804,-2.9779,-2.9521,-2.956,-2.9779,-2.9521,-2.956,-2.974,-2.9521,-2.956,-2.974,-2.9521,-2.956,-2.974,-2.9521,-2.9419,-2.9341,-2.8949,-2.8791,-2.8791,-2.8767,-2.8699,-2.8698,-2.922,-2.9161,-2.9013,-2.9628,-2.9804,-2.9804,-2.9804,-2.9804,-2.9654,-2.9038,-2.8888,-2.8737,-2.8222,-2.8097,-2.8097,-2.8097,-2.8097,-2.8097,-2.8097,-2.8072,-2.7871,-2.7344,-2.7243,-2.7102,-2.6575,-2.6499,-2.6499,-2.6499,-2.6499,-2.6499,-2.6499,-2.6524,-2.6918,-2.7934,-2.8519,-2.9058,-2.9617,-2.9648,-2.9648,-2.9648,-2.9775,-3.0242,-3.1028,-3.1243,-3.1746,-3.2481,-3.2539,-3.2539,0.0,0.0,-2.6389,-2.5084,0.0,0.0,0.0,0.0,0.0,0.0,0.0,0.0,0.0,0.0,0.0,0.0,0.0,0.0,0.0,0.0,0.0,0.0,0.0,0.0,0.0,0.0,0.0,0.0,0.0,0.0,0.0,-2.7469,-2.8512,-2.8888,-2.9503,-2.9804,-2.9804,-2.9804,-2.9804,-2.9804,-2.9599,-2.956,-2.9521,-2.9326,-2.9248,-2.9351,-2.938,-2.9457,-2.9521,-2.9419,-2.9457,-2.9521,-2.9419,-2.9457,-2.9521,-2.9419,-2.9302,-2.9131,-2.8736,-2.8697,-2.8743,-2.8378,-2.8404,-2.8623,-2.8822,-2.8887,-2.9013,-2.9628,-2.9804,-2.9804,-2.9804,-2.9804,-2.9754,-2.9553,-2.9779,-3.0005,-2.9804,-3.003,-3.0281,-3.0281,-3.0281,-3.0156,-2.9829,-2.9779,-2.9327,-2.8021,-2.7519,-2.7218,-2.7052,-2.6725,-2.6499,-2.6499,-2.6499,-2.6499,-2.6499,-2.6679,-2.7061,-2.7637,-2.8065,-2.8454,-2.8839,-2.8871,-2.8871,-2.8871,-2.9184,-2.9579,-3.0058,-3.0335,-3.0756,-3.1235,-3.1235,-3.17,-2.9779,-2.8875,0.0,0.0,-2.5234,0.0,0.0,0.0,0.0,0.0,0.0,0.0,0.0,0.0,0.0,0.0,0.0,0.0,0.0,0.0,0.0,0.0,0.0,0.0,0.0,0.0,-2.0767,-2.1669,0.0,0.0,0.0,0.0,-2.757,-2.8323,-2.9076,-2.9578,-2.9804,-2.9804,-2.9804,-2.9804,-2.9521,-2.9419,-2.938,-2.9209,-2.9091,-2.9091,-2.9302,-2.9419,-2.9419,-2.9419,-2.9457,-2.9521,-2.9419,-2.9457,-2.9521,-2.9341,-2.9131,-2.8855,-2.8602,-2.8578,-2.8624,-2.8285,-2.8313,-2.8534,-2.8732,-2.8849,-2.9013,-2.9628,-2.9804,-2.9804,-2.9804,-2.9804,-2.9854,-3.003,-3.0357,-3.0658,-3.0859,-3.116,-3.1386,-3.1386,-3.1386,-3.1286,-3.0959,-3.0733,-3.0105,-2.8624,-2.8097,-2.7795,-2.7595,-2.7268,-2.7002,-2.6801,-2.6776,-2.67,-2.6524,-2.6748,-2.7027,-2.7297,-2.7597,-2.7868,-2.813,-2.813,-2.813,-2.813,-2.8578,-2.9022,-2.9404,-2.9744,-3.0111,-3.0417,-3.0417,-3.0848]},{"header":{"parameterUnit":"m.s-1","parameterCategory":1,"la1":30.6,"la2":29.2853,"lo1":-89.7004,"lo2":-87.6739,"dy":0.0162,"dx":0.0183,"nx":112,"ny":82,"refTime":"2026-05-13T00:00:00:Z","depth":0,"parameterNumber":3,"parameterNumberName":"V-component_of_WINDS"},"data":[0.0,0.0,0.0,0.0,0.0,0.0,0.0,0.0,0.0,0.0,0.0,0.0,0.0,0.0,0.0,0.0,0.0,0.0,0.0,0.0,0.0,0.0,0.0,0.0,0.0,0.0,0.0,0.0,0.0,0.0,0.0,0.0,0.0,0.0,0.0,0.0,0.0,0.0,0.0,0.0,0.0,0.0,0.0,0.0,0.0,0.0,0.0,0.0,0.0,0.0,0.0,0.0,0.0,0.0,0.0,0.0,0.0,0.0,0.0,0.0,0.0,0.0,0.0,0.0,0.0,0.0,0.0,0.0,0.0,0.0,0.0,0.0,0.0,0.0,0.0,0.0,0.0,0.0,0.0,0.0,0.0,0.0,0.0,0.0,0.0,0.0,0.0,0.0,0.0,0.0,0.0,0.8877,0.9587,0.9723,0.9119,0.8679,0.7858,0.6487,0.0,0.0,0.0,0.0,0.0,0.0,0.0,0.0,0.0,0.0,0.0,0.0,0.0,0.0,0.0,0.0,0.0,0.0,0.0,0.0,0.0,0.0,0.0,0.0,0.0,0.0,0.0,0.0,0.0,0.0,0.0,0.0,0.0,0.0,0.0,0.0,0.0,0.0,0.0,0.0,0.0,0.0,0.0,0.0,0.0,0.0,0.0,0.0,0.0,0.0,0.0,0.0,0.0,0.0,0.0,0.0,0.0,0.0,0.0,0.0,0.0,0.0,0.0,0.0,0.0,0.0,0.0,0.0,0.0,0.0,0.0,0.0,0.0,0.0,0.0,0.0,0.0,0.0,0.0,0.0,0.0,0.0,0.0,0.0,0.0,0.0,0.0,0.0,0.0,0.0,0.0,0.0,0.0,0.0,0.0,0.0,0.0,0.0,0.0,0.0,0.0,0.0,0.0,0.0,0.8331,0.9681,1.0189,1.0129,0.9495,0.9208,0.8419,0.6911,0.0,0.0,0.0,0.0,0.0,0.0,0.0,0.0,0.0,0.0,0.0,0.0,0.0,0.0,0.0,0.0,0.0,0.0,0.0,0.0,0.0,0.0,0.0,0.0,0.0,0.0,0.0,0.0,0.0,0.0,0.0,0.0,0.0,0.0,0.0,0.0,0.0,0.0,0.0,0.0,0.0,0.0,0.0,0.0,0.0,0.0,0.0,0.0,0.0,0.0,0.0,0.0,0.0,0.0,0.0,0.0,0.0,0.0,0.0,0.0,0.0,0.0,0.0,0.0,0.0,0.0,0.0,0.0,0.0,0.0,0.0,0.0,0.0,0.0,0.0,0.0,0.0,0.0,0.0,0.0,0.0,0.0,0.0,0.0,0.0,0.0,0.0,0.0,0.0,0.0,0.0,0.0,0.0,0.0,0.0,0.0,0.0,0.0,0.0,0.0,0.0,0.0,0.0,0.8325,0.9241,0.9926,1.0404,1.0386,0.9705,0.9444,0.8644,0.7041,0.5973,0.0,0.0,0.0,0.0,0.0,0.0,0.0,0.0,0.0,0.0,0.0,0.0,0.0,0.0,0.0,0.0,0.0,0.0,0.0,0.0,0.0,0.0,0.0,0.0,0.0,0.0,0.0,0.0,0.0,0.0,0.0,0.0,0.0,0.0,0.0,0.0,0.0,0.0,0.0,0.0,0.0,0.0,0.0,0.0,0.0,0.0,0.0,0.0,0.0,0.0,0.0,0.0,0.0,0.0,0.0,0.0,0.0,0.0,0.0,0.0,0.0,0.0,0.0,0.0,0.0,0.0,0.0,0.0,0.0,0.0,0.0,0.0,0.0,0.0,0.0,0.0,0.0,0.0,0.0,0.0,0.0,0.0,0.0,0.0,0.0,0.0,0.0,0.0,0.0,0.0,0.0,0.0,0.0,0.0,0.0,0.0,0.0,0.0,0.0,0.0,0.0,0.0,0.9174,0.9978,0.9984,1.0396,1.0407,0.9695,0.9327,0.8459,0.6917,0.6102,0.0,0.0,0.0,0.0,0.0,0.0,0.0,0.0,0.0,0.0,0.0,0.0,0.0,0.0,0.0,0.0,0.0,0.0,0.0,0.0,0.0,0.0,0.0,0.0,0.0,0.0,0.0,0.0,0.0,0.0,0.0,0.0,0.0,0.0,0.0,0.0,0.0,0.0,0.0,0.0,0.0,0.0,0.0,0.0,0.0,0.0,0.0,0.0,0.0,0.0,0.0,0.0,0.0,0.0,0.0,0.0,0.0,0.0,0.0,0.0,0.0,0.0,0.0,0.0,0.0,0.0,0.0,0.0,0.0,0.0,0.0,0.0,0.0,0.0,0.0,0.0,0.0,0.0,0.0,0.0,0.0,0.0,0.0,0.0,0.0,0.0,0.0,0.0,0.0,0.0,0.0,0.0,0.0,0.0,0.0,0.0,0.0,0.0,0.0,0.0,0.0,0.0,0.9444,1.0178,0.9916,1.0143,1.0,0.922,0.8663,0.7776,0.6343,0.5728,0.0,0.0,0.0,0.0,0.0,0.0,0.0,0.0,0.0,0.0,0.0,0.0,0.0,0.0,0.0,0.0,0.0,0.0,0.0,0.0,0.0,0.0,0.0,0.0,0.0,0.0,0.0,0.0,0.0,0.0,0.0,0.0,0.0,0.0,0.0,0.0,0.0,0.0,0.0,0.0,0.0,0.0,0.0,0.0,0.0,0.0,0.0,0.0,0.0,0.0,0.0,0.0,0.0,0.0,0.0,0.0,0.0,0.0,0.0,0.0,0.0,0.0,0.0,0.0,0.0,0.0,0.0,0.0,0.0,0.0,0.0,0.0,0.0,0.0,0.0,0.0,0.0,0.0,0.0,0.0,0.0,0.0,0.0,0.0,0.0,0.0,0.0,0.0,0.0,0.0,0.0,0.0,0.0,0.0,0.0,0.0,0.0,0.0,0.0,0.0,0.0,0.0,0.9321,0.9949,0.0,0.9901,0.9733,0.8927,0.8575,0.7872,0.6586,0.0,0.0,0.0,0.0,0.0,0.0,0.0,0.0,0.0,0.0,0.0,0.0,0.0,0.0,0.0,0.0,0.0,0.0,0.0,0.0,0.0,0.0,0.0,0.0,0.0,0.0,0.0,0.0,0.0,0.0,0.0,0.0,0.0,0.0,0.0,0.0,0.0,0.0,0.0,0.0,0.0,0.0,0.0,0.0,0.0,0.0,0.0,0.0,0.0,0.0,0.0,0.0,0.0,0.0,0.0,0.0,0.0,0.0,0.0,0.0,0.0,0.0,0.0,0.0,0.0,0.0,0.0,0.0,0.0,0.0,0.0,0.0,0.0,0.0,0.0,0.0,0.0,0.0,0.0,0.0,0.0,0.0,0.0,0.0,0.0,0.0,0.0,0.0,0.0,0.0,0.0,0.0,0.0,0.0,0.0,0.0,0.0,0.0,0.0,0.0,0.0,0.0,0.8101,0.9172,0.9713,0.0,0.9492,0.9355,0.8616,0.8277,0.7697,0.673,0.0,0.0,0.0,0.0,0.0,0.0,0.0,0.0,0.0,0.0,0.0,0.0,0.0,0.0,0.0,0.0,0.0,0.0,0.0,0.0,0.0,0.0,0.0,0.0,0.0,0.0,0.0,0.0,0.0,0.0,0.0,0.0,0.0,0.0,0.0,0.0,0.0,0.0,0.0,0.0,0.0,0.0,0.0,0.0,0.0,0.0,0.0,0.0,0.0,0.0,0.0,0.0,0.0,0.0,0.0,0.0,0.0,0.0,0.0,0.0,0.0,0.0,0.0,0.0,0.0,0.0,0.0,0.0,0.0,0.0,0.0,0.0,0.0,0.0,0.0,0.0,0.0,0.0,0.0,0.0,0.0,0.0,0.0,0.0,0.0,0.0,0.0,0.0,0.0,0.0,0.0,0.0,0.0,0.0,0.0,0.0,0.0,0.0,0.0,0.0,0.0,0.0,0.7876,0.9004,0.9519,0.8788,0.8939,0.8859,0.8257,0.7653,0.7119,0.0,0.0,0.0,0.0,0.0,0.0,0.0,0.0,0.0,0.0,0.0,0.0,0.0,0.0,0.0,0.0,0.0,0.0,0.0,0.0,0.0,0.0,0.0,0.0,0.0,0.0,0.0,0.0,0.0,0.0,0.0,0.0,0.0,0.0,0.0,0.0,0.0,0.0,0.0,0.0,0.0,0.0,0.0,0.0,0.0,0.0,0.0,0.0,0.0,0.0,0.0,0.0,0.0,0.0,0.0,0.0,0.0,0.0,0.0,0.0,0.0,0.0,0.0,0.0,0.0,0.0,0.0,0.0,0.0,0.0,0.0,0.0,0.0,0.0,0.0,0.0,0.0,0.0,0.0,0.0,0.0,0.0,0.0,0.0,0.0,0.0,0.0,0.0,0.0,0.0,0.0,0.0,0.0,0.0,0.0,0.0,0.0,0.0,0.0,0.0,0.0,0.0,0.0,0.0,0.9272,0.9749,0.9121,0.9343,0.9247,0.855,0.8235,0.7761,0.7056,0.0,0.0,0.0,0.0,0.0,0.0,0.0,0.0,0.0,0.0,0.0,0.0,0.0,0.0,0.0,0.0,0.0,0.0,0.0,0.0,0.0,0.0,0.0,0.0,0.0,0.0,0.0,0.0,0.0,0.0,0.0,0.0,0.0,0.0,0.0,0.0,0.0,0.0,0.0,0.0,0.0,0.0,0.0,0.0,0.0,0.0,0.0,0.0,0.0,0.0,0.0,0.0,0.0,0.0,0.0,0.0,0.0,0.0,0.0,0.0,0.0,0.0,0.0,0.0,0.0,0.0,0.0,0.0,0.0,0.0,0.0,0.0,0.0,0.0,0.0,0.0,0.0,0.0,0.0,0.0,0.0,0.0,0.0,0.0,0.0,0.0,0.0,0.0,0.0,0.0,0.0,0.0,0.0,0.0,0.0,0.0,0.0,0.0,0.0,0.0,0.0,0.0,0.8304,0.9516,1.0108,0.9587,0.9785,0.9769,0.9278,0.8993,0.8505,0.7764,0.0,0.0,0.0,0.0,0.0,0.0,0.0,0.0,0.0,0.0,0.0,0.0,0.0,0.0,0.0,0.0,0.0,0.0,0.0,0.0,0.0,0.0,0.0,0.0,0.0,0.0,0.0,0.0,0.0,0.0,0.0,0.0,0.0,0.0,0.0,0.0,0.0,0.0,0.0,0.0,0.0,0.0,0.0,0.0,0.0,0.0,0.0,0.0,0.0,0.0,0.0,0.0,0.0,0.0,0.0,0.0,0.0,0.0,0.0,0.0,0.0,0.0,0.0,0.0,0.0,0.0,0.0,0.0,0.0,0.0,0.0,0.0,0.0,0.0,0.0,0.0,0.0,0.0,0.0,0.0,0.0,0.0,0.0,0.0,0.0,0.0,0.0,0.0,0.0,0.0,0.0,0.0,0.0,0.0,0.0,0.0,0.0,0.0,0.0,0.0,0.0,0.0,0.8415,0.9761,1.0512,1.0136,1.0318,1.0432,1.03,0.9835,0.9282,0.8659,0.0,0.0,0.0,0.0,0.0,0.0,0.0,0.0,0.0,0.0,0.0,0.0,0.0,0.0,0.0,0.0,0.0,0.0,0.0,0.0,0.0,0.0,0.0,0.0,0.0,0.0,0.0,0.0,0.0,0.0,0.0,0.0,0.0,0.0,0.0,0.0,0.0,0.0,0.0,0.0,0.0,0.0,0.0,0.0,0.0,0.0,0.0,0.0,0.0,0.0,0.0,0.0,0.0,0.0,0.0,0.0,0.0,0.0,0.0,0.0,1.63,0.0,0.0,0.0,0.0,0.0,0.0,0.0,0.0,0.0,0.0,0.0,0.0,0.0,0.0,0.0,0.0,0.0,0.0,0.0,0.0,0.0,0.0,0.0,0.0,0.0,0.0,0.0,0.0,0.0,0.0,0.0,0.0,0.0,0.0,0.0,0.0,0.0,0.0,0.0,0.0,0.0,0.9127,1.0376,1.1048,1.0742,1.094,1.1058,1.0921,1.0328,0.9798,0.9385,0.0,0.0,0.0,0.0,0.0,0.0,0.0,0.0,0.0,0.0,0.0,0.0,0.0,0.0,0.0,0.0,0.0,0.0,0.0,0.0,0.0,0.0,0.0,0.0,0.0,0.0,0.0,0.0,0.0,0.0,0.0,0.0,0.0,0.0,0.0,0.0,0.0,0.0,0.0,0.0,0.0,0.0,0.0,0.0,0.0,0.0,0.0,0.0,0.0,0.0,0.0,0.0,0.0,0.0,0.0,0.0,0.0,0.0,0.0,0.0,0.0,1.7521,0.0,0.0,0.0,0.0,0.0,0.0,0.0,0.0,0.0,0.0,0.0,0.0,0.0,0.0,0.0,0.0,0.0,0.0,0.0,0.0,0.0,0.0,0.0,0.0,0.0,0.0,0.0,0.0,0.0,0.0,0.0,0.0,0.0,0.0,0.0,0.0,0.0,0.0,0.0,0.0,0.9765,1.0928,1.1644,1.1504,1.1592,1.1652,1.1586,1.1089,1.0511,0.9863,0.8757,0.0,0.0,0.0,0.0,0.0,0.0,0.0,0.0,0.0,0.0,0.0,0.0,0.0,0.0,0.0,0.0,0.0,0.0,0.0,0.0,0.0,0.0,0.0,0.0,0.0,0.0,0.0,0.0,0.0,0.0,0.0,0.0,0.0,0.0,0.0,0.0,0.0,0.0,0.0,0.0,0.0,0.0,0.0,0.0,0.0,0.0,0.0,0.0,0.0,0.0,0.0,0.0,0.0,0.0,0.0,2.4483,2.4196,2.4355,2.4788,2.2049,2.0488,1.9871,0.0,0.0,0.0,0.0,0.0,0.0,0.0,0.0,0.0,0.0,0.0,0.0,0.0,0.0,0.0,0.0,0.0,0.0,0.0,0.0,0.0,0.0,0.0,0.0,0.0,1.327,1.2667,0.0,0.0,0.0,0.0,0.0,0.0,0.0,0.0,0.0,0.0,0.0,0.0,1.0401,1.1448,1.211,1.211,1.211,1.211,1.211,1.1742,1.1122,1.0266,0.9451,0.8496,0.0,0.0,0.0,0.0,0.0,0.0,0.0,0.0,0.0,0.0,0.0,0.0,0.0,0.0,0.0,0.0,0.0,0.0,0.0,0.0,0.0,0.0,0.0,0.0,0.0,0.0,0.0,0.0,0.0,0.0,0.0,0.0,2.0998,2.1738,0.0,0.0,0.0,0.0,0.0,0.0,0.0,0.0,0.0,0.0,0.0,0.0,0.0,0.0,2.5669,2.6681,2.7066,2.6846,2.7656,2.7906,2.7671,2.7475,2.7522,2.7703,2.6995,0.0,2.2986,2.2941,0.0,0.0,0.0,0.0,0.0,0.0,0.0,0.0,0.0,0.0,0.0,0.0,0.0,0.0,0.0,0.0,0.0,0.0,0.0,0.0,0.0,0.0,1.5424,1.5772,1.5163,1.4473,0.0,1.3124,1.1944,1.1106,0.0,0.0,0.0,0.0,0.0,0.0,0.0,0.0,1.1187,1.1798,1.211,1.211,1.211,1.211,1.211,1.1742,1.1255,1.0646,0.9869,0.9162,0.8602,0.7566,0.0,0.0,0.0,0.0,0.0,0.0,0.0,0.0,0.0,0.0,0.0,0.0,0.0,0.0,0.0,0.0,0.0,0.0,0.0,0.0,0.0,0.0,0.0,0.0,0.0,0.0,0.0,0.0,0.0,2.1506,2.336,2.3672,2.4142,2.421,0.0,0.0,0.0,0.0,0.0,0.0,0.0,0.0,0.0,2.6856,2.7429,2.8002,2.855,2.9361,2.9681,2.9578,2.9995,3.0137,3.0056,2.9935,2.9975,3.0056,2.989,2.8952,2.741,2.5669,2.4139,2.2825,0.0,0.0,0.0,0.0,0.0,0.0,2.1029,0.0,0.0,0.0,0.0,0.0,0.0,0.0,0.0,0.0,0.0,0.0,0.0,0.0,0.0,1.6634,1.6274,1.582,1.5576,1.5002,1.4123,0.0,1.1918,1.1185,1.0264,0.0,0.0,0.0,0.0,0.0,1.1621,1.207,1.2308,1.2234,1.219,1.2184,1.211,1.1945,1.1535,1.0848,1.0483,0.9878,0.9003,0.8493,0.7784,0.0,0.0,0.0,0.0,0.0,0.0,0.0,0.0,0.0,0.0,0.0,0.0,0.0,0.0,0.0,0.0,0.0,0.0,0.0,0.0,0.0,0.0,0.0,0.0,0.0,0.0,0.0,0.0,2.3778,2.5511,2.5603,2.6138,2.6239,0.0,0.0,0.0,0.0,0.0,0.0,2.7052,2.7278,2.7946,2.9289,2.9779,3.0256,3.0809,3.1336,3.1612,3.1612,3.1738,3.1813,3.1813,3.1813,3.1813,3.1813,3.1662,3.1386,3.0794,2.8064,2.6293,2.5227,2.4739,2.4194,0.0,2.3666,2.374,2.3864,2.3864,2.3899,2.3902,2.3658,0.0,2.117,1.9965,0.0,0.0,0.0,0.0,1.6955,1.7418,0.0,1.7328,1.7428,1.7197,1.686,1.6558,1.637,1.5732,0.0,1.3323,1.2758,1.1933,0.0,0.0,0.0,0.0,1.1925,1.2339,1.2662,1.2745,1.2526,1.2482,1.237,1.216,1.2135,1.1761,1.0956,1.0901,1.0404,0.9299,0.9152,0.8545,0.0,0.0,0.0,0.0,0.0,0.0,0.0,0.0,0.0,0.0,0.0,0.0,0.0,0.0,0.0,0.0,0.0,0.0,0.0,0.0,0.0,0.0,0.0,0.0,0.0,0.0,0.0,0.0,0.0,0.0,2.7871,2.8423,0.0,0.0,0.0,0.0,2.7067,2.7595,2.8172,2.8737,2.9327,2.9905,3.0507,3.0557,3.0834,3.1336,3.1888,3.2164,3.219,3.2742,3.2993,3.2993,3.2993,3.2993,3.3011,3.2416,3.2164,3.2014,3.0306,2.8913,2.786,2.7318,2.6766,2.6323,2.6323,2.6615,2.7067,2.7067,2.7419,2.7734,2.7208,2.5578,2.3585,2.2224,2.1141,0.0,0.0,1.935,1.8664,1.9136,1.8651,1.8173,1.8601,1.8114,1.7533,1.7513,1.7069,1.6278,0.0,1.4293,1.3787,1.3272,0.0,0.0,1.2992,1.3087,1.3239,1.3659,1.3716,1.3556,1.3131,1.2945,1.2719,1.2326,1.2166,1.1761,1.0956,1.0901,1.0533,0.9703,0.9299,0.8692,0.7782,0.736,0.0,0.0,0.0,0.0,0.0,0.0,0.0,0.0,0.0,0.0,0.0,0.0,0.0,0.0,0.0,0.0,0.0,0.0,0.0,0.0,0.0,0.0,0.0,0.0,0.0,0.0,0.0,0.0,3.0156,3.1035,0.0,0.0,3.008,2.9893,3.0407,3.0633,3.116,3.2089,3.2315,3.2692,3.3244,3.3269,3.3345,3.352,3.3721,3.3822,3.3822,3.4048,3.4148,3.4123,3.3771,3.3596,3.3571,3.3018,3.2767,3.2692,3.1738,3.0708,2.9679,2.9101,2.8549,2.7996,2.7645,2.7645,2.7821,2.7821,2.7946,2.7946,2.7077,2.5996,2.48,2.3542,2.2739,2.2218,2.1918,2.1509,2.1061,2.0643,1.9968,1.9331,1.9073,1.8509,1.7962,1.7665,1.7376,1.6934,1.6191,1.542,1.4768,1.434,1.3859,1.3601,1.3755,1.3775,1.3833,1.3961,1.4007,1.3799,1.3279,1.3189,1.2966,1.2469,1.2113,1.1654,1.1138,1.0857,1.0463,0.9919,0.977,0.9413,0.8851,0.8141,0.7429,0.0,0.0,0.0,0.0,0.0,0.0,0.0,0.0,0.0,0.0,0.0,0.0,0.0,0.0,0.0,0.0,0.0,0.0,0.0,0.0,0.0,0.0,0.0,0.0,0.0,0.0,3.1361,3.1888,3.2792,3.3194,3.2817,3.229,3.219,3.2742,3.2767,3.3194,3.4123,3.4173,3.4349,3.468,3.468,3.468,3.468,3.468,3.468,3.468,3.468,3.468,3.47,3.4349,3.4073,3.3872,3.352,3.3244,3.3043,3.2667,3.2089,3.1361,3.0633,3.0105,2.9704,2.9151,2.895,2.8925,2.875,2.8549,2.8273,2.7519,2.6791,2.6038,2.5244,2.4673,2.423,2.3869,2.3489,2.2994,2.2185,2.1181,2.0211,1.9679,1.8987,1.8382,1.8068,1.7876,1.7626,1.7172,1.6322,1.5547,1.5302,1.4863,1.4543,1.4543,1.4543,1.4543,1.4543,1.4543,1.4301,1.3639,1.3529,1.3266,1.2635,1.2239,1.1794,1.123,1.0946,1.0548,1.0019,1.0,0.981,0.9393,0.8406,0.7674,0.7196,0.0,0.0,0.0,0.0,0.0,0.0,0.0,0.0,0.0,0.0,0.0,0.0,0.0,0.0,0.0,0.0,0.0,0.0,0.0,0.0,0.0,0.0,0.0,2.9001,3.0909,3.2516,3.3093,3.3646,3.3972,3.3972,3.3495,3.3395,3.3947,3.3972,3.4198,3.4751,3.4731,3.4731,3.4731,3.4731,3.4731,3.4731,3.4731,3.4731,3.4731,3.4731,3.4731,3.4731,3.4705,3.4449,3.3947,3.3922,3.3596,3.3093,3.3136,3.3111,3.3011,3.1838,3.1411,3.1361,3.0834,3.0633,3.0532,2.998,2.9428,2.8913,2.8888,2.8197,2.7318,2.7329,2.6952,2.6455,2.6015,2.531,2.4462,2.37,2.2274,2.0894,2.05,1.9619,1.8852,1.8852,1.8684,1.8409,1.8031,1.6994,1.6154,1.6135,1.5733,1.543,1.541,1.541,0.0,1.541,1.541,1.5078,1.4192,1.4034,1.3652,1.2778,1.2559,1.2125,1.1271,1.1214,1.0835,1.0038,1.0,0.981,0.9411,0.8178,0.7329,0.6853,0.0,0.0,0.0,0.0,0.0,0.0,0.0,0.0,0.0,0.0,0.0,0.0,0.0,0.0,0.0,0.0,0.0,0.0,0.0,0.0,0.0,0.0,3.1091,3.1012,3.2769,3.4248,3.4756,3.5353,3.5726,3.5726,3.56,3.5575,3.5726,3.5726,3.5801,3.5906,3.5906,3.5906,3.5906,3.5906,3.5906,3.5906,3.5906,3.5906,3.5906,3.5906,3.5906,3.5952,3.5504,3.5182,3.5006,3.4248,3.3822,3.3646,3.3244,3.3111,3.3061,3.2265,3.1989,3.1913,3.1386,3.0934,3.0532,2.998,2.9679,2.9478,2.9038,2.8687,2.8323,2.7519,2.7203,2.6932,2.6313,2.5847,2.5314,2.4316,2.3421,2.2513,2.1363,2.0595,1.9998,1.9679,1.945,1.9222,1.8944,1.8306,1.749,1.6628,1.6228,1.596,1.5663,0.0,0.0,1.541,1.541,1.5078,1.4192,1.4087,1.3737,1.29,1.2483,1.2053,0.0,1.1165,1.0737,1.0254,1.0235,1.0002,0.9557,0.9156,0.8601,0.0,0.0,0.0,0.0,0.0,0.0,0.0,0.0,0.0,0.0,0.0,0.0,0.0,0.0,0.0,0.0,0.0,0.0,0.0,0.0,0.0,0.0,3.1614,3.329,3.3751,3.4515,3.5132,3.5458,3.6031,3.6405,3.6405,3.6405,3.6405,3.6405,3.6405,3.6405,3.6405,3.6405,3.6405,3.6405,3.6405,3.6405,3.6405,3.6405,3.6405,3.6405,3.6405,3.6405,3.6405,3.6031,3.5755,0.0,3.4625,3.4123,3.3847,3.3294,3.3111,0.0,0.0,0.0,0.0,0.0,3.106,3.0532,2.998,2.9804,2.9729,2.9402,2.9126,2.8762,2.8172,2.7645,2.7218,2.6776,2.6397,2.5975,2.5172,2.4456,2.3664,2.242,2.1654,2.0997,2.0498,2.0313,2.0128,1.9879,0.0,0.0,1.746,1.6719,1.6158,1.5771,1.5546,1.541,0.0,1.541,1.5156,1.4473,1.4211,1.3841,1.3203,1.2754,0.0,0.0,0.0,1.0939,1.0332,0.0,0.0,0.0,0.0,0.0,0.0,0.0,0.0,0.0,0.7406,0.7635,0.0,0.0,0.0,0.0,0.0,0.0,0.0,0.0,0.0,0.0,0.0,0.0,0.0,0.0,0.0,0.0,3.3435,3.5417,3.647,3.6085,3.5676,3.5676,3.615,3.6499,3.6499,3.6499,3.6499,3.6499,3.6499,3.6499,3.6499,0.0,0.0,0.0,0.0,3.6405,3.6405,3.6405,3.6405,3.6405,3.6405,3.6405,3.6405,3.6355,3.6006,3.5458,3.4856,3.4349,3.3847,3.3294,3.3111,3.3111,3.3111,3.3111,3.2943,3.1813,3.111,0.0,0.0,0.0,0.0,2.9804,2.9453,2.8988,2.8913,2.8247,2.7444,2.7318,2.6977,2.6506,2.6074,2.5335,2.4526,2.3499,2.2671,2.1953,2.1334,2.1219,2.1123,2.0782,2.0128,1.9319,1.8428,1.7205,1.6238,1.58,1.5575,0.0,1.5439,1.5439,1.5311,1.488,0.0,0.0,1.3561,1.315,1.2695,1.2242,1.1819,1.1253,1.0469,1.0449,1.0215,0.9767,0.9748,0.9516,0.9056,0.9164,0.9184,0.9114,0.8601,0.8774,0.0,0.0,0.0,0.0,0.0,0.0,0.0,0.0,0.0,0.0,0.0,0.0,0.0,0.0,0.0,3.2881,3.4864,3.6366,3.6599,3.6693,3.6815,3.6815,3.6892,3.6968,3.6968,3.6968,3.6968,3.6968,3.6968,3.6968,3.6968,3.6781,0.0,3.6615,3.6499,3.6405,3.6405,3.6405,3.6405,3.6405,0.0,0.0,3.638,3.5906,3.5608,3.5433,3.45,3.3997,3.3847,3.3294,3.3111,3.3111,3.3111,3.3111,3.2943,3.1813,3.1336,3.111,3.0131,2.9804,2.9804,2.9804,2.9704,2.9553,2.9038,2.8737,0.0,2.7519,2.7253,2.6982,2.6313,2.5906,2.5355,2.4144,2.3574,2.3108,2.2178,2.1987,2.1894,2.1557,2.1118,2.0344,1.9072,1.7657,1.6545,1.6099,1.5894,1.5798,1.5798,1.5798,1.5647,1.5242,1.4686,1.4169,1.3708,1.3199,1.2695,1.2242,1.1819,1.1528,1.1371,1.1351,1.1134,1.0644,1.0644,1.0429,1.002,1.0371,1.0527,1.0488,0.9691,0.9402,0.0,0.0,0.0,0.0,0.0,0.0,0.0,0.0,0.0,0.0,0.0,2.8516,3.0241,0.0,3.3404,3.4293,3.58,3.691,3.7222,3.737,3.7413,3.7108,3.7108,3.7108,3.7108,3.7108,3.7108,3.7108,3.7108,3.7108,3.7108,3.6875,3.6709,3.6709,3.6499,3.6405,3.6405,3.6405,3.6405,3.6405,3.6405,3.6405,3.638,3.5805,3.5508,3.5433,3.4374,3.3897,3.3847,3.3294,3.3111,3.3111,3.3111,3.3111,3.2943,3.1813,3.1386,3.1235,3.0156,2.9804,2.9804,2.9804,2.9804,2.9729,2.9453,2.9113,2.8712,2.7921,2.7494,2.7168,2.6511,2.6292,2.5965,2.502,2.4526,2.4067,2.3255,2.2862,2.2574,2.2266,2.1687,2.0941,1.9932,1.8466,1.7193,1.6358,1.6058,1.5885,1.5885,1.5885,1.5833,1.562,1.5059,1.4512,1.4076,1.3342,1.2695,1.2242,1.2012,1.1819,1.1606,1.1606,1.1486,1.1252,1.1252,1.1154,1.0939,1.1154,1.1252,1.1252,1.0801,1.0585,0.0,0.0,0.0,0.0,0.0,0.0,0.0,0.0,2.774,2.8996,3.0346,3.1575,3.2319,3.3639,3.4816,3.5521,3.641,3.722,3.7821,3.79,3.7762,3.732,3.7248,3.7248,3.7248,3.7248,3.7248,3.7248,3.7248,3.7248,3.7248,3.7015,3.6875,3.6875,3.664,3.6546,3.6546,3.6546,3.6546,3.6546,3.6546,3.6546,3.6521,3.5772,3.5424,3.5374,3.4268,3.379,3.3784,3.333,3.3154,3.3111,3.3111,3.3111,3.2943,3.1813,3.1386,3.1235,3.0156,2.9804,2.9804,2.9804,2.9804,2.9804,2.9804,2.9478,2.8913,2.8298,2.7795,2.7329,2.6675,2.6499,2.6348,2.5737,2.5209,2.465,2.413,2.3552,2.303,2.2787,2.2146,2.1452,2.0747,1.9492,1.813,1.684,1.6263,1.6,1.6,1.6,1.6,1.6,1.5455,1.4892,1.4347,1.3471,1.2787,1.241,1.239,1.2233,1.1903,1.1883,1.1844,1.1721,1.1721,1.1663,1.1606,1.1663,1.1721,1.1721,1.18,1.1763,2.5518,2.6854,2.8625,2.9003,2.9381,2.9735,0.0,0.0,3.0179,3.1862,3.2359,3.2986,3.4607,3.5077,3.5547,3.6645,3.6933,3.722,3.7821,3.79,3.7854,3.7808,3.7808,3.7808,3.7808,3.7808,3.7808,3.7808,3.7808,3.7808,3.7808,3.7551,3.7413,3.7413,3.7155,3.7015,3.7015,3.7015,3.7015,3.7015,3.7015,3.7015,3.6989,3.5714,3.5142,3.5091,3.3951,3.3444,3.3444,3.3368,3.3283,3.3111,3.3111,3.3111,3.2943,3.1813,3.1386,3.1235,3.0156,2.9804,2.9804,2.9804,2.9804,2.9804,2.9804,2.9754,2.9478,2.8398,2.8072,2.777,2.6776,2.6499,2.6348,2.5737,2.5209,2.465,2.413,2.3552,2.306,2.2909,2.2707,2.2238,2.1272,2.0631,1.9607,1.7728,1.6825,1.6345,1.6345,1.6345,1.6345,1.6345,1.5792,1.505,1.4043,1.3475,1.315,1.311,1.309,1.3042,1.2926,1.2926,1.2677,1.2145,1.2125,1.1953,1.1606,1.1953,1.2125,1.2145,1.2559,1.2328,2.7584,2.8855,3.0214,0.0,3.1508,3.2202,3.2437,3.2568,3.3012,3.4397,3.4946,3.5521,3.6619,3.6541,3.6567,0.0,3.722,3.722,3.7821,3.7612,3.7377,3.7377,3.7063,3.7142,3.7821,3.79,3.79,3.79,3.79,3.79,3.79,3.767,3.7505,3.7505,3.7273,3.7108,3.7108,3.7108,3.7108,3.7108,3.7108,3.7108,3.7057,3.5684,3.473,3.4071,3.3717,3.3513,3.3386,3.3386,3.3283,3.3111,3.3111,3.3111,3.2943,3.1813,3.1386,3.1235,3.0156,2.9804,2.9804,2.9804,2.9804,2.9804,2.9804,2.9804,2.9553,2.8423,2.8097,2.7846,2.6776,2.6499,2.6424,2.6197,2.5435,2.4725,2.4531,2.3747,2.3065,2.303,2.2969,2.2743,2.2159,2.1488,2.0563,1.9256,1.8071,1.7213,1.68,1.6666,1.6545,1.6239,1.5772,1.5185,1.4376,1.3887,1.35,1.3214,1.3194,1.3166,1.3109,1.3109,1.2938,1.2617,1.2617,1.252,1.2347,1.252,1.2617,1.2617,1.2793,1.27,2.9196,0.0,0.0,3.2293,3.33,3.411,3.4241,3.4711,3.5312,3.5966,3.6462,3.6881,3.7325,3.6802,3.6593,3.7508,3.7142,3.7011,3.7795,3.7534,3.7246,3.7246,3.6724,3.675,3.7795,3.7743,3.7717,3.79,3.79,3.79,3.79,3.7716,3.7598,3.7598,3.7413,3.732,3.732,3.732,3.732,3.732,3.732,3.732,3.7268,3.591,3.4696,3.3598,3.3768,3.3725,3.3598,3.3598,3.3428,3.3283,3.3283,3.3283,3.3156,3.2171,3.1634,3.126,3.0331,2.9905,2.9804,2.9804,2.9804,2.9804,2.9804,2.9804,2.9553,2.8423,2.8097,2.7846,2.6776,2.6499,2.6499,2.6499,2.5737,2.4983,2.4825,2.4023,2.3296,2.3145,2.3095,2.303,2.2812,2.2201,2.1499,2.0652,1.9518,1.8366,1.7328,1.6976,1.6637,1.6239,1.58,1.5382,1.4928,1.4353,1.3886,1.3516,1.3375,1.3286,1.3186,1.3186,1.3113,1.2992,1.2992,1.2992,1.2992,1.2992,1.2992,1.2992,1.2992,1.2968,0.0,0.0,3.2189,3.3901,3.4789,3.5391,3.5913,3.6488,3.6776,3.6227,3.6123,3.6149,3.6149,3.5234,3.5025,3.675,3.6515,3.6541,3.7743,3.7874,3.7874,3.7874,3.7351,3.722,0.0,3.7377,3.7273,3.7874,3.79,3.79,3.79,3.79,3.79,3.79,3.7854,3.7854,3.7854,3.7854,3.7854,3.7854,3.7854,3.7854,3.7828,3.6404,3.515,3.4089,3.4089,3.4063,3.4089,3.4089,3.3894,3.3683,3.3683,3.3683,3.3606,3.3059,3.225,3.1311,3.0783,3.0231,2.9804,2.9804,2.9804,2.9804,2.9804,2.9804,2.9553,2.8423,2.8097,2.7846,2.6776,2.6499,2.6499,2.6499,2.6047,2.5435,2.4901,2.4381,2.3803,2.3221,2.3095,2.306,2.2909,2.2757,2.2438,2.1755,2.1015,1.9842,1.7928,1.7151,1.6687,1.6431,1.596,1.5691,1.567,1.4821,1.4279,1.4258,1.3845,1.3525,1.3386,1.3386,1.3338,1.3194,1.3194,1.3194,1.3194,1.3194,1.3194,1.3194,1.3194,1.3166,3.0372,0.0,3.2725,3.4058,3.5129,3.5887,3.607,3.6567,3.6724,3.5757,3.526,3.4972,3.4972,3.4371,3.4293,3.5652,3.5992,3.6384,3.7194,3.7299,3.7299,3.7299,3.6462,0.0,0.0,0.0,0.0,3.7848,3.79,3.79,3.79,3.79,3.79,3.79,3.79,3.79,3.79,3.79,3.79,3.79,3.79,3.7391,3.6475,3.6173,3.5323,3.4131,3.423,3.423,3.4131,3.4131,3.3937,3.3725,3.3725,3.3725,3.37,3.3495,3.2772,3.1782,3.1182,3.0661,3.0177,3.0177,3.0177,3.0177,3.0177,3.0126,2.9859,2.9037,2.8483,2.7921,2.7228,2.6776,2.6499,2.6499,2.6047,2.5536,2.5385,2.4632,2.3929,2.3753,2.3371,2.3065,2.306,2.3,2.2645,2.1695,2.0564,1.9352,1.813,1.7567,1.7117,1.6715,1.6455,1.614,1.5739,1.5401,1.4966,1.4345,1.4159,1.3858,1.343,1.3386,1.3338,1.3194,1.3194,1.3194,1.3194,1.3194,1.3194,1.3194,1.3194,1.3166,3.0973,3.215,3.33,3.4424,3.526,3.5809,3.5809,3.6123,3.6018,3.4659,3.3744,3.3169,3.3169,3.2725,3.2855,3.4424,3.5312,3.6096,3.6907,3.7194,3.7325,3.7325,3.6488,0.0,0.0,0.0,0.0,3.7848,3.79,3.79,3.79,3.79,3.79,3.79,3.79,3.79,3.79,3.79,3.79,3.79,3.79,3.7182,3.5903,3.6009,3.5409,3.4189,3.4356,3.4314,3.4189,3.4189,3.4105,3.3937,3.3937,3.3937,3.3953,3.3704,3.3101,3.2249,3.1689,3.1009,3.0406,3.0406,3.0406,3.0406,3.0406,3.0254,2.9961,2.9377,2.8798,2.8222,2.7469,2.7052,2.6751,2.6549,2.6197,2.5837,2.5636,2.5059,2.4456,2.4079,2.3703,2.3346,2.3145,2.3095,2.2794,2.192,2.079,1.9682,1.8565,1.8007,1.7512,1.6983,1.6779,1.6476,1.5987,1.5822,1.5442,1.4842,1.4635,1.4295,1.3723,1.3703,1.3597,1.3338,1.3338,1.3338,1.3338,1.3338,1.3338,1.3338,1.3338,1.3286,3.1588,3.2751,3.3901,3.5025,3.5286,3.5286,3.526,3.5234,3.4711,3.296,3.1653,3.0817,0.0,0.0,3.0753,3.3117,3.4528,3.5678,3.6802,3.7508,3.79,0.0,0.0,0.0,0.0,0.0,0.0,3.7848,0.0,3.79,3.79,3.79,3.79,3.79,3.79,3.79,3.79,3.79,3.79,3.79,3.79,3.7273,3.6096,3.6096,3.5469,3.4397,3.4397,3.4397,3.4397,3.4397,3.4397,3.4397,3.4397,3.4397,3.4345,3.3822,3.3221,3.2659,3.2286,3.1356,3.0444,3.0444,3.0444,3.0444,3.0444,3.0292,2.9999,2.944,2.9101,2.8674,2.763,2.7329,2.7178,2.6659,2.6533,2.6348,2.5795,2.5611,2.5285,2.423,2.4004,2.3778,2.3195,2.3095,2.292,2.2397,2.1731,2.0785,1.9247,1.8521,1.7902,1.7324,1.7011,1.6744,1.6459,1.6036,1.5766,1.5745,1.533,1.4847,1.4391,1.4345,1.4138,1.3679,1.3659,1.3659,1.3659,1.3659,1.3659,1.3659,1.3659,1.3611,3.2829,3.3666,3.4371,3.5103,3.5286,3.5182,3.4737,3.4319,3.3535,3.1784,2.9823,2.8673,0.0,0.0,0.0,3.1876,3.3979,0.0,3.6227,3.7246,0.0,3.79,0.0,3.7246,3.7848,3.7351,0.0,0.0,3.79,3.79,3.79,3.79,3.79,3.79,3.79,3.79,3.79,3.79,3.79,3.79,3.79,3.7273,3.6096,3.6096,3.5469,3.4397,3.4397,3.4397,3.4397,3.4397,3.4397,3.4397,3.4397,3.4397,3.4371,3.4241,3.3561,3.2698,3.2579,3.1785,3.0823,3.0823,3.0823,3.0823,3.0823,3.0736,3.052,3.0366,2.9856,2.9184,2.8507,2.8058,2.7599,2.7003,2.6773,2.662,2.6468,2.5988,2.541,2.4732,2.3898,2.3271,2.312,2.3095,2.292,2.2397,2.1816,2.1076,2.0027,1.9159,1.8414,1.7929,1.7623,1.734,1.7032,1.6897,1.6709,1.6391,1.6111,1.5727,1.513,1.5032,1.4888,1.4656,1.4635,1.4635,1.4635,1.4635,1.4635,1.4635,1.4635,1.4558,3.3352,3.3979,3.4476,3.4816,3.4737,3.4319,3.3456,3.2646,3.1496,2.951,2.7654,0.0,0.0,0.0,0.0,0.0,0.0,0.0,3.56,3.675,3.7612,0.0,3.7612,0.0,3.7874,3.7586,3.7534,0.0,3.79,3.79,3.79,3.79,3.79,3.79,3.79,3.79,3.79,3.79,3.79,3.79,3.79,3.7273,3.6096,3.6096,3.5469,3.4397,0.0,3.4397,3.4397,3.4397,3.4397,3.4397,3.4397,3.4397,3.4371,3.4136,3.3483,3.2646,3.2411,3.1731,3.0973,3.0973,3.0973,3.0973,3.0973,3.0849,3.0698,3.0698,3.0314,2.9702,2.8908,2.8482,2.8046,2.7216,2.6841,2.6679,2.6679,2.6324,2.5737,2.4983,2.4073,2.3396,2.3145,2.3095,2.2995,2.2694,2.2196,2.1587,2.0871,1.9778,1.8919,1.8548,1.8224,1.7925,1.7623,1.7595,1.7511,1.727,1.7036,1.6601,1.5907,1.5701,1.5405,1.5007,1.5007,1.5007,1.5007,1.5007,1.5007,1.5007,1.5007,1.4961,3.3535,3.4031,3.4371,3.4319,3.3875,3.3143,3.1876,3.057,2.9091,2.6974,0.0,2.4599,2.4835,2.5275,2.6373,2.8778,0.0,3.3195,3.4946,3.6227,3.7194,3.7717,3.7848,3.79,3.79,3.79,3.79,3.79,3.79,3.79,3.79,3.79,3.79,3.79,3.79,3.79,3.79,3.79,3.79,3.79,3.79,3.7273,3.6096,3.6096,3.5469,3.4397,0.0,0.0,3.4397,3.4397,3.4397,3.4397,3.4397,3.4397,3.4345,3.3875,3.3273,3.262,3.2084,3.1522,3.0973,3.0973,3.0973,3.0973,3.0973,3.0887,3.0736,3.0736,3.0596,3.0225,2.9093,2.8774,2.8492,2.7361,2.6909,2.6782,2.6782,2.6595,2.6139,2.5073,2.4444,2.3865,2.3226,2.3125,2.3125,2.3095,2.2644,2.2146,2.1669,2.0397,1.9415,1.9078,1.8789,1.8498,1.8228,1.8228,1.8228,1.8228,1.7957,1.7476,1.673,1.6461,1.5972,1.5326,1.5279,1.5279,1.5279,1.5279,1.5252,1.5226,1.5226,1.52,3.411,3.4319,3.4293,3.3849,3.3273,3.2411,3.0753,2.8804,0.0,0.0,2.3916,2.2557,2.3995,2.4334,2.5328,2.8098,0.0,0.0,0.0,0.0,3.7037,0.0,0.0,0.0,0.0,0.0,0.0,0.0,0.0,0.0,3.79,3.79,3.79,3.79,3.79,3.79,3.79,3.79,3.79,3.79,3.79,3.7273,3.6096,3.6096,3.5469,3.4397,0.0,0.0,3.4397,3.4397,3.4397,3.4397,3.4397,3.4397,3.4397,3.4293,3.3587,3.2672,3.2568,3.1862,3.0973,3.0973,3.0973,3.0973,3.0973,3.0999,3.0962,3.0962,3.0898,3.0637,2.949,2.9203,2.8881,2.7709,2.7289,2.7214,2.7214,2.6719,2.6049,2.5352,2.4796,2.4203,2.3462,2.336,2.33,2.3125,2.2644,2.2272,2.2171,2.1079,2.0071,1.9391,1.9186,1.9001,1.8842,1.8842,1.8842,1.8842,1.8575,1.8259,1.7843,1.7566,1.7241,1.6829,1.6829,1.6829,1.6829,1.6718,1.6607,1.649,1.6378,1.6266,3.4319,3.4397,3.4267,3.3718,3.2908,3.181,3.0085,0.0,0.0,0.0,2.2662,2.1407,2.2557,2.3001,0.0,2.6634,0.0,0.0,0.0,0.0,0.0,0.0,0.0,0.0,0.0,0.0,0.0,0.0,0.0,0.0,3.79,3.79,3.79,3.79,3.79,3.79,3.79,3.79,3.79,3.79,3.79,3.7273,3.6096,3.6096,3.5469,3.4397,0.0,0.0,3.4397,3.4397,3.4397,3.4397,3.4397,3.4397,3.4397,3.4397,3.3666,3.2698,3.2698,3.194,3.0973,3.0973,3.0973,3.0973,3.0973,3.0973,3.0973,3.0973,3.0973,3.0712,2.9624,2.931,2.8987,2.7777,2.739,2.7281,2.718,2.6873,2.6447,2.5858,2.5326,2.4674,2.3928,2.3593,2.333,2.3125,2.2869,2.2619,2.2347,2.1788,2.1106,2.0177,1.9726,1.95,1.9422,1.9422,1.9422,1.9422,1.916,1.8869,1.8575,1.8278,1.7979,1.7678,1.7678,1.7678,1.7678,1.7462,1.7234,1.7011,1.6807,1.6581,3.4371,3.4397,3.4241,3.3561,3.2515,3.1145,2.9327,2.6661,0.0,0.0,2.1668,2.0674,2.1224,2.1721,2.2794,0.0,2.6791,0.0,0.0,0.0,0.0,0.0,0.0,0.0,0.0,0.0,0.0,0.0,0.0,0.0,0.0,3.79,3.79,3.79,3.79,3.79,3.79,3.79,3.79,3.79,3.79,3.7273,3.6096,3.6096,3.5469,3.4397,0.0,0.0,0.0,3.4397,3.4397,3.4397,3.4397,3.4397,3.4397,3.4397,3.3666,3.2698,3.2698,3.194,3.0973,3.0973,3.0973,3.0973,3.0973,3.0973,3.0973,3.0973,3.0973,3.0738,2.9719,2.9379,2.8987,2.7777,2.7423,2.7315,2.7146,2.7113,2.6958,2.6425,2.5936,2.5332,2.4458,2.3968,2.3547,2.321,2.318,2.2975,2.2518,2.2368,2.197,2.1144,2.0388,1.9936,1.9811,1.9811,1.9811,1.9811,1.9578,1.9342,1.9105,1.8815,1.8525,1.8282,1.8282,1.8282,1.8282,1.8011,1.771,1.7407,1.7095,1.6779,3.4267,3.4397,3.4136,3.3038,3.1914,3.0477,2.8203,0.0,0.0,2.2609,2.1093,2.0048,2.0648,2.083,2.159,2.389,0.0,2.7046,0.0,0.0,0.0,0.0,0.0,0.0,0.0,0.0,0.0,0.0,0.0,0.0,0.0,3.79,3.79,3.79,3.79,3.79,3.79,3.79,3.79,3.79,3.79,3.7273,3.6096,3.6096,3.5469,3.4397,0.0,0.0,0.0,3.4397,3.4397,3.4397,3.4397,3.4397,3.4397,3.4397,3.3666,3.2698,3.2698,3.194,3.0973,3.0973,3.0973,3.0973,3.0973,3.0973,3.0973,3.0973,3.0973,3.0843,3.0179,2.9666,2.8987,2.7777,2.749,2.749,2.7456,2.7456,2.73,2.6759,2.6602,2.6179,2.4874,2.4611,2.4313,2.3496,2.336,2.3275,2.3075,2.2594,2.2272,2.2171,2.1245,2.039,1.9836,1.9811,1.9811,1.9811,1.9656,1.9525,1.9368,1.9212,1.9081,1.8922,1.8919,1.8919,1.8919,1.8629,1.8333,1.8011,1.7623,1.72,3.33,3.3639,3.3639,3.2424,3.1052,2.9536,2.7881,0.0,2.2635,2.2452,2.1015,1.9969,2.0594,2.0699,2.1197,2.282,2.4047,2.5767,2.8673,0.0,0.0,0.0,0.0,0.0,0.0,0.0,0.0,0.0,0.0,0.0,0.0,0.0,3.79,3.79,3.79,3.79,3.79,3.79,3.7717,3.7351,3.7351,3.675,3.5626,3.5626,3.5182,0.0,0.0,0.0,0.0,3.4397,3.4397,3.4397,3.4397,3.4397,3.4397,3.4397,3.3666,3.2698,3.2698,3.194,3.0973,3.0973,3.0973,3.0973,3.0973,3.0973,3.0973,3.0973,3.0973,3.0843,3.0257,2.9431,2.8543,2.7699,2.749,2.749,2.749,2.749,2.7438,2.7236,2.6922,2.6393,2.5397,2.4926,2.4421,2.3552,2.339,2.333,2.3125,2.292,2.2644,2.2347,2.1619,2.0968,2.039,2.0339,2.0189,1.9836,1.9759,1.9708,1.963,1.9604,1.9552,1.9474,1.9474,1.9474,1.9474,1.9212,1.8922,1.8629,1.8093,1.7567,3.2359,3.2881,3.3038,3.1888,3.0424,2.8882,0.0,2.4726,2.2558,2.2217,2.1041,2.0151,2.0386,2.0412,2.0752,2.1747,2.2844,2.4543,2.7236,2.9614,0.0,0.0,0.0,0.0,0.0,0.0,0.0,0.0,0.0,0.0,0.0,0.0,3.79,3.79,3.79,3.79,3.79,3.7717,3.7429,3.7011,3.6828,3.6227,3.5286,3.5286,3.4972,0.0,0.0,0.0,0.0,3.4397,3.4397,3.4397,3.4397,3.4397,3.4371,3.4214,3.3535,3.2672,3.2515,3.181,3.0973,3.0973,3.0973,3.0973,3.0973,3.0973,3.0973,3.0973,3.0973,3.0817,3.0085,2.9274,2.8464,2.7673,2.749,2.749,2.749,2.749,2.749,2.749,2.721,2.6654,2.5797,2.533,2.4688,2.3697,2.3565,2.348,2.3245,2.3245,2.3089,2.2657,2.2308,2.175,2.0993,2.0943,2.0767,2.0338,2.0288,2.0288,2.0288,2.0288,2.0288,2.0288,2.0137,2.0062,2.0062,1.9651,1.9342,1.9105,1.8575,1.7929,3.151,3.2254,3.2437,3.1287,3.0137,2.8673,0.0,2.4435,2.2869,2.1747,2.1093,2.0491,1.9917,1.9812,1.9995,2.062,2.1668,2.3212,2.5537,2.7837,0.0,0.0,0.0,0.0,0.0,0.0,0.0,0.0,0.0,0.0,0.0,0.0,3.79,3.79,3.79,3.79,3.79,3.7299,3.7011,3.6985,3.641,3.5835,3.5286,3.5286,0.0,0.0,0.0,0.0,0.0,3.4397,3.4397,3.4397,3.4397,3.4397,3.4345,3.3796,3.3221,3.2594,3.2006,3.1432,3.0973,3.0973,3.0973,3.0973,3.0973,3.0973,3.0973,3.0973,3.0973,3.0712,2.9588,2.931,2.8987,2.7777,2.749,2.749,2.749,2.749,2.749,2.749,2.749,2.7124,2.5976,2.5793,2.537,2.4101,2.3891,2.3832,2.3628,2.3599,2.3539,2.339,2.339,2.2875,2.1597,2.1468,2.1468,2.1468,2.1468,2.1468,2.1468,2.1468,2.1468,2.1468,2.0968,2.0691,2.0691,1.9956,1.9551,1.9394,1.8972,1.8329,2.9274,3.0189,3.066,2.951,2.8046,2.6634,2.5515,2.3576,2.1956,2.159,2.1093,2.0646,2.0438,2.0412,2.0465,2.0673,2.1668,0.0,0.0,0.0,0.0,0.0,0.0,0.0,0.0,0.0,0.0,0.0,0.0,0.0,0.0,0.0,0.0,3.79,3.79,3.7717,3.7299,3.7116,3.6619,3.5835,3.5652,3.5234,3.4685,0.0,0.0,0.0,0.0,0.0,0.0,3.4397,3.4397,3.4397,3.4397,3.4162,3.3822,3.3666,3.296,3.2058,3.1876,3.147,3.0973,3.0973,3.0973,3.0973,3.0973,3.0973,3.0973,3.0973,3.0973,3.0712,2.9624,2.931,2.8987,2.7777,2.749,2.749,2.749,2.749,2.749,2.749,2.749,2.7255,2.653,2.6086,2.5501,2.4568,2.4123,2.3832,2.3628,2.3599,2.3539,2.339,2.339,2.3027,2.2121,2.2046,2.1895,2.1518,2.1493,2.1493,2.1493,2.1493,2.1493,2.1493,2.1345,2.1245,2.1245,2.1014,2.0802,2.053,2.0197,1.9663,2.685,2.7785,2.8247,2.7373,2.6138,2.4962,2.4178,2.2714,2.1459,2.1224,2.0752,2.0281,2.0072,2.002,2.002,2.002,2.1171,0.0,0.0,0.0,0.0,0.0,0.0,0.0,0.0,0.0,0.0,0.0,0.0,0.0,0.0,0.0,0.0,3.722,3.7456,3.7377,3.7011,3.6567,3.5992,3.5286,3.5077,3.4763,3.4397,0.0,0.0,0.0,0.0,0.0,0.0,3.4397,3.4397,3.4397,3.4397,3.4058,3.3561,3.3326,3.2646,3.1771,3.1562,3.1287,3.0973,3.0973,3.0973,3.0973,3.0973,3.0973,3.0973,3.0973,3.0973,3.0712,2.9624,2.931,2.8987,2.7777,2.749,2.749,2.749,2.749,2.749,2.749,2.749,2.7307,2.6798,2.6373,2.5845,2.4944,2.4528,2.4183,2.3832,2.3776,2.3747,2.3599,2.3595,2.3352,2.2736,2.2652,2.2443,2.2121,2.2096,2.2096,2.2096,2.2096,2.2096,2.2096,2.1895,2.1794,2.1794,2.1594,2.1409,2.1184,2.0933,2.0505,0.0,2.5197,2.5615,2.5018,2.4439,2.3733,2.2557,2.1825,0.0,2.0674,2.0124,1.9577,1.9054,1.9002,1.9054,1.9081,2.057,0.0,0.0,0.0,0.0,0.0,0.0,0.0,0.0,0.0,0.0,0.0,0.0,0.0,0.0,0.0,0.0,0.0,3.6619,3.6881,3.6881,3.5835,3.5286,3.5234,3.4659,3.4397,3.4397,0.0,0.0,0.0,0.0,0.0,0.0,3.4397,3.4397,3.4397,3.4345,3.4005,3.3456,3.2855,3.228,3.1667,3.1182,3.0973,3.0973,3.0973,3.0973,3.0973,3.0973,3.0973,3.0973,3.0973,3.0973,3.0712,2.9624,2.931,2.8987,2.7777,2.749,2.749,2.749,2.749,2.749,2.749,2.749,2.7333,2.6817,2.6745,2.6353,2.528,2.5044,2.4809,2.4256,2.4122,2.4067,2.392,2.3891,2.3772,2.3445,2.3241,2.312,2.3095,2.3095,2.3095,2.3095,2.3095,2.3095,2.3095,2.2594,2.2372,2.2372,2.187,2.1562,2.1421,2.1283,2.0974,2.1459,0.0,2.494,2.389,2.3524,2.3027,0.0,2.0623,2.0048,1.9447,1.9211,1.9211,1.9525,1.9967,2.0412,2.0832,0.0,0.0,0.0,0.0,0.0,0.0,0.0,0.0,0.0,0.0,0.0,0.0,0.0,0.0,0.0,0.0,0.0,0.0,3.5835,3.5704,3.5704,3.5443,3.5077,3.4607,3.4476,3.4397,0.0,0.0,0.0,0.0,0.0,0.0,0.0,3.4397,3.4397,3.4345,3.3953,3.343,3.2829,3.2215,3.1679,3.1156,3.1026,3.0973,3.0973,3.0973,3.0973,3.0973,3.0973,3.0973,3.0973,3.0973,3.0973,3.0712,2.9624,2.931,2.8987,2.7777,2.749,2.749,2.749,2.749,2.749,2.749,2.749,2.7464,2.7307,2.6974,2.6614,2.6353,2.5568,2.494,2.4809,2.4387,2.4067,2.392,2.3891,2.3772,2.3445,2.336,2.3271,2.3095,2.3095,2.3095,2.3095,2.3095,2.3095,2.3095,2.297,2.292,2.292,2.2794,2.2719,2.266,2.266,2.2228,2.0203,2.1616,2.2872,2.2218,2.2034,2.1721,2.0569,1.9812,1.929,1.8976,1.8715,1.8793,1.9656,2.0048,2.0623,0.0,0.0,0.0,0.0,0.0,0.0,0.0,0.0,0.0,0.0,0.0,0.0,0.0,0.0,0.0,0.0,0.0,0.0,0.0,0.0,3.5025,3.5286,3.5025,3.4711,3.4397,3.4397,3.4397,0.0,0.0,0.0,0.0,0.0,0.0,3.4397,3.4397,3.4397,3.4345,3.3796,3.3221,3.262,3.2006,3.1432,3.0973,3.0973,3.0973,3.0973,3.0973,3.0973,3.0973,3.0973,3.0973,3.0973,3.0973,3.0973,3.0712,2.9624,2.931,2.8987,2.7777,2.749,2.749,2.749,2.749,2.749,2.749,2.749,2.749,2.749,2.7262,2.6974,2.6745,2.617,2.5698,2.538,2.5092,2.4775,2.4454,2.4398,2.4175,2.3535,2.348,2.339,2.312,2.3095,2.3095,2.3095,2.3095,2.3095,2.3095,2.3095,2.3095,2.3095,2.2844,2.2869,2.3095,2.2844,2.2575,1.9865,2.0386,2.0805,2.0805,2.1014,2.1014,2.0231,1.9656,1.9264,1.9081,1.8689,1.8689,1.9734,2.0074,0.0,0.0,0.0,0.0,0.0,0.0,0.0,0.0,0.0,0.0,0.0,0.0,0.0,0.0,0.0,0.0,0.0,0.0,0.0,0.0,0.0,0.0,3.5155,3.4659,3.4397,3.4397,3.4397,3.4397,3.4397,3.4397,0.0,0.0,0.0,0.0,3.4397,3.4397,3.4345,3.4214,3.3666,3.3091,3.2489,3.1876,3.1392,3.0973,3.0973,3.0973,3.0973,3.0973,3.0973,3.0973,3.0973,3.0973,3.0973,3.0973,3.0973,3.0712,2.9624,2.931,2.8987,2.7777,2.749,2.749,2.749,2.749,2.749,2.749,2.749,2.749,2.749,2.749,2.7333,2.687,2.6771,2.6536,2.6007,2.5845,2.5641,2.5175,2.5044,2.4658,2.3838,2.365,2.348,2.3125,2.3095,2.3095,2.3095,2.3095,2.3095,2.3095,2.3095,2.3095,2.3095,2.2543,2.2569,2.3095,2.2543,2.2485,2.0151,2.0962,2.1381,2.1381,2.2479,2.3184,2.1616,2.1172,2.0832,1.9865,1.9603,1.9734,2.0438,2.1328,2.2583,0.0,0.0,0.0,0.0,0.0,0.0,0.0,0.0,0.0,0.0,0.0,0.0,0.0,0.0,0.0,0.0,0.0,0.0,0.0,0.0,0.0,0.0,3.445,3.4397,3.4397,3.4397,3.4397,3.4397,3.4397,3.4397,0.0,0.0,0.0,3.4397,3.4397,3.4136,3.3666,3.3064,3.2489,3.1876,3.1339,3.1052,3.0973,3.0973,3.0973,3.0973,3.0973,3.0973,3.0973,3.0973,3.0973,3.0973,3.0973,3.0973,3.0712,2.9624,2.931,2.8987,2.7777,2.749,2.749,2.749,2.749,2.749,2.749,2.749,2.749,2.749,2.749,2.7464,2.7385,2.6974,2.6667,2.6588,2.6138,2.5767,2.5694,2.5249,2.4845,2.4407,2.3885,2.348,2.3125,2.3095,2.3095,2.3095,2.3095,2.3095,2.3095,2.3095,2.3095,2.3095,2.2543,2.2569,2.3095,2.2543,2.2318,1.9522,2.0597,2.159,2.1877,2.3026,2.3783,2.2688,2.2191,2.1852,2.1328,2.0936,0.0,0.0,0.0,0.0,0.0,0.0,0.0,0.0,0.0,0.0,0.0,0.0,0.0,0.0,0.0,0.0,0.0,0.0,0.0,0.0,0.0,0.0,0.0,0.0,0.0,0.0,3.4397,3.4397,3.4397,3.4397,3.4397,3.4397,3.4397,3.4397,0.0,0.0,3.4397,3.4397,3.4397,3.4084,3.3535,3.2934,3.2333,3.1745,3.1209,3.0973,3.0973,3.0973,3.0973,3.0973,3.0973,3.0973,3.0973,3.0973,3.0973,3.0973,3.0973,3.0973,3.0712,2.9624,2.931,2.8987,2.7777,2.749,2.749,2.749,2.749,2.749,2.749,2.749,2.749,2.749,2.749,2.749,2.749,2.7314,2.7131,2.7131,2.6863,2.6602,2.6321,2.6091,2.5579,2.4684,2.4339,2.3876,2.315,2.3095,2.3095,2.3095,2.3095,2.3095,2.3095,2.3095,2.3095,2.3095,2.2543,2.2569,2.3095,2.2543,2.2472,1.8872,2.0074,2.1511,2.2374,2.3548,2.4331,2.3759,2.3526,2.3369,2.3239,2.2818,0.0,0.0,2.5406,0.0,0.0,0.0,0.0,0.0,0.0,0.0,0.0,0.0,0.0,0.0,0.0,0.0,0.0,0.0,0.0,0.0,0.0,0.0,0.0,0.0,0.0,0.0,3.4397,3.4397,3.4397,3.4397,3.4397,3.4397,3.4397,3.4397,3.4397,3.4397,3.4319,3.4214,3.4214,3.3796,3.3143,3.2672,3.215,3.1536,3.1156,3.0973,3.0973,3.0973,3.0973,3.0973,3.0973,3.0973,3.0973,3.0973,3.0973,3.0973,3.0973,3.0973,3.0764,2.9745,2.9483,2.9222,2.8177,2.7803,2.7699,2.7699,2.7594,2.749,2.749,2.749,2.749,2.749,2.749,2.749,2.749,2.749,2.749,2.749,2.749,2.7333,2.6922,2.6771,2.6211,2.5008,2.474,2.4299,2.3472,2.3291,2.3241,2.3241,2.321,2.318,2.318,2.3125,2.3095,2.3095,2.2543,2.2569,2.3095,2.2543,2.2569,1.8767,1.981,2.1145,2.274,2.4409,2.5563,2.4992,2.5672,2.6216,2.5667,2.5506,0.0,0.0,0.0,0.0,0.0,0.0,0.0,0.0,0.0,0.0,0.0,0.0,0.0,0.0,0.0,0.0,0.0,0.0,0.0,0.0,0.0,0.0,0.0,0.0,0.0,0.0,3.4397,3.4397,3.4397,3.4397,3.4397,3.4397,3.4397,3.4397,3.4397,3.4397,3.411,3.3639,3.3639,3.2986,3.1928,3.1876,3.151,3.1052,3.0999,3.0973,3.0973,3.0973,3.0973,3.0973,3.0973,3.0973,3.0973,3.0973,3.0973,3.0973,3.0973,3.0973,3.0843,3.0205,3.0048,2.9892,2.9301,2.8726,2.8368,2.8368,2.7915,2.749,2.749,2.749,2.749,2.749,2.749,2.749,2.749,2.749,2.749,2.749,2.749,2.749,2.7438,2.7,2.6393,2.5604,2.4937,2.4479,2.4397,2.388,2.3569,2.3569,2.345,2.336,2.336,2.321,2.3095,2.3095,2.2543,2.2569,2.3095,2.2543,2.2569,1.9394,2.0072,2.1014,2.2375,2.3995,2.5511,2.6373,2.7183,2.7889,2.8351,2.8229,0.0,0.0,0.0,0.0,0.0,0.0,0.0,0.0,0.0,0.0,0.0,0.0,0.0,0.0,0.0,0.0,0.0,0.0,0.0,0.0,0.0,0.0,0.0,0.0,0.0,0.0,3.4397,3.4397,3.4397,3.4397,3.4397,3.4397,3.4397,3.4397,3.4397,3.4397,3.4084,3.3587,3.3587,3.2908,3.1771,3.1444,3.1182,3.0973,3.0973,3.0973,3.0973,3.0973,3.0973,3.0973,3.0973,3.0973,3.0973,3.0973,3.0973,3.0973,3.0973,3.0973,3.0843,3.0257,3.01,2.9944,2.9405,2.9153,2.8865,2.8499,2.8203,2.7941,2.7568,2.749,2.749,2.749,2.749,2.749,2.749,2.749,2.749,2.749,2.749,2.749,2.749,2.7027,2.6582,2.6309,2.5667,2.5299,2.5299,2.4232,2.3599,2.3599,2.345,2.339,2.339,2.321,2.3095,2.3095,2.2895,2.2895,2.3095,2.3301,2.3477,1.963,2.0098,2.0987,2.214,2.3579,2.5249,2.7314,2.8386,2.9222,3.0153,3.0241,2.9938,2.9407,0.0,0.0,0.0,0.0,0.0,0.0,0.0,0.0,0.0,0.0,0.0,0.0,0.0,0.0,0.0,0.0,0.0,0.0,0.0,0.0,0.0,0.0,0.0,0.0,3.4397,3.4397,3.4397,3.4397,3.4397,3.4397,3.4397,3.4397,3.4397,3.4397,3.3979,3.33,3.33,3.262,3.1484,3.113,3.0973,3.0973,3.0973,3.0973,3.0973,3.0973,3.0973,3.0973,3.0973,3.0973,3.0973,3.0973,3.0973,3.0973,3.0973,3.0973,3.0895,3.0503,3.0361,3.0294,2.9902,2.9666,2.9431,2.9013,2.8647,2.8255,2.7863,2.762,2.749,2.749,2.749,2.749,2.749,2.749,2.749,2.749,2.749,2.749,2.749,2.7183,2.6948,2.6948,2.6425,2.6086,2.6086,2.4957,2.424,2.406,2.3671,2.345,2.345,2.3241,2.3095,2.3095,2.3095,2.3195,2.3396,2.3828,2.4079,1.9237,1.981,2.0987,2.2113,2.3263,2.4883,2.7732,2.9301,3.0257,3.0895,3.147,3.1717,3.1378,0.0,0.0,0.0,0.0,0.0,0.0,0.0,0.0,0.0,0.0,0.0,0.0,0.0,0.0,0.0,0.0,0.0,0.0,0.0,0.0,0.0,0.0,0.0,0.0,3.4397,3.4397,3.4397,3.4397,3.4397,3.4397,3.4397,3.4397,3.4397,3.4397,3.3744,3.2698,3.2672,3.2019,3.0973,3.0973,3.1011,3.1037,3.1011,3.1011,3.1037,3.1011,3.1011,3.1037,3.1011,3.0973,3.0973,3.0973,3.0973,3.0973,3.0973,3.0973,3.0973,3.0973,3.0973,3.0973,3.0973,3.0555,3.01,3.01,2.9222,2.8386,2.842,2.7915,2.7516,2.749,2.749,2.749,2.749,2.749,2.749,2.749,2.749,2.749,2.749,2.749,2.749,2.749,2.7,2.6719,2.6719,2.6138,2.5563,2.5018,2.4116,2.3624,2.3624,2.33,2.312,2.312,2.312,2.3421,2.4004,2.4004,2.4305,2.0727,2.1302,2.2165,2.3315,2.4465,2.5955,2.8438,2.9902,3.113,0.0,3.3079,3.2988,3.209,0.0,0.0,0.0,0.0,0.0,0.0,0.0,0.0,0.0,0.0,0.0,0.0,0.0,0.0,0.0,0.0,0.0,0.0,0.0,0.0,0.0,0.0,0.0,0.0,0.0,3.4214,3.3822,3.4214,3.4397,3.4397,3.4397,3.4397,3.4371,3.4005,3.3404,3.262,3.181,3.1401,3.1235,3.1384,3.1421,3.141,3.1421,3.1421,3.141,3.1421,3.1421,3.141,3.1421,3.1347,3.1161,3.1048,3.0973,3.0973,3.0973,3.0973,3.0973,3.0973,3.0973,3.0973,3.0973,3.0843,3.0634,3.0179,2.9813,2.9379,2.8577,2.8255,2.7994,2.7568,2.749,2.749,2.749,2.749,2.749,2.749,2.749,2.749,2.749,2.749,2.749,2.749,2.7333,2.7262,2.7262,2.6739,2.6164,2.5589,2.5097,2.4807,2.4807,2.4463,2.4299,2.4299,2.4299,2.4374,2.4582,2.4958,2.5008,2.1642,2.2452,2.342,2.4779,2.5981,2.7575,3.0346,0.0,0.0,0.0,0.0,3.3714,0.0,0.0,0.0,0.0,0.0,0.0,0.0,0.0,0.0,0.0,0.0,0.0,0.0,0.0,0.0,0.0,0.0,0.0,0.0,0.0,0.0,0.0,0.0,0.0,0.0,0.0,0.0,3.3488,3.3885,3.4124,3.4232,3.4354,3.4267,3.4031,3.3247,3.2698,3.228,3.1365,3.1161,3.1458,3.169,3.18,3.179,3.18,3.18,3.179,3.18,3.1827,3.179,3.18,3.1616,3.1384,3.1086,3.0973,3.0973,3.0973,3.0973,3.0973,3.0973,3.0973,3.0973,3.0973,3.0973,3.0895,3.0555,3.0257,2.9892,2.9222,2.8882,2.8621,2.8281,2.802,2.7863,2.7863,2.7646,2.749,2.749,2.749,2.7411,2.721,2.7183,2.7105,2.6837,2.6811,2.6915,2.7183,2.6902,2.6634,2.6472,2.5806,2.5415,2.5415,2.5097,2.4904,2.4904,2.484,2.48,2.48,2.5134,2.5134,2.206,2.3289,2.4596,2.6353,2.7766,0.0,3.2855,3.3639,3.3796,3.4293,0.0,0.0,0.0,0.0,0.0,0.0,0.0,0.0,0.0,0.0,0.0,0.0,0.0,0.0,0.0,0.0,0.0,0.0,0.0,0.0,0.0,0.0,0.0,0.0,0.0,0.0,0.0,0.0,0.0,0.0,3.3534,3.3765,3.393,3.4191,3.4035,3.3418,3.2346,3.1848,3.177,3.1322,3.1347,3.1726,3.2064,3.2209,3.22,3.2209,3.2209,3.22,3.2209,3.2209,3.22,3.2209,3.1992,3.1643,3.1235,3.1086,3.1086,3.1086,3.1086,3.1075,3.1048,3.1048,3.1011,3.0973,3.0973,3.0973,3.0973,3.0581,3.0153,3.01,2.9719,2.9388,2.9336,2.8865,2.8472,2.842,2.7889,2.749,2.749,2.749,2.7307,2.6817,2.6745,2.6478,2.5923,2.5819,2.6033,2.6588,2.6641,2.6844,2.7307,2.6317,2.576,2.576,2.5409,2.5249,2.5249,2.4973,2.485,2.485,2.48,2.475,2.1957,2.3607,2.5197,2.6922,2.9187,3.1484,3.3221,3.3927,3.4267,3.4371,0.0,0.0,0.0,0.0,0.0,0.0,0.0,0.0,0.0,0.0,0.0,0.0,0.0,0.0,0.0,0.0,0.0,0.0,0.0,0.0,0.0,0.0,0.0,0.0,0.0,0.0,3.2881,3.3265,3.3298,0.0,3.3864,3.4176,3.4038,3.3858,3.3381,3.2641,3.2402,3.2106,3.1867,3.188,3.2092,3.2489,3.2917,3.3058,3.3058,3.3058,3.3058,3.3058,3.3058,3.3058,3.3058,3.3058,3.2775,3.2381,3.1982,3.1836,3.1836,3.1836,3.179,3.1669,3.1532,3.1347,3.1198,3.1048,3.0973,3.0973,3.0973,3.0895,3.0686,3.0179,2.9996,2.9797,2.9353,2.9205,2.897,2.8472,2.7889,2.749,2.749,2.749,2.7438,2.7333,2.6948,2.6667,2.6536,2.6086,2.5845,2.6007,2.6007,2.6059,2.6158,2.6655,2.6926,2.6926,2.656,2.6358,2.6358,2.5736,2.5435,2.5435,2.5008,2.455,2.1929,2.3953,2.6059,2.8847,0.0,3.2542,3.3718,3.4188,3.4397,0.0,0.0,0.0,0.0,0.0,0.0,0.0,0.0,0.0,0.0,0.0,0.0,0.0,0.0,0.0,0.0,0.0,0.0,0.0,0.0,0.0,0.0,0.0,0.0,0.0,0.0,0.0,3.2836,3.3246,3.3363,3.3137,3.3804,3.4056,3.3924,3.3512,3.3095,3.2659,3.2364,3.2253,3.23,3.2561,3.2854,3.3241,3.3624,3.3825,3.3825,3.3796,3.3825,3.3825,3.3796,3.3825,3.3825,3.3796,3.352,3.3136,3.2747,3.264,3.264,3.264,3.2453,3.2228,3.1946,3.1653,3.1384,3.1048,3.0973,3.0973,3.0973,3.0973,3.0895,3.0607,3.0529,3.0451,3.0137,2.9876,2.9483,2.8943,2.8307,2.7941,2.7941,2.7673,2.7385,2.7157,2.6608,2.6164,2.5908,2.5328,2.5118,2.5406,2.5406,2.5537,2.5793,2.6303,2.6583,2.6583,2.6506,2.634,2.6026,2.5492,2.5084,2.4833,2.4556,2.413,2.1868,2.4411,2.7131,3.0753,3.2123,0.0,3.4005,3.4267,3.4293,0.0,0.0,0.0,0.0,0.0,0.0,0.0,0.0,0.0,0.0,0.0,0.0,0.0,0.0,0.0,0.0,0.0,0.0,0.0,0.0,0.0,0.0,0.0,0.0,0.0,0.0,3.3527,3.3046,3.3413,3.3561,3.3479,3.3894,3.4059,3.3957,3.3453,3.3156,3.3018,3.2536,3.2533,3.2917,3.3276,3.3624,3.3968,3.4308,3.4438,3.4467,3.4409,3.4438,3.4467,3.4409,3.4438,3.4467,3.4409,3.4206,3.3899,3.352,3.3416,3.3416,3.3416,3.3136,3.281,3.2426,3.2028,3.169,3.1272,3.1161,3.1149,3.1011,3.0973,3.0973,3.0973,3.0973,3.0973,3.0973,3.0503,2.9944,2.951,2.8908,2.8577,2.8577,2.8046,2.7497,2.7059,2.6269,2.5641,2.5175,2.4491,2.4308,2.4809,2.4835,2.504,2.548,2.5615,2.561,2.5506,2.5839,2.5781,2.5294,2.4867,2.4431,2.4004,2.3904,2.3602,2.1536,0.0,2.8689,0.0,3.1522,3.2215,0.0,0.0,0.0,0.0,0.0,0.0,0.0,0.0,0.0,0.0,0.0,0.0,0.0,0.0,0.0,0.0,0.0,0.0,0.0,0.0,0.0,0.0,0.0,0.0,0.0,0.0,3.296,3.3254,3.3289,0.0,3.3178,3.3564,3.3917,3.4177,3.4935,3.5096,3.4735,3.4327,3.3807,3.3241,3.3157,3.3339,3.3652,3.4094,3.4366,3.4631,3.4769,3.4835,3.4835,3.4806,3.4835,3.4835,3.4806,3.4835,3.4835,3.4806,3.4702,3.4563,3.4298,3.423,3.423,3.423,3.3957,3.3583,3.3234,3.2846,3.2453,3.2055,3.1863,3.1633,3.1086,3.0973,3.0973,3.0973,3.0973,3.0973,3.0973,3.0503,3.0074,2.9996,2.9536,2.9205,2.9205,2.8647,2.8229,2.8185,2.6765,2.5767,2.572,2.4696,2.4122,2.423,2.423,2.4256,2.4305,2.4831,2.4857,2.436,2.504,2.5371,2.5294,2.4488,2.4079,2.3979,2.3446,2.317,2.2036,2.5391,2.829,0.0,3.1418,3.2032,3.2908,0.0,0.0,0.0,0.0,0.0,0.0,0.0,0.0,0.0,0.0,0.0,0.0,0.0,0.0,0.0,0.0,0.0,0.0,0.0,0.0,0.0,0.0,0.0,0.0,3.3129,3.3479,3.3859,3.3894,0.0,3.3894,3.4133,3.4471,3.4806,3.5294,3.5359,3.5067,3.4773,3.437,3.3922,3.3865,3.407,3.4467,3.4835,3.5063,3.5129,3.5228,3.5261,3.5261,3.5261,3.5261,3.5261,3.5261,3.5261,3.5261,3.5261,3.5195,3.5129,3.503,3.503,3.503,3.503,3.4735,3.4337,3.3968,3.3589,3.3206,3.2818,3.2525,3.22,3.1726,3.1495,3.1336,3.1336,3.131,3.131,3.1198,3.0839,3.0607,3.0607,3.0137,2.9771,2.9771,2.9248,2.8917,2.8917,2.7915,2.7262,2.7262,2.6216,2.5563,2.5563,2.5249,2.5036,2.5036,2.5328,2.5171,2.4596,2.4853,2.4834,2.4494,2.4019,2.3771,2.3771,2.3492,2.339,2.2007,2.4759,2.7173,2.9531,3.0608,3.1333,0.0,0.0,0.0,0.0,0.0,0.0,0.0,0.0,0.0,0.0,0.0,0.0,0.0,0.0,0.0,0.0,0.0,0.0,0.0,0.0,0.0,0.0,0.0,0.0,3.352,3.3894,3.4264,3.4664,3.4698,3.4698,3.4698,3.4831,3.503,3.5294,3.5424,3.5424,3.5261,3.51,3.4902,3.4698,3.4509,3.4643,3.5001,3.5359,3.5519,3.5519,3.5519,3.5519,3.5519,3.5519,3.5519,3.5519,3.5519,3.5519,3.5519,3.5519,3.5519,3.5519,3.5519,3.5519,3.5519,3.5519,3.5261,3.4902,3.4543,3.424,3.3934,3.3589,3.3241,3.2846,3.2245,3.1909,3.1743,3.1743,3.1753,3.1653,3.1421,3.1161,3.0973,3.0973,3.0634,3.0309,3.0309,2.9849,2.9483,2.9483,2.883,2.842,2.842,2.7471,2.6896,2.6896,2.6478,2.6211,2.6211,2.608,2.5824,2.5437,2.5127,2.4594,2.3891,2.3688,2.3599,2.3599,2.3782,2.3756,2.0733,2.3081,2.5617,2.7363,2.8523,0.0,0.0,0.0,0.0,0.0,0.0,0.0,0.0,0.0,0.0,0.0,0.0,0.0,0.0,0.0,0.0,0.0,0.0,0.0,0.0,0.0,0.0,0.0,0.0,0.0,3.4211,3.4639,3.5034,3.5424,3.5424,3.5424,3.5424,3.5424,3.5487,3.5457,3.5489,3.5519,3.5457,3.5457,3.5457,3.5424,3.5034,3.5001,3.5195,3.5392,3.5519,3.5519,3.5519,3.5519,3.5519,3.5519,3.5519,3.5519,3.5519,3.5519,3.5519,3.5519,3.5519,3.5519,3.5519,3.5519,3.5519,3.5519,3.5359,3.5133,3.4935,3.4769,3.4597,3.4366,3.4025,3.3444,3.2345,3.2101,3.2064,3.2055,3.2064,3.1955,3.1616,3.1272,3.0973,3.0973,3.0947,3.0947,3.0947,3.0451,3.0048,3.0048,2.9065,2.842,2.842,2.7837,2.7464,2.7464,2.7411,2.7411,2.7411,2.6922,2.6641,2.6614,2.6059,2.5131,2.3891,2.3688,2.3599,2.3599,2.4197,2.4171,1.9156,2.1235,0.0,2.519,2.6655,2.7985,0.0,0.0,0.0,0.0,0.0,0.0,0.0,0.0,0.0,0.0,0.0,0.0,0.0,0.0,0.0,0.0,0.0,0.0,0.0,0.0,0.0,0.0,0.0,0.0,3.4673,3.4935,3.5228,3.5519,3.5519,3.5519,3.5519,3.5519,3.5519,3.5519,3.5519,3.5519,3.5519,3.5519,3.5519,3.5519,3.5359,3.5326,3.5392,3.5457,3.5519,3.5519,3.5519,3.5519,3.5519,3.5519,3.5519,3.5519,3.5519,3.5519,3.5519,3.5519,3.5519,3.5519,3.5519,3.5519,3.5519,3.5519,3.5424,3.5359,3.5294,3.5261,3.5129,3.4802,3.4404,3.4036,3.3652,3.3199,3.2854,3.2881,3.2881,3.2747,3.2381,3.1982,3.168,3.1596,3.1458,3.1347,3.1198,3.0865,3.0686,3.0686,3.0294,3.0059,3.0059,2.9536,2.9161,2.9161,2.8856,2.8647,2.8647,2.8464,2.8211,2.7818,2.7575,2.6681,2.5131,2.468,2.4706,2.5013,2.4888,2.5096,1.818,1.9976,0.0,0.0,0.0,2.6319,0.0,0.0,0.0,0.0,0.0,0.0,0.0,0.0,0.0,0.0,0.0,0.0,0.0,0.0,0.0,0.0,0.0,0.0,0.0,0.0,0.0,0.0,0.0,0.0,3.5166,3.5297,3.5424,3.5519,3.5519,3.5519,3.5519,3.5519,3.5519,3.5519,3.5519,3.5519,3.5519,3.5519,3.5519,3.5519,3.5519,3.5519,3.5519,3.5519,3.5519,3.5519,3.5519,3.5519,3.5519,3.5519,3.5519,3.5519,3.5519,3.5519,3.5519,3.5519,3.5519,3.5519,3.5519,3.5519,3.5519,3.5519,3.5519,3.5519,3.5519,3.5519,3.5424,3.5067,3.4739,3.4509,3.4568,3.4065,3.3624,3.3652,3.3652,3.352,3.3136,3.2747,3.2335,3.192,3.164,3.1279,3.0864,3.0582,3.0424,3.0424,3.0581,3.0712,3.0712,3.0529,3.0388,3.0388,3.0059,2.9849,2.9849,2.9666,2.9379,2.8987,2.8778,2.8124,2.6974,2.6216,2.6033,2.6367,2.619,2.653,0.0,0.0,0.0,0.0,0.0,0.0,0.0,0.0,0.0,0.0,0.0,0.0,0.0,0.0,0.0,0.0,0.0,0.0,0.0,0.0,0.0,0.0,0.0,0.0,0.0,0.0,0.0,0.0,0.0,3.5497,3.5688,3.5688,3.5653,3.5489,3.5519,3.5519,3.5519,3.5519,3.5519,3.5519,3.5519,3.5519,3.5519,3.5519,3.5519,3.5519,3.5519,3.5519,3.5519,3.5519,3.5519,3.5519,3.5519,3.5519,3.5519,3.5489,3.5519,3.5519,3.5519,3.5519,3.5519,3.5519,3.5519,3.5519,3.5519,3.5519,3.5519,3.5519,3.5519,3.5519,3.5519,3.5519,3.5424,3.5261,3.5067,3.4935,3.4935,3.461,3.4375,3.4399,3.437,3.4211,3.3899,3.352,3.2912,3.1972,3.1451,3.0883,2.9926,2.9522,2.931,2.931,2.9771,3.0074,3.01,3.0634,3.0973,3.0973,3.0973,3.0973,3.0973,3.0451,3.0127,3.0127,2.9614,2.9362,2.9362,2.8124,2.7542,2.7568,2.8177,2.8369,1.7583,0.0,0.0,0.0,0.0,0.0,0.0,0.0,0.0,0.0,0.0,0.0,0.0,0.0,0.0,0.0,0.0,0.0,0.0,0.0,0.0,0.0,0.0,0.0,0.0,0.0,0.0,0.0,0.0,3.5655,3.5688,3.5621,3.5554,3.5519,3.5519,3.5519,3.5519,3.5519,3.5519,3.5519,3.5519,3.5519,3.5519,3.5519,3.5519,3.5519,3.5519,3.5519,3.5519,3.5519,3.5519,3.5519,3.5519,3.5519,3.5489,3.5621,3.5653,3.5653,3.5653,3.5653,3.5621,3.5522,3.5519,3.5519,3.5519,3.5519,3.5519,3.5519,3.5519,3.5519,3.5519,3.5519,3.5519,3.5424,3.5359,3.5326,3.5326,3.5261,3.51,3.4802,3.4739,3.4673,3.4467,3.4264,3.3693,3.2557,3.1937,3.1232,3.0169,2.9592,2.931,2.931,2.9431,2.9693,3.0074,3.0231,3.0555,3.0947,3.0973,3.0973,3.0973,3.0843,3.0738,3.0738,3.0607,3.0503,3.0503,2.8908,2.836,2.8804,2.9379,2.9396,1.8655,1.9217,0.0,0.0,0.0,0.0,0.0,0.0,0.0,0.0,0.0,0.0,0.0,0.0,0.0,0.0,0.0,0.0,0.0,0.0,0.0,0.0,0.0,0.0,0.0,0.0,0.0,0.0,3.5816,3.5784,3.5688,3.5557,3.5519,3.5519,3.5519,3.5519,3.5519,3.5519,3.5519,3.5519,3.5519,3.5519,3.5519,3.5519,3.5519,3.5519,3.5519,3.5519,3.5519,3.5519,3.5519,3.5519,3.5519,3.5519,3.5522,3.5653,3.5688,3.5688,3.5688,3.5688,3.5688,3.5554,3.5519,3.5519,3.5519,3.5519,3.5519,3.5519,3.5519,3.5519,3.5519,3.5519,3.5519,3.5519,3.5519,3.5519,3.5519,3.528,3.5096,3.5136,3.5162,3.5129,3.5063,3.4931,3.4343,3.2791,3.205,3.1142,2.9673,2.8921,2.8543,2.8543,2.8752,2.9039,2.9379,2.9813,3.0231,3.0607,3.0843,3.0973,3.0973,3.0973,3.0973,3.0973,3.0973,3.0973,3.0973,2.9954,2.9676,3.0043,3.032,3.032,2.0696,2.1178,2.1475,0.0,0.0,0.0,2.1265,2.2541,0.0,0.0,0.0,0.0,0.0,0.0,0.0,0.0,0.0,0.0,0.0,0.0,0.0,0.0,0.0,0.0,0.0,0.0,0.0,3.5973,3.5973,3.5878,3.5688,3.5587,3.5519,3.5519,3.5519,3.5519,3.5519,3.5519,3.5519,3.5519,3.5519,3.5519,3.5519,3.5519,3.5519,3.5519,3.5519,3.5519,3.5519,3.5519,3.5519,3.5519,3.5519,3.5519,3.5522,3.5686,3.572,3.5752,3.5752,3.5752,3.572,3.5587,3.5522,3.5522,3.5489,3.5519,3.5519,3.5519,3.5519,3.5519,3.5519,3.5519,3.5519,3.5519,3.5519,3.5489,3.54,3.4921,3.4653,3.519,3.528,3.528,3.528,3.528,3.4607,3.2701,3.1858,3.0783,2.893,2.8052,2.7623,2.7623,2.8095,2.8444,2.8497,2.9512,3.0105,3.0069,3.0655,3.0944,3.0828,3.0828,3.079,3.079,3.0869,3.0921,3.0973,3.0973,3.0973,3.0973,3.0973,3.0973,2.2837,2.2604,2.22,2.1645,0.0,0.0,0.0,2.1506,0.0,0.0,0.0,0.0,0.0,0.0,0.0,0.0,0.0,0.0,0.0,0.0,0.0,0.0,0.0,0.0,0.0,0.0,3.5784,3.5973,3.5847,3.5718,3.5554,3.5489,3.5519,3.5519,3.5519,3.5519,3.5519,3.5519,3.5519,3.5519,3.5519,3.5519,3.5519,3.5519,3.5519,3.5519,3.5519,3.5519,3.5519,3.5519,3.5519,3.5519,3.5519,3.5519,3.5552,3.5814,3.5941,3.5973,3.607,3.6101,3.6038,3.5752,3.5655,3.5653,3.5522,3.5519,3.5519,3.5519,3.5519,3.5519,3.5519,3.5519,3.5519,3.5519,3.5519,3.534,3.4801,3.4593,3.4384,3.3963,3.3873,3.3873,3.3873,3.3873,3.345,3.2156,3.1452,3.063,2.9331,2.8702,2.8406,2.8406,2.8487,2.8756,2.9154,2.9915,3.025,3.0032,3.0459,3.0483,2.9829,2.9686,2.965,2.965,3.0059,3.0529,3.0973,3.0973,3.0973,3.0973,3.0973,3.0973,2.5402,2.502,2.4321,2.3379,0.0,0.0,0.0,0.0,0.0,0.0,0.0,0.0,0.0,0.0,0.0,0.0,0.0,0.0,0.0,0.0,0.0,0.0,0.0,0.0,0.0,0.0,3.5292,3.5718,3.5653,3.5587,3.5489,3.5519,3.5519,3.5519,3.5519,3.5519,3.5519,3.5519,3.5519,3.5519,3.5519,3.5519,3.5519,3.5587,3.5589,3.5589,3.5589,3.5589,3.5589,3.5522,3.5519,3.5519,3.5519,3.5519,3.5522,3.5878,3.6005,3.6037,3.6133,3.6196,3.6133,3.5816,3.5688,3.5655,3.5554,3.5519,3.5519,3.5519,3.5519,3.5519,3.5519,3.5519,3.5429,3.507,3.4981,3.4801,3.4174,3.3724,3.3395,3.3066,3.2736,3.2706,3.3395,3.3484,3.3153,3.2044,3.1529,3.0864,2.9803,2.9282,2.9058,2.9058,2.9058,2.9168,2.9412,3.0328,3.0608,2.997,3.0605,3.0539,2.9662,2.9416,2.931,2.931,2.9849,3.0231,3.0555,3.0843,3.0973,3.0973,3.0973,3.0973,0.0,0.0,0.0,0.0,0.0,2.2523,0.0,0.0,0.0,2.2283,0.0,0.0,0.0,0.0,0.0,0.0,0.0,0.0,0.0,0.0,0.0,0.0,0.0,0.0,0.0,0.0,3.4382,3.507,3.51,3.516,3.531,3.5429,3.5519,3.5519,3.5519,3.5519,3.5519,3.5519,3.5519,3.5519,3.5519,3.5519,3.5489,3.5653,3.5688,3.5655,3.5688,3.5688,3.5623,3.5554,3.5519,3.5519,3.5519,3.5519,3.5552,3.5814,3.5941,3.5973,3.6133,3.6196,3.6133,3.5847,3.572,3.5653,3.5522,3.5519,3.5519,3.5519,3.5519,3.5519,3.5519,3.5519,3.534,3.4683,3.4503,3.4294,3.3484,3.2886,3.2437,3.2318,3.1869,3.1839,3.2946,3.3125,3.2825,3.1989,3.1599,3.109,3.0266,2.9903,2.9718,2.9718,2.9718,2.9718,2.9718,3.0764,3.0998,2.9933,3.0562,3.0539,2.956,2.9144,2.8987,2.9118,2.9562,2.9865,3.01,3.0607,3.0869,3.0973,3.0973,3.0973,0.0,0.0,0.0,0.0,2.4477,0.0,0.0,0.0,2.1635,2.1784,0.0,0.0,0.0,0.0,0.0,0.0,0.0,0.0,0.0,0.0,0.0,0.0,0.0,0.0,0.0,0.0,0.0,3.3664,3.3724,3.3993,3.4593,3.519,3.5519,3.5519,3.5519,3.5519,3.5519,3.5519,3.5519,3.5519,3.5519,3.5519,3.5489,3.5653,3.5653,3.5522,3.5653,3.5653,3.5522,3.5519,3.5519,3.5519,3.5519,3.5519,3.5522,3.5686,3.572,3.5784,3.6101,3.6196,3.6164,3.6037,3.575,3.5522,3.5489,3.5519,3.5519,3.5519,3.5519,3.5519,3.5519,3.5519,3.534,3.4683,3.4503,3.4174,3.2886,3.2557,3.2318,3.172,3.154,3.154,3.169,3.172,3.1632,3.1396,3.1191,3.0954,3.0746,3.0568,3.0477,3.0477,3.0477,3.0477,3.0477,3.1083,3.101,2.9888,3.0002,2.9624,2.8529,2.7974,2.7968,2.8499,2.8543,2.9091,3.01,3.0153,3.0503,3.0973,3.0973,3.0973,0.0,0.0,0.0,0.0,0.0,0.0,0.0,0.0,2.1814,0.0,0.0,0.0,0.0,0.0,0.0,0.0,0.0,0.0,0.0,0.0,0.0,0.0,0.0,0.0,0.0,0.0,0.0,0.0,0.0,3.2377,3.3814,3.4532,3.51,3.5489,3.5519,3.5519,3.5519,3.5519,3.5519,3.5519,3.5519,3.5519,3.5489,3.5653,3.5655,3.5621,3.5655,3.5655,3.5621,3.5621,3.5621,3.5621,3.5621,3.5587,3.5522,3.5653,3.5752,3.591,3.6101,3.6289,3.6259,3.5612,3.5177,3.4921,3.4921,3.4921,3.4981,3.54,3.5519,3.5519,3.5519,3.5519,3.534,3.4683,3.4503,3.4264,3.3275,3.3095,3.3006,3.2736,3.2677,3.2677,3.2677,3.2019,3.1482,3.1424,3.1336,3.1248,3.119,3.1131,3.1102,3.1102,3.1102,3.1102,3.1102,3.1722,3.154,3.0355,2.9592,2.8785,2.7855,2.7623,2.762,2.7889,2.8203,2.8621,2.9118,2.9457,2.9771,3.0006,3.0686,3.0973,3.2706,0.0,0.0,0.0,0.0,0.0,0.0,0.0,0.0,0.0,0.0,0.0,0.0,0.0,0.0,0.0,0.0,0.0,0.0,0.0,0.0,0.0,0.0,0.0,0.0,0.0,0.0,0.0,0.0,0.0,3.2856,3.3933,3.4743,3.522,3.54,3.5519,3.5519,3.5519,3.5519,3.5519,3.5519,3.5519,3.5489,3.5653,3.5688,3.5653,3.5688,3.5688,3.5653,3.5688,3.5688,3.5653,3.5688,3.5621,3.5522,3.5653,3.5784,3.5941,3.6133,3.632,3.6321,3.5552,3.4999,3.4596,3.4776,3.4685,3.4653,3.531,3.5519,3.5519,3.5519,3.5519,3.534,3.4683,3.4503,3.4324,3.3634,3.3484,3.3484,3.3484,3.3484,3.3484,3.3484,3.2706,3.1989,3.1809,3.178,3.172,3.154,3.1511,3.1511,3.1511,3.1511,3.1511,3.1511,3.1959,3.1694,3.0507,2.9404,2.8509,2.7822,2.7789,2.7789,2.7789,2.8178,2.8407,2.8557,2.8935,2.9188,2.9336,3.0137,3.0529,0.0,0.0,0.0,2.8094,0.0,0.0,0.0,0.0,2.4515,0.0,0.0,0.0,0.0,0.0,0.0,0.0,0.0,0.0,0.0,0.0,0.0,0.0,0.0,0.0,0.0,0.0,0.0,0.0,0.0,0.0,3.1481,3.3425,3.4503,3.4533,3.516,3.5519,3.5519,3.5519,3.5519,3.5519,3.5519,3.5519,3.5489,3.5653,3.5621,3.5489,3.5653,3.5621,3.5522,3.5653,3.5621,3.5522,3.5653,3.5621,3.5522,3.5653,3.5688,3.5752,3.607,3.6196,3.6196,3.6165,3.5519,3.4813,3.5446,3.514,3.4653,3.531,3.5519,3.5519,3.5519,3.5519,3.534,3.4683,3.4503,3.4324,3.3634,3.3484,3.3484,3.3484,3.3484,3.3484,3.3484,3.3455,3.3215,3.2587,3.2467,3.2228,3.16,3.1511,3.1511,3.1511,3.1511,3.1511,3.1511,3.154,3.1102,3.0086,2.9532,2.9058,2.86,2.8568,2.8568,2.8568,2.8379,2.8511,2.8871,2.8754,2.8899,2.931,2.9362,2.9362,0.0,0.0,3.145,2.9894,0.0,0.0,0.0,0.0,0.0,0.0,0.0,0.0,0.0,0.0,0.0,0.0,0.0,0.0,0.0,0.0,0.0,0.0,0.0,0.0,0.0,0.0,0.0,0.0,0.0,0.0,0.0,3.2736,3.4054,3.4503,3.516,3.5519,3.5519,3.5519,3.5519,3.5519,3.5589,3.5621,3.5653,3.5814,3.5878,3.5844,3.572,3.5655,3.5653,3.5688,3.5655,3.5653,3.5688,3.5655,3.5653,3.5688,3.5784,3.5973,3.6289,3.632,3.6134,3.5676,3.5154,3.4723,3.4964,3.481,3.4653,3.531,3.5519,3.5519,3.5519,3.5519,3.5459,3.522,3.5489,3.5759,3.5519,3.5789,3.6088,3.6088,3.6088,3.5938,3.5549,3.5489,3.4951,3.3395,3.2796,3.2437,3.2168,3.178,3.1511,3.1511,3.1511,3.1511,3.1511,3.1307,3.0925,3.0359,2.9964,2.9594,2.9219,2.9188,2.9188,2.9188,2.8931,2.8752,2.8648,2.8412,2.8245,2.8124,2.8124,2.8543,3.5489,3.4412,0.0,0.0,3.0073,0.0,0.0,0.0,0.0,0.0,0.0,0.0,0.0,0.0,0.0,0.0,0.0,0.0,0.0,0.0,0.0,0.0,0.0,0.0,0.0,0.0,2.4694,2.5824,0.0,0.0,0.0,0.0,3.2856,3.3754,3.4651,3.525,3.5519,3.5519,3.5519,3.5519,3.5653,3.5688,3.572,3.591,3.6005,3.6005,3.5784,3.5688,3.5688,3.5688,3.5655,3.5653,3.5688,3.5655,3.5653,3.5752,3.5973,3.6195,3.6445,3.6414,3.6228,3.5799,3.5278,3.4847,3.5089,3.4841,3.4653,3.531,3.5519,3.5519,3.5519,3.5519,3.5579,3.5789,3.6178,3.6537,3.6776,3.7135,3.7404,3.7404,3.7404,3.7285,3.6896,3.6626,3.5878,3.4113,3.3484,3.3125,3.2886,3.2497,3.2108,3.1869,3.1839,3.175,3.154,3.1248,3.0955,3.0718,3.0448,3.0147,2.9903,2.9903,2.9903,2.9903,2.9529,2.9149,2.8707,2.8411,2.8079,2.7689,2.7689,2.8144]}]]